[[{"header":{"parameterUnit":"m.s-1","parameterCategory":1,"la1":31.0,"la2":29.5877,"lo1":-88.7671,"lo2":-86.6584,"dy":0.0162,"dx":0.0185,"nx":115,"ny":88,"refTime":"2023-06-30T00:00:00:Z","depth":0,"parameterNumber":2,"parameterNumberName":"U-component_of_WINDS"},"data":[0.0,0.0,0.0,0.0,0.0,0.0,0.0,0.0,0.0,0.0,0.0,0.0,0.0,0.0,0.0,0.0,0.0,0.0,0.0,0.0,0.0,0.0,0.0,0.0,0.0,0.0,0.0,0.0,0.0,0.0,0.0,0.0,0.0,0.0,0.0,0.0,0.0,0.0,0.0,0.0,0.0,0.0,0.0,0.0,0.0,0.0,0.0,0.0,0.0,0.0,0.0,0.0,0.0,0.0,0.0,0.0,0.0,0.0,0.0,0.0,0.0,0.0,0.0,0.0,0.0,0.0,0.0,0.0,0.0,0.0,0.0,0.0,0.0,0.0,0.0,0.0,0.0,0.0,0.0,0.0,0.0,0.0,0.0,0.0,0.0,0.0,0.0,0.0,0.0,0.0,0.0,0.0,0.0,0.0,0.0,0.0,0.0,0.0,0.0,0.0,0.0,0.0,0.0,0.0,0.0,0.0,0.0,0.0,0.0,0.0,0.0,0.0,0.0,0.0,0.0,0.0,0.0,0.0,0.0,0.0,0.0,0.0,0.0,0.0,0.0,0.0,0.0,0.0,0.0,0.0,0.0,0.0,0.0,0.0,0.0,0.0,0.0,0.0,0.0,0.0,0.0,0.0,0.0,0.0,0.0,0.0,0.0,0.0,0.0,0.0,0.0,0.0,0.0,0.0,0.0,0.0,0.0,0.0,0.0,0.0,0.0,0.0,0.0,0.0,0.0,0.0,0.0,0.0,0.0,0.0,0.0,0.0,0.0,0.0,0.0,0.0,0.0,0.0,0.0,0.0,0.0,0.0,0.0,0.0,0.0,0.0,0.0,0.0,0.0,0.0,0.0,0.0,0.0,0.0,0.0,0.0,0.0,0.0,0.0,0.0,0.0,0.0,0.0,0.0,0.0,0.0,0.0,0.0,0.0,0.0,0.0,0.0,0.0,0.0,0.0,0.0,0.0,0.0,0.0,0.0,0.0,0.0,0.0,0.0,0.0,0.0,0.0,0.0,0.0,0.0,0.0,0.0,0.0,0.0,0.0,0.0,0.0,0.0,0.0,0.0,0.0,0.0,0.0,0.0,0.0,0.0,0.0,0.0,0.0,0.0,0.0,0.0,0.0,0.0,0.0,0.0,0.0,0.0,0.0,0.0,0.0,0.0,0.0,0.0,0.0,0.0,0.0,0.0,0.0,0.0,0.0,0.0,0.0,0.0,0.0,0.0,0.0,0.0,0.0,0.0,0.0,0.0,0.0,0.0,0.0,0.0,0.0,0.0,0.0,0.0,0.0,0.0,0.0,0.0,0.0,0.0,0.0,0.0,0.0,0.0,0.0,0.0,0.0,0.0,0.0,0.0,0.0,0.0,0.0,0.0,0.0,0.0,0.0,0.0,0.0,0.0,0.0,0.0,0.0,0.0,0.0,0.0,0.0,0.0,0.0,0.0,0.0,0.0,0.0,0.0,0.0,0.0,0.0,0.0,0.0,0.0,0.0,0.0,0.0,0.0,0.0,0.0,0.0,0.0,0.0,0.0,0.0,0.0,0.0,0.0,0.0,0.0,0.0,0.0,0.0,0.0,0.0,0.0,0.0,0.0,0.0,0.0,0.0,0.0,0.0,0.0,0.0,0.0,0.0,0.0,0.0,0.0,0.0,0.0,0.0,0.0,0.0,0.0,0.0,0.0,0.0,0.0,0.0,0.0,0.0,0.0,0.0,0.0,0.0,0.0,0.0,0.0,0.0,0.0,0.0,0.0,0.0,0.0,0.0,0.0,0.0,0.0,0.0,0.0,0.0,0.0,0.0,0.0,0.0,0.0,0.0,0.0,0.0,0.0,0.0,0.0,0.0,0.0,0.0,0.0,0.0,0.0,0.0,0.0,0.0,0.0,0.0,0.0,0.0,0.0,0.0,0.0,0.0,0.0,0.0,0.0,0.0,0.0,0.0,0.0,0.0,0.0,0.0,0.0,0.0,0.0,0.0,0.0,0.0,0.0,0.0,0.0,0.0,0.0,0.0,0.0,0.0,0.0,0.0,0.0,0.0,0.0,0.0,0.0,0.0,0.0,0.0,0.0,0.0,0.0,0.0,0.0,0.0,0.0,0.0,0.0,0.0,0.0,0.0,0.0,0.0,0.0,0.0,0.0,0.0,0.0,0.0,0.0,0.0,0.0,0.0,0.0,0.0,0.0,0.0,0.0,0.0,0.0,0.0,0.0,0.0,0.0,0.0,0.0,0.0,0.0,0.0,0.0,0.0,0.0,0.0,0.0,0.0,0.0,0.0,0.0,0.0,0.0,0.0,0.0,0.0,0.0,0.0,0.0,0.0,0.0,0.0,0.0,0.0,0.0,0.0,0.0,0.0,0.0,0.0,0.0,0.0,0.0,0.0,0.0,0.0,0.0,0.0,0.0,0.0,0.0,0.0,0.0,0.0,0.0,0.0,0.0,0.0,0.0,0.0,0.0,0.0,0.0,0.0,0.0,0.0,0.0,0.0,0.0,0.0,0.0,0.0,0.0,0.0,0.0,0.0,0.0,0.0,0.0,0.0,0.0,0.0,0.0,0.0,0.0,0.0,0.0,0.0,0.0,0.0,0.0,0.0,0.0,0.0,0.0,0.0,0.0,0.0,0.0,0.0,0.0,0.0,0.0,0.0,0.0,0.0,0.0,0.0,0.0,0.0,0.0,0.0,0.0,0.0,0.0,0.0,0.0,0.0,0.0,0.0,0.0,0.0,0.0,0.0,0.0,0.0,0.0,0.0,0.0,0.0,0.0,0.0,0.0,0.0,0.0,0.0,0.0,0.0,0.0,0.0,0.0,0.0,0.0,0.0,0.0,0.0,0.0,0.0,0.0,0.0,0.0,0.0,0.0,0.0,0.0,0.0,0.0,0.0,0.0,0.0,0.0,0.0,0.0,0.0,0.0,0.0,0.0,0.0,0.0,0.0,0.0,0.0,0.0,0.0,0.0,0.0,0.0,0.0,0.0,0.0,0.0,0.0,0.0,0.0,0.0,0.0,0.0,0.0,0.0,0.0,0.0,0.0,0.0,0.0,0.0,0.0,0.0,0.0,0.0,0.0,0.0,0.0,0.0,0.0,0.0,0.0,0.0,0.0,0.0,0.0,0.0,0.0,0.0,0.0,0.0,0.0,0.0,0.0,0.0,0.0,0.0,0.0,0.0,0.0,0.0,0.0,0.0,0.0,0.0,0.0,0.0,0.0,0.0,0.0,0.0,0.0,0.0,0.0,0.0,0.0,0.0,0.0,0.0,0.0,0.0,0.0,0.0,0.0,0.0,0.0,0.0,0.0,0.0,0.0,0.0,0.0,0.0,0.0,0.0,0.0,0.0,0.0,0.0,0.0,0.0,0.0,0.0,0.0,0.0,0.0,0.0,0.0,0.0,0.0,0.0,0.0,0.0,0.0,0.0,0.0,0.0,0.0,0.0,0.0,0.0,0.0,0.0,0.0,0.0,0.0,0.0,0.0,0.0,0.0,0.0,0.0,0.0,0.0,0.0,0.0,0.0,0.0,0.0,0.0,0.0,0.0,0.0,0.0,0.0,0.0,0.0,0.0,0.0,0.0,0.0,0.0,0.0,0.0,0.0,0.0,0.0,0.0,0.0,0.0,0.0,0.0,0.0,0.0,0.0,0.0,0.0,0.0,0.0,0.0,0.0,0.0,0.0,0.0,0.0,0.0,0.0,0.0,0.0,0.0,0.0,0.0,0.0,0.0,0.0,0.0,0.0,0.0,0.0,0.0,0.0,0.0,0.0,0.0,0.0,0.0,0.0,0.0,0.0,0.0,0.0,0.0,0.0,0.0,0.0,0.0,0.0,0.0,0.0,0.0,0.0,0.0,0.0,0.0,0.0,0.0,0.0,0.0,0.0,0.0,0.0,0.0,0.0,0.0,0.0,0.0,0.0,0.0,0.0,0.0,0.0,0.0,0.0,0.0,0.0,0.0,0.0,0.0,0.0,0.0,0.0,0.0,0.0,0.0,0.0,0.0,0.0,0.0,0.0,0.0,0.0,0.0,0.0,0.0,0.0,0.0,0.0,0.0,0.0,0.0,0.0,0.0,0.0,0.0,0.0,0.0,0.0,0.0,0.0,0.0,0.0,0.0,0.0,0.0,0.0,0.0,0.0,0.0,0.0,0.0,0.0,0.0,0.0,0.0,0.0,0.0,0.0,0.0,0.0,0.0,0.0,0.0,0.0,0.0,0.0,0.0,0.0,0.0,0.0,0.0,0.0,0.0,0.0,0.0,0.0,0.0,0.0,-2.923,0.0,0.0,0.0,0.0,0.0,0.0,0.0,0.0,0.0,0.0,0.0,0.0,0.0,0.0,0.0,0.0,0.0,0.0,0.0,0.0,0.0,0.0,0.0,0.0,0.0,0.0,0.0,0.0,0.0,0.0,0.0,0.0,0.0,0.0,0.0,0.0,0.0,0.0,0.0,0.0,0.0,0.0,0.0,0.0,0.0,0.0,0.0,0.0,0.0,0.0,0.0,0.0,0.0,0.0,0.0,0.0,0.0,0.0,0.0,0.0,0.0,0.0,0.0,0.0,0.0,0.0,0.0,0.0,0.0,0.0,0.0,0.0,0.0,0.0,0.0,0.0,0.0,0.0,0.0,0.0,0.0,0.0,0.0,0.0,0.0,0.0,0.0,0.0,0.0,0.0,0.0,0.0,0.0,0.0,0.0,0.0,0.0,0.0,0.0,0.0,0.0,0.0,0.0,0.0,0.0,0.0,0.0,0.0,0.0,0.0,-3.2646,-3.1709,-3.1113,-3.0381,-2.9527,0.0,0.0,0.0,0.0,0.0,0.0,0.0,0.0,0.0,0.0,0.0,0.0,0.0,0.0,0.0,0.0,0.0,0.0,0.0,0.0,0.0,0.0,0.0,0.0,0.0,0.0,0.0,0.0,0.0,0.0,0.0,0.0,0.0,0.0,0.0,0.0,0.0,0.0,0.0,0.0,0.0,0.0,0.0,0.0,0.0,0.0,0.0,0.0,0.0,0.0,0.0,0.0,0.0,0.0,0.0,0.0,0.0,0.0,0.0,0.0,0.0,0.0,0.0,0.0,0.0,0.0,0.0,0.0,0.0,0.0,0.0,0.0,0.0,0.0,0.0,0.0,0.0,0.0,0.0,0.0,0.0,0.0,0.0,0.0,0.0,0.0,0.0,0.0,0.0,0.0,0.0,0.0,0.0,0.0,0.0,0.0,0.0,0.0,0.0,0.0,0.0,0.0,0.0,0.0,0.0,0.0,0.0,0.0,0.0,0.0,0.0,0.0,-3.0785,-3.0149,-2.9657,0.0,0.0,0.0,0.0,0.0,0.0,0.0,0.0,0.0,0.0,0.0,0.0,0.0,0.0,0.0,0.0,0.0,0.0,0.0,0.0,0.0,0.0,0.0,0.0,0.0,0.0,0.0,0.0,0.0,0.0,0.0,0.0,0.0,0.0,0.0,0.0,0.0,0.0,0.0,0.0,0.0,0.0,0.0,0.0,0.0,0.0,0.0,0.0,0.0,0.0,0.0,0.0,0.0,0.0,0.0,0.0,0.0,0.0,0.0,0.0,0.0,0.0,0.0,0.0,0.0,0.0,0.0,0.0,0.0,0.0,0.0,0.0,0.0,0.0,0.0,0.0,0.0,0.0,0.0,0.0,0.0,0.0,0.0,0.0,0.0,0.0,0.0,0.0,0.0,0.0,0.0,0.0,0.0,0.0,0.0,0.0,0.0,0.0,0.0,0.0,0.0,0.0,0.0,0.0,0.0,0.0,0.0,0.0,0.0,0.0,-3.2169,-3.1446,-3.1146,0.0,-2.893,0.0,0.0,0.0,0.0,0.0,0.0,0.0,0.0,0.0,0.0,0.0,0.0,0.0,0.0,0.0,0.0,0.0,0.0,0.0,0.0,0.0,0.0,0.0,0.0,0.0,0.0,0.0,0.0,0.0,0.0,0.0,0.0,0.0,0.0,0.0,0.0,0.0,0.0,0.0,0.0,0.0,0.0,0.0,0.0,0.0,0.0,0.0,0.0,0.0,0.0,0.0,0.0,0.0,0.0,0.0,0.0,0.0,0.0,0.0,0.0,0.0,0.0,0.0,0.0,0.0,0.0,0.0,0.0,0.0,0.0,0.0,0.0,0.0,0.0,0.0,0.0,0.0,0.0,0.0,0.0,0.0,0.0,0.0,0.0,0.0,0.0,0.0,0.0,0.0,0.0,0.0,0.0,0.0,0.0,0.0,0.0,0.0,0.0,0.0,0.0,0.0,0.0,0.0,0.0,0.0,0.0,0.0,0.0,0.0,0.0,-3.2112,-3.1243,-3.0651,-3.0041,0.0,0.0,0.0,0.0,0.0,0.0,0.0,0.0,0.0,0.0,0.0,0.0,0.0,0.0,0.0,0.0,0.0,0.0,0.0,0.0,0.0,0.0,0.0,0.0,0.0,0.0,0.0,0.0,0.0,0.0,0.0,0.0,0.0,0.0,0.0,0.0,0.0,0.0,0.0,0.0,0.0,0.0,0.0,0.0,0.0,0.0,0.0,0.0,0.0,0.0,0.0,0.0,0.0,0.0,0.0,0.0,0.0,0.0,0.0,0.0,0.0,0.0,0.0,0.0,0.0,0.0,0.0,0.0,0.0,0.0,0.0,0.0,0.0,0.0,0.0,0.0,0.0,0.0,0.0,0.0,0.0,0.0,0.0,0.0,0.0,0.0,0.0,0.0,0.0,0.0,0.0,0.0,0.0,0.0,0.0,0.0,0.0,0.0,0.0,0.0,0.0,0.0,0.0,0.0,0.0,0.0,0.0,0.0,0.0,0.0,-3.1986,-3.206,-3.1397,-3.0572,-3.0064,-2.9847,0.0,0.0,0.0,0.0,0.0,0.0,0.0,0.0,0.0,0.0,0.0,0.0,0.0,0.0,0.0,0.0,0.0,0.0,0.0,0.0,0.0,0.0,0.0,0.0,0.0,0.0,0.0,0.0,0.0,0.0,0.0,0.0,0.0,0.0,0.0,0.0,0.0,0.0,0.0,0.0,0.0,0.0,0.0,0.0,0.0,0.0,0.0,0.0,0.0,0.0,0.0,0.0,0.0,0.0,0.0,0.0,0.0,0.0,0.0,0.0,0.0,0.0,0.0,0.0,0.0,0.0,0.0,0.0,0.0,0.0,0.0,0.0,0.0,0.0,0.0,0.0,0.0,0.0,0.0,0.0,0.0,0.0,0.0,0.0,0.0,0.0,0.0,0.0,0.0,0.0,0.0,0.0,0.0,0.0,0.0,0.0,0.0,0.0,0.0,0.0,0.0,0.0,0.0,0.0,0.0,0.0,0.0,0.0,-3.3259,-3.266,-3.2212,-3.214,-3.142,-3.0685,0.0,0.0,0.0,0.0,0.0,0.0,0.0,0.0,0.0,0.0,0.0,0.0,0.0,0.0,0.0,0.0,0.0,0.0,0.0,0.0,0.0,0.0,0.0,0.0,0.0,0.0,0.0,0.0,0.0,0.0,0.0,0.0,0.0,0.0,0.0,0.0,0.0,0.0,0.0,0.0,0.0,0.0,0.0,0.0,0.0,0.0,0.0,0.0,0.0,0.0,0.0,0.0,0.0,0.0,0.0,0.0,0.0,0.0,0.0,0.0,0.0,0.0,0.0,0.0,0.0,0.0,0.0,0.0,0.0,0.0,0.0,0.0,0.0,0.0,0.0,0.0,0.0,0.0,0.0,0.0,0.0,0.0,0.0,0.0,0.0,0.0,0.0,0.0,0.0,0.0,0.0,0.0,0.0,0.0,0.0,0.0,0.0,0.0,0.0,0.0,0.0,0.0,0.0,0.0,0.0,0.0,0.0,0.0,0.0,-3.2754,-3.2879,-3.2929,-3.2885,-3.2141,-3.1317,0.0,0.0,0.0,0.0,0.0,0.0,0.0,0.0,0.0,0.0,0.0,0.0,0.0,0.0,0.0,0.0,0.0,0.0,0.0,0.0,0.0,0.0,0.0,0.0,0.0,0.0,0.0,0.0,0.0,0.0,0.0,0.0,0.0,0.0,0.0,0.0,0.0,0.0,0.0,0.0,0.0,0.0,0.0,0.0,0.0,0.0,0.0,0.0,0.0,0.0,0.0,0.0,0.0,0.0,0.0,0.0,0.0,0.0,0.0,0.0,0.0,0.0,0.0,0.0,0.0,0.0,0.0,0.0,0.0,0.0,0.0,0.0,0.0,0.0,0.0,0.0,0.0,0.0,0.0,0.0,0.0,0.0,0.0,0.0,0.0,0.0,0.0,0.0,0.0,0.0,0.0,0.0,0.0,0.0,0.0,0.0,0.0,0.0,0.0,0.0,0.0,0.0,0.0,0.0,0.0,0.0,0.0,0.0,0.0,-3.3067,0.0,-3.3906,0.0,-3.2784,-3.2046,0.0,0.0,0.0,0.0,0.0,0.0,0.0,0.0,0.0,0.0,0.0,0.0,0.0,0.0,0.0,0.0,0.0,0.0,0.0,0.0,0.0,0.0,0.0,0.0,0.0,0.0,0.0,0.0,0.0,0.0,0.0,0.0,0.0,0.0,0.0,0.0,0.0,0.0,0.0,0.0,0.0,0.0,0.0,0.0,0.0,0.0,0.0,0.0,0.0,0.0,0.0,0.0,0.0,0.0,0.0,0.0,0.0,0.0,0.0,0.0,0.0,0.0,0.0,0.0,0.0,0.0,0.0,0.0,0.0,0.0,0.0,0.0,0.0,0.0,0.0,0.0,0.0,0.0,0.0,0.0,0.0,0.0,0.0,0.0,0.0,0.0,0.0,0.0,0.0,0.0,0.0,0.0,0.0,0.0,0.0,0.0,0.0,0.0,0.0,0.0,0.0,0.0,0.0,0.0,0.0,0.0,0.0,0.0,-3.4624,-3.4609,-3.5333,-3.4971,-3.3487,-3.334,-3.2823,0.0,0.0,0.0,0.0,0.0,0.0,0.0,0.0,0.0,0.0,0.0,0.0,0.0,0.0,0.0,0.0,0.0,0.0,0.0,0.0,0.0,0.0,0.0,0.0,0.0,0.0,0.0,0.0,0.0,0.0,0.0,0.0,0.0,0.0,0.0,0.0,0.0,0.0,0.0,0.0,0.0,0.0,0.0,0.0,0.0,0.0,0.0,0.0,0.0,0.0,0.0,0.0,0.0,0.0,0.0,0.0,0.0,0.0,0.0,0.0,0.0,0.0,0.0,0.0,0.0,0.0,0.0,0.0,0.0,0.0,0.0,0.0,0.0,0.0,0.0,0.0,0.0,0.0,0.0,0.0,0.0,0.0,0.0,0.0,0.0,0.0,0.0,0.0,0.0,0.0,0.0,0.0,0.0,0.0,0.0,0.0,0.0,0.0,0.0,0.0,0.0,0.0,0.0,0.0,0.0,0.0,0.0,0.0,0.0,-3.5442,-3.5596,-3.5387,-3.4835,-3.4119,-3.3229,0.0,0.0,0.0,0.0,0.0,0.0,0.0,0.0,0.0,0.0,0.0,0.0,0.0,0.0,0.0,0.0,0.0,0.0,0.0,0.0,0.0,0.0,0.0,0.0,0.0,0.0,0.0,0.0,0.0,0.0,0.0,0.0,0.0,0.0,0.0,0.0,0.0,0.0,0.0,0.0,0.0,0.0,0.0,0.0,0.0,0.0,0.0,0.0,0.0,0.0,0.0,0.0,0.0,0.0,0.0,0.0,0.0,0.0,0.0,0.0,0.0,0.0,0.0,0.0,0.0,0.0,0.0,0.0,0.0,0.0,0.0,0.0,0.0,0.0,0.0,0.0,0.0,0.0,0.0,0.0,0.0,0.0,0.0,0.0,0.0,0.0,0.0,0.0,0.0,0.0,0.0,0.0,0.0,0.0,0.0,0.0,0.0,0.0,0.0,0.0,0.0,0.0,0.0,0.0,0.0,0.0,0.0,0.0,0.0,-3.8427,-3.807,-3.7696,-3.7252,-3.5969,-3.4623,-3.3284,0.0,0.0,0.0,0.0,0.0,0.0,0.0,0.0,0.0,0.0,0.0,0.0,0.0,0.0,0.0,0.0,0.0,0.0,0.0,0.0,0.0,0.0,0.0,0.0,0.0,0.0,0.0,0.0,0.0,0.0,0.0,0.0,0.0,0.0,0.0,0.0,0.0,0.0,0.0,0.0,0.0,0.0,0.0,0.0,0.0,0.0,0.0,0.0,0.0,0.0,0.0,0.0,0.0,0.0,0.0,0.0,0.0,0.0,0.0,0.0,0.0,0.0,0.0,0.0,0.0,0.0,0.0,0.0,0.0,0.0,0.0,0.0,0.0,0.0,0.0,0.0,0.0,0.0,0.0,0.0,0.0,0.0,0.0,0.0,0.0,0.0,0.0,0.0,0.0,0.0,0.0,0.0,0.0,0.0,0.0,0.0,0.0,0.0,0.0,0.0,0.0,0.0,0.0,0.0,0.0,0.0,0.0,0.0,-4.3099,-4.2519,-4.1683,-4.0522,-3.8739,-3.6805,0.0,0.0,0.0,0.0,0.0,0.0,0.0,0.0,0.0,0.0,0.0,0.0,0.0,0.0,0.0,0.0,0.0,0.0,0.0,0.0,0.0,0.0,0.0,0.0,0.0,0.0,0.0,0.0,0.0,0.0,0.0,0.0,0.0,0.0,0.0,0.0,0.0,0.0,0.0,0.0,0.0,0.0,0.0,0.0,0.0,0.0,0.0,0.0,0.0,0.0,0.0,0.0,0.0,0.0,0.0,0.0,0.0,0.0,0.0,0.0,0.0,0.0,0.0,0.0,0.0,0.0,0.0,0.0,0.0,0.0,0.0,0.0,0.0,0.0,0.0,0.0,0.0,0.0,0.0,0.0,0.0,0.0,0.0,0.0,0.0,0.0,0.0,0.0,0.0,0.0,0.0,0.0,0.0,0.0,0.0,0.0,0.0,0.0,0.0,0.0,0.0,0.0,0.0,0.0,0.0,0.0,0.0,0.0,0.0,-4.6184,-4.7483,-4.6829,-4.4242,-4.1407,-3.8595,0.0,0.0,0.0,0.0,0.0,0.0,0.0,0.0,0.0,0.0,0.0,0.0,0.0,0.0,0.0,0.0,0.0,0.0,0.0,0.0,0.0,0.0,0.0,0.0,0.0,0.0,0.0,0.0,0.0,0.0,0.0,0.0,0.0,0.0,0.0,0.0,0.0,0.0,0.0,0.0,0.0,0.0,0.0,0.0,0.0,0.0,0.0,0.0,0.0,0.0,0.0,0.0,0.0,0.0,0.0,0.0,0.0,0.0,0.0,0.0,0.0,0.0,0.0,0.0,0.0,0.0,0.0,0.0,0.0,0.0,0.0,0.0,0.0,0.0,0.0,0.0,0.0,0.0,0.0,0.0,0.0,0.0,0.0,0.0,0.0,0.0,0.0,0.0,0.0,0.0,0.0,0.0,0.0,0.0,0.0,0.0,0.0,0.0,0.0,0.0,0.0,0.0,0.0,0.0,0.0,0.0,0.0,0.0,-4.3607,-4.854,-5.0539,-5.0662,-4.8907,-4.4292,-4.0353,0.0,0.0,0.0,0.0,0.0,0.0,0.0,0.0,0.0,0.0,0.0,0.0,0.0,0.0,0.0,0.0,0.0,0.0,0.0,0.0,0.0,0.0,0.0,0.0,0.0,0.0,0.0,0.0,0.0,0.0,0.0,0.0,0.0,0.0,0.0,0.0,0.0,0.0,0.0,0.0,0.0,0.0,0.0,0.0,0.0,0.0,0.0,0.0,0.0,0.0,0.0,0.0,0.0,0.0,0.0,0.0,0.0,0.0,0.0,0.0,0.0,0.0,0.0,0.0,0.0,0.0,0.0,0.0,0.0,0.0,0.0,0.0,0.0,0.0,0.0,0.0,0.0,0.0,0.0,0.0,0.0,0.0,0.0,0.0,0.0,0.0,0.0,0.0,0.0,0.0,0.0,0.0,0.0,0.0,0.0,0.0,0.0,0.0,0.0,0.0,0.0,0.0,0.0,0.0,0.0,0.0,0.0,0.0,-4.4836,-4.9968,-5.2138,-5.3253,-5.3203,-4.7076,-4.2033,0.0,0.0,0.0,0.0,0.0,0.0,0.0,0.0,0.0,0.0,0.0,0.0,0.0,0.0,0.0,0.0,0.0,0.0,0.0,0.0,0.0,0.0,0.0,0.0,0.0,0.0,0.0,0.0,0.0,0.0,0.0,0.0,0.0,0.0,0.0,0.0,0.0,0.0,0.0,0.0,0.0,0.0,0.0,0.0,0.0,0.0,0.0,0.0,0.0,0.0,0.0,0.0,0.0,0.0,0.0,0.0,0.0,0.0,0.0,0.0,0.0,0.0,0.0,0.0,0.0,0.0,0.0,0.0,0.0,0.0,0.0,0.0,0.0,0.0,0.0,0.0,0.0,0.0,0.0,0.0,0.0,0.0,0.0,0.0,0.0,0.0,0.0,0.0,0.0,0.0,0.0,0.0,0.0,0.0,0.0,0.0,0.0,0.0,0.0,0.0,0.0,0.0,0.0,0.0,0.0,0.0,0.0,0.0,-4.5845,-5.0079,-5.2138,-5.3253,-5.3376,-4.8636,-4.3817,0.0,0.0,0.0,0.0,0.0,0.0,0.0,0.0,0.0,0.0,0.0,0.0,0.0,0.0,0.0,0.0,0.0,0.0,0.0,0.0,0.0,0.0,0.0,0.0,0.0,0.0,0.0,0.0,0.0,0.0,0.0,0.0,0.0,0.0,0.0,0.0,0.0,0.0,0.0,0.0,0.0,0.0,0.0,0.0,0.0,0.0,0.0,0.0,-2.6965,0.0,0.0,0.0,0.0,0.0,0.0,0.0,0.0,0.0,0.0,0.0,0.0,0.0,0.0,0.0,0.0,0.0,0.0,0.0,0.0,0.0,0.0,0.0,0.0,0.0,0.0,0.0,0.0,0.0,0.0,0.0,0.0,0.0,0.0,0.0,0.0,0.0,0.0,0.0,0.0,0.0,0.0,0.0,0.0,0.0,0.0,0.0,0.0,0.0,0.0,0.0,0.0,0.0,0.0,0.0,0.0,0.0,0.0,0.0,-4.6088,-5.0664,-5.2076,-5.2816,-5.2777,-4.9267,-4.4886,0.0,0.0,0.0,0.0,0.0,0.0,0.0,0.0,0.0,0.0,0.0,0.0,0.0,0.0,0.0,0.0,0.0,0.0,0.0,0.0,0.0,0.0,0.0,0.0,0.0,0.0,0.0,0.0,0.0,0.0,0.0,0.0,0.0,0.0,0.0,0.0,0.0,0.0,0.0,0.0,0.0,0.0,0.0,0.0,0.0,0.0,0.0,0.0,0.0,0.0,0.0,0.0,0.0,0.0,0.0,0.0,0.0,0.0,0.0,0.0,0.0,0.0,0.0,0.0,0.0,0.0,0.0,0.0,0.0,0.0,0.0,0.0,0.0,0.0,0.0,0.0,0.0,0.0,0.0,0.0,0.0,0.0,0.0,0.0,0.0,0.0,0.0,0.0,0.0,0.0,0.0,0.0,0.0,0.0,0.0,0.0,0.0,0.0,0.0,0.0,0.0,0.0,0.0,0.0,0.0,0.0,0.0,-4.2633,-4.6239,-5.129,-5.2167,-5.2367,-5.2097,-4.939,-4.55,-4.0485,0.0,0.0,0.0,0.0,0.0,0.0,0.0,0.0,0.0,0.0,0.0,0.0,0.0,0.0,0.0,0.0,0.0,0.0,0.0,0.0,0.0,0.0,0.0,0.0,0.0,0.0,0.0,0.0,0.0,0.0,0.0,0.0,0.0,0.0,0.0,0.0,0.0,0.0,-2.6811,-2.6788,0.0,0.0,0.0,0.0,0.0,0.0,0.0,0.0,-2.8565,0.0,0.0,0.0,0.0,0.0,0.0,0.0,0.0,0.0,0.0,0.0,0.0,0.0,0.0,0.0,0.0,0.0,0.0,0.0,0.0,0.0,0.0,0.0,0.0,0.0,0.0,0.0,0.0,0.0,0.0,0.0,0.0,0.0,0.0,0.0,0.0,0.0,0.0,0.0,0.0,0.0,0.0,0.0,0.0,0.0,0.0,0.0,0.0,0.0,0.0,0.0,0.0,0.0,0.0,0.0,0.0,-4.1264,-4.3828,-4.7317,-5.1626,-5.2777,-5.2706,-5.1386,-4.9123,-4.5737,-4.1238,0.0,0.0,0.0,0.0,0.0,0.0,0.0,0.0,0.0,0.0,0.0,0.0,0.0,0.0,0.0,0.0,0.0,0.0,0.0,0.0,0.0,0.0,0.0,0.0,0.0,0.0,0.0,0.0,0.0,0.0,0.0,0.0,0.0,0.0,0.0,0.0,0.0,0.0,0.0,-2.8879,-2.8935,0.0,0.0,0.0,0.0,0.0,0.0,0.0,0.0,-2.9162,0.0,0.0,0.0,0.0,0.0,0.0,0.0,0.0,0.0,0.0,0.0,0.0,0.0,0.0,0.0,0.0,0.0,0.0,0.0,0.0,0.0,0.0,0.0,0.0,0.0,0.0,0.0,0.0,0.0,0.0,0.0,0.0,0.0,0.0,0.0,0.0,0.0,0.0,0.0,0.0,0.0,0.0,0.0,0.0,0.0,0.0,0.0,0.0,0.0,0.0,0.0,0.0,0.0,0.0,0.0,-4.1604,-4.4679,-4.807,-5.1784,-5.2582,-5.2334,-5.1217,-4.868,-4.5399,0.0,0.0,0.0,0.0,0.0,0.0,0.0,0.0,0.0,0.0,0.0,0.0,0.0,0.0,0.0,0.0,0.0,0.0,0.0,0.0,0.0,0.0,0.0,0.0,0.0,0.0,0.0,0.0,0.0,0.0,0.0,0.0,0.0,0.0,0.0,0.0,0.0,0.0,0.0,0.0,-3.0228,-3.0443,-3.0443,0.0,0.0,0.0,0.0,0.0,0.0,-3.0834,-3.0632,0.0,0.0,0.0,0.0,0.0,0.0,0.0,0.0,0.0,0.0,0.0,0.0,0.0,0.0,0.0,0.0,0.0,0.0,0.0,0.0,0.0,0.0,0.0,0.0,0.0,0.0,0.0,0.0,0.0,0.0,0.0,0.0,0.0,0.0,0.0,0.0,0.0,0.0,0.0,0.0,0.0,0.0,0.0,0.0,0.0,0.0,0.0,0.0,0.0,0.0,0.0,0.0,0.0,0.0,0.0,-4.176,-4.4928,-4.8252,-5.1675,-5.2013,-5.1725,-5.098,-4.8105,-4.4891,0.0,0.0,0.0,0.0,0.0,0.0,0.0,0.0,0.0,0.0,0.0,0.0,0.0,0.0,0.0,0.0,0.0,0.0,0.0,0.0,0.0,0.0,0.0,0.0,0.0,0.0,0.0,0.0,0.0,0.0,0.0,0.0,0.0,0.0,0.0,0.0,0.0,0.0,0.0,0.0,0.0,-3.1616,-3.1767,-3.177,0.0,0.0,0.0,0.0,-3.2241,-3.2473,0.0,0.0,0.0,0.0,0.0,0.0,0.0,0.0,0.0,0.0,0.0,0.0,0.0,0.0,0.0,0.0,0.0,0.0,0.0,0.0,0.0,0.0,0.0,0.0,0.0,0.0,0.0,0.0,0.0,0.0,0.0,0.0,0.0,0.0,0.0,0.0,0.0,0.0,0.0,0.0,0.0,0.0,0.0,0.0,0.0,0.0,0.0,0.0,0.0,0.0,0.0,0.0,0.0,0.0,0.0,0.0,-4.1703,-4.4048,-4.7161,-5.0917,-5.123,-5.098,-5.0202,-4.7361,-4.4384,0.0,0.0,0.0,0.0,0.0,0.0,0.0,0.0,0.0,0.0,0.0,0.0,0.0,0.0,0.0,0.0,0.0,0.0,0.0,0.0,0.0,0.0,0.0,0.0,0.0,0.0,0.0,0.0,0.0,0.0,0.0,0.0,0.0,0.0,0.0,0.0,0.0,0.0,0.0,0.0,0.0,-3.2311,-3.3062,-3.3071,-3.2558,0.0,0.0,-3.2747,-3.2142,-3.3454,0.0,0.0,0.0,0.0,0.0,0.0,0.0,0.0,0.0,0.0,0.0,0.0,0.0,0.0,0.0,0.0,0.0,0.0,0.0,0.0,0.0,0.0,0.0,0.0,0.0,0.0,0.0,0.0,0.0,0.0,0.0,0.0,0.0,0.0,0.0,0.0,0.0,0.0,0.0,0.0,0.0,0.0,0.0,0.0,0.0,0.0,0.0,0.0,0.0,0.0,0.0,0.0,0.0,0.0,0.0,-3.8329,-4.1185,-4.4216,-4.7295,-5.0335,-5.0563,-5.0236,-4.9492,-4.6177,-4.3172,0.0,0.0,0.0,0.0,0.0,0.0,0.0,0.0,0.0,0.0,0.0,0.0,0.0,0.0,0.0,0.0,0.0,0.0,0.0,0.0,0.0,0.0,0.0,0.0,0.0,0.0,0.0,0.0,0.0,0.0,0.0,0.0,0.0,0.0,0.0,0.0,0.0,0.0,0.0,0.0,0.0,0.0,-3.3807,-3.4363,0.0,0.0,0.0,-3.4516,-3.4273,0.0,0.0,0.0,0.0,0.0,0.0,0.0,0.0,0.0,0.0,0.0,0.0,0.0,0.0,0.0,0.0,0.0,0.0,0.0,0.0,0.0,0.0,0.0,0.0,0.0,0.0,0.0,0.0,0.0,0.0,0.0,0.0,0.0,0.0,0.0,0.0,0.0,0.0,0.0,0.0,0.0,0.0,0.0,0.0,0.0,0.0,0.0,0.0,0.0,0.0,0.0,0.0,0.0,0.0,0.0,0.0,0.0,-4.1112,-4.4078,-4.6988,-4.9692,-4.983,-4.9458,-4.868,-4.5297,0.0,0.0,0.0,0.0,0.0,0.0,0.0,0.0,0.0,0.0,0.0,0.0,0.0,0.0,0.0,0.0,0.0,0.0,0.0,0.0,0.0,0.0,0.0,0.0,0.0,0.0,0.0,-2.4297,0.0,0.0,0.0,0.0,0.0,0.0,0.0,0.0,0.0,0.0,0.0,0.0,0.0,0.0,-3.4212,-3.4577,-3.5457,-3.6031,0.0,0.0,-3.5989,-3.6023,-3.6012,-3.5462,0.0,0.0,0.0,0.0,0.0,0.0,0.0,0.0,0.0,0.0,0.0,0.0,0.0,0.0,0.0,0.0,0.0,0.0,0.0,0.0,0.0,0.0,0.0,0.0,0.0,0.0,0.0,0.0,0.0,0.0,0.0,0.0,0.0,0.0,0.0,0.0,0.0,0.0,0.0,0.0,0.0,0.0,0.0,0.0,0.0,0.0,0.0,0.0,0.0,0.0,0.0,0.0,0.0,0.0,0.0,-4.1767,-4.3019,-4.5393,-4.8917,-4.9086,-4.8714,-4.7939,-4.4998,-4.2354,0.0,0.0,0.0,0.0,0.0,0.0,0.0,0.0,0.0,0.0,0.0,0.0,0.0,0.0,0.0,0.0,0.0,0.0,0.0,0.0,0.0,0.0,0.0,0.0,0.0,0.0,0.0,0.0,0.0,0.0,0.0,0.0,0.0,0.0,0.0,0.0,0.0,0.0,0.0,0.0,0.0,-3.4241,-3.5607,-3.6297,-3.6863,0.0,0.0,-3.6586,-3.6484,-3.6896,-3.6417,-3.3934,0.0,0.0,0.0,0.0,0.0,0.0,0.0,0.0,0.0,0.0,0.0,0.0,0.0,0.0,0.0,0.0,0.0,0.0,0.0,0.0,0.0,0.0,0.0,0.0,0.0,0.0,0.0,0.0,0.0,0.0,0.0,0.0,0.0,0.0,0.0,0.0,0.0,0.0,0.0,0.0,0.0,0.0,0.0,0.0,0.0,0.0,0.0,0.0,0.0,0.0,0.0,0.0,0.0,-3.7909,-4.1154,-4.2184,-4.4316,-4.7462,-4.7631,-4.7293,-4.6583,-4.3612,-4.1238,0.0,0.0,0.0,0.0,0.0,0.0,0.0,0.0,0.0,0.0,0.0,0.0,0.0,0.0,0.0,0.0,0.0,0.0,0.0,0.0,0.0,0.0,0.0,0.0,0.0,0.0,0.0,0.0,-2.4933,-2.485,-2.4718,0.0,0.0,0.0,0.0,0.0,0.0,0.0,0.0,0.0,0.0,-3.4844,-3.6205,-3.7158,0.0,0.0,-3.8357,-3.8072,-3.7165,-3.6824,-3.6041,-3.4224,-3.199,0.0,0.0,0.0,0.0,0.0,0.0,0.0,0.0,0.0,0.0,0.0,0.0,0.0,0.0,0.0,0.0,0.0,0.0,0.0,0.0,0.0,0.0,0.0,0.0,0.0,0.0,0.0,0.0,0.0,0.0,0.0,0.0,0.0,0.0,0.0,0.0,0.0,0.0,0.0,0.0,0.0,0.0,0.0,0.0,0.0,0.0,0.0,0.0,0.0,0.0,0.0,0.0,-3.7935,-4.1027,-4.1673,-4.3538,-4.6718,-4.6786,-4.6346,-4.5331,-4.2658,-4.0426,0.0,0.0,0.0,0.0,0.0,0.0,0.0,0.0,0.0,0.0,0.0,0.0,0.0,0.0,0.0,0.0,0.0,0.0,0.0,0.0,0.0,0.0,0.0,0.0,0.0,0.0,0.0,0.0,-2.5826,-2.565,-2.4952,0.0,0.0,0.0,0.0,0.0,0.0,0.0,0.0,0.0,0.0,-3.5078,-3.637,-3.7404,-3.8147,-3.8427,-3.834,-3.7937,-3.7015,-3.6048,-3.4909,-3.3485,0.0,0.0,0.0,0.0,0.0,0.0,0.0,0.0,0.0,0.0,0.0,0.0,0.0,0.0,0.0,0.0,0.0,0.0,0.0,0.0,0.0,0.0,0.0,0.0,0.0,0.0,0.0,0.0,0.0,0.0,0.0,0.0,0.0,0.0,0.0,0.0,0.0,0.0,0.0,0.0,0.0,0.0,0.0,0.0,0.0,0.0,0.0,0.0,0.0,0.0,0.0,0.0,0.0,-3.77,-4.1773,-4.1401,-4.2997,-4.6583,-4.6752,-4.6007,-4.4615,-4.2388,-4.0155,-3.7956,0.0,0.0,0.0,0.0,0.0,0.0,0.0,0.0,0.0,0.0,0.0,0.0,0.0,0.0,0.0,0.0,0.0,0.0,0.0,0.0,0.0,0.0,0.0,0.0,0.0,0.0,-2.6226,-2.6965,-2.7011,0.0,0.0,0.0,0.0,0.0,0.0,0.0,0.0,0.0,0.0,-3.3154,-3.4919,-3.6004,-3.6777,-3.7332,-3.7807,-3.6658,-3.5697,-3.5737,-3.4514,-3.297,0.0,0.0,0.0,0.0,0.0,0.0,0.0,0.0,0.0,0.0,0.0,0.0,0.0,0.0,0.0,0.0,0.0,0.0,0.0,0.0,0.0,0.0,0.0,0.0,0.0,0.0,0.0,0.0,0.0,0.0,0.0,0.0,0.0,0.0,0.0,0.0,0.0,0.0,0.0,0.0,-3.9108,-3.9108,0.0,0.0,0.0,0.0,0.0,0.0,0.0,0.0,0.0,0.0,0.0,0.0,-3.7658,-4.0249,-3.9963,-4.1035,-4.3707,-4.3809,-4.3572,-4.3031,-4.0899,-3.843,-3.5723,0.0,0.0,0.0,0.0,0.0,0.0,0.0,0.0,0.0,0.0,0.0,0.0,0.0,0.0,0.0,0.0,0.0,0.0,0.0,0.0,0.0,0.0,0.0,0.0,0.0,-2.6565,0.0,0.0,0.0,0.0,0.0,0.0,0.0,0.0,0.0,0.0,0.0,-2.9463,-3.0925,-3.231,-3.3448,-3.4296,-3.4974,-3.5517,0.0,0.0,0.0,0.0,0.0,0.0,0.0,0.0,0.0,0.0,0.0,0.0,0.0,0.0,-2.8063,-2.6906,-2.6714,-2.6656,-2.6598,0.0,0.0,0.0,0.0,0.0,0.0,0.0,0.0,0.0,0.0,0.0,0.0,0.0,0.0,0.0,0.0,-3.9899,0.0,0.0,0.0,0.0,0.0,0.0,0.0,0.0,-3.9863,-4.0781,-4.1552,-4.1552,-4.1295,0.0,-3.9974,-3.915,0.0,0.0,0.0,0.0,0.0,0.0,0.0,0.0,-3.8454,-4.0688,-4.0278,-4.1,-4.2849,-4.2765,-4.2422,-4.188,-3.9512,-3.7043,-3.4573,-3.4472,-3.4032,0.0,0.0,0.0,0.0,0.0,0.0,0.0,0.0,0.0,0.0,0.0,0.0,0.0,0.0,0.0,0.0,0.0,0.0,0.0,0.0,0.0,0.0,0.0,-2.7673,0.0,0.0,0.0,0.0,0.0,0.0,0.0,0.0,0.0,-2.8341,-2.8913,-2.9634,-3.0651,-3.163,-3.2436,-3.284,0.0,0.0,0.0,0.0,0.0,0.0,0.0,-3.1909,-3.1579,-3.0945,-3.0487,-3.0635,-3.0713,-3.0465,-2.9548,0.0,0.0,-2.7575,-2.7286,-2.7255,-2.7251,-2.7224,-2.7189,-2.7001,-2.6938,-2.6844,0.0,0.0,0.0,0.0,0.0,0.0,0.0,0.0,-4.3667,-4.3251,0.0,0.0,0.0,0.0,0.0,0.0,0.0,0.0,0.0,0.0,-4.28,-4.3975,-4.4691,-4.4728,-4.4745,-4.4691,-4.3828,-4.302,-4.2139,-3.9072,0.0,0.0,0.0,0.0,0.0,0.0,-4.005,-4.2674,-4.2078,-4.2561,-4.3984,-4.3503,-4.253,-4.1068,-3.8328,-3.6152,-3.4573,-3.4539,-3.3884,-3.2462,-3.3051,0.0,0.0,0.0,0.0,0.0,0.0,0.0,0.0,0.0,0.0,0.0,0.0,0.0,0.0,0.0,0.0,0.0,0.0,0.0,0.0,-2.8011,0.0,0.0,0.0,0.0,0.0,0.0,0.0,0.0,0.0,0.0,-2.8081,-2.8943,-2.9776,-3.0295,0.0,0.0,0.0,0.0,-3.2382,-3.237,-3.2034,-3.1785,-3.1868,-3.199,-3.1793,-3.0886,0.0,0.0,-3.0586,-3.1266,-3.1402,-2.9874,-3.0075,-3.0033,-2.8765,-2.8454,-2.8373,-2.8243,-2.821,-2.8112,-2.7901,-2.7861,-2.7768,-5.1625,0.0,0.0,0.0,0.0,-4.5778,-4.674,-4.8865,-4.8615,-4.7761,-4.6464,-4.5441,0.0,0.0,0.0,0.0,0.0,0.0,-4.2139,-4.37,-4.4745,-4.5626,-4.6415,-4.6415,-4.614,-4.5553,-4.4745,-4.3938,-4.313,-4.2196,-4.1212,-4.0255,0.0,0.0,0.0,0.0,-4.0339,-4.1994,-4.0965,-4.1101,-4.261,-4.158,-4.0358,-3.8903,-3.8058,-3.6603,-3.4573,-3.5013,-3.4878,-3.3897,-3.3558,0.0,0.0,0.0,0.0,0.0,0.0,0.0,0.0,0.0,0.0,0.0,0.0,0.0,0.0,0.0,0.0,0.0,0.0,0.0,-2.8104,-2.7857,-2.8011,0.0,0.0,0.0,0.0,0.0,0.0,0.0,0.0,0.0,-2.9062,-2.9233,-2.9412,0.0,0.0,-2.9948,-2.9568,-2.9943,-3.0494,-3.1053,0.0,0.0,0.0,-3.2025,-3.1934,-3.2064,-3.2718,-3.2961,-3.2161,-3.262,-3.2659,-3.1363,-3.1273,-3.1269,-3.0908,-2.9812,-2.9108,-2.8986,-2.8986,-2.8986,-2.8882,-2.8769,-2.8638,-5.7588,-5.2433,-5.0317,-5.0048,-5.101,-5.024,-5.0779,-5.2164,-5.1818,-5.0883,-4.9426,-4.7934,-4.5785,-4.315,-4.1684,0.0,0.0,0.0,-4.3828,-4.5645,-4.581,-4.6507,-4.7516,-4.759,-4.7315,-4.6838,-4.6397,-4.57,-4.4929,-4.4929,-4.4251,-4.2951,0.0,0.0,-4.0981,-4.1104,-4.1887,-4.3197,-4.2383,-4.2265,-4.2847,-4.116,-3.9525,-3.8004,-3.8007,-3.7091,-3.5113,-3.5452,-3.5328,-3.4539,-3.3795,-3.3288,0.0,0.0,0.0,0.0,0.0,0.0,0.0,0.0,0.0,0.0,0.0,-2.8194,-2.8004,0.0,0.0,0.0,-2.8258,-2.8411,-2.8411,-2.8288,0.0,0.0,0.0,0.0,0.0,0.0,0.0,-2.966,-2.9377,-2.9389,-2.9904,-2.9868,-2.9766,-2.9726,-2.9545,-2.9349,-2.91,0.0,-3.0084,-3.0831,-3.1286,-3.1803,-3.2508,-3.2349,-3.2281,-3.2626,-3.3106,-3.3146,-3.2529,-3.2829,-3.2803,-3.1836,-3.1641,-3.1719,-3.151,-3.0634,-3.0032,-3.0241,-3.0294,-3.0215,-3.0006,-2.9845,-2.9798,-6.2897,-5.955,-5.5588,-5.4664,-5.5818,-5.5049,-5.4741,-5.4703,-5.3895,-5.2958,-5.1842,-4.967,-4.8112,-4.7052,-4.4983,0.0,0.0,-4.4378,-4.5333,-4.7333,-4.6617,-4.7058,-4.847,-4.8453,-4.8416,-4.8379,-4.8343,-4.792,-4.7186,-4.7186,-4.6782,-4.5957,-4.3721,-4.2446,-4.2232,-4.2996,-4.4144,-4.5559,-4.5329,-4.4832,-4.4067,-4.1693,-3.9651,-3.8054,-3.8069,-3.7376,-3.5902,-3.5744,-3.5326,-3.4527,-3.3761,-3.3017,-3.2327,0.0,0.0,0.0,0.0,0.0,0.0,0.0,0.0,0.0,0.0,0.0,0.0,0.0,0.0,0.0,-2.8042,0.0,-2.8411,-2.8965,0.0,0.0,0.0,-2.9469,-2.9434,-2.922,-2.9522,-3.0661,0.0,0.0,0.0,0.0,-3.0609,-3.0481,-2.9908,-2.961,-2.9767,-3.0077,-3.0649,-3.1288,-3.1823,-3.2289,-3.279,-3.2752,-3.2633,-3.266,-3.2672,-3.2515,-3.2006,-3.2254,-3.215,-3.1209,-3.1418,-3.1653,-3.113,-3.1052,-3.1209,-3.1641,-3.1667,-3.151,-3.1026,-3.0895,-3.0831,-6.5282,-6.3205,-6.0935,-5.9088,-5.7627,-5.6791,-5.678,-5.7319,-5.6472,-5.5269,-5.3776,-5.2521,-5.0799,-4.8792,-4.8324,-4.8215,-4.8416,-4.8857,-4.937,-4.9921,-4.9738,-4.9848,-5.0178,-4.9591,-4.9297,-4.9243,-4.86,-4.8196,-4.8012,-4.8012,-4.759,-4.6819,-4.6214,-4.5572,-4.4912,-4.4966,-4.5512,-4.6494,-4.5144,-4.3734,-4.2289,-4.0552,-3.9187,-3.8161,-3.7661,-3.691,-3.5988,-3.5321,-3.4882,-3.4623,-3.3317,-3.2462,-3.2293,-3.1596,0.0,0.0,0.0,0.0,0.0,0.0,0.0,0.0,0.0,-2.8039,-2.8158,0.0,-2.7796,0.0,-2.8319,-2.8411,-2.8411,-2.8565,0.0,0.0,-3.0079,-3.0571,-3.1524,-3.0646,-3.0386,-3.1363,-3.0123,-2.9596,-3.0686,-3.061,-3.0586,-3.0797,-3.033,-2.9807,-2.9521,-2.9843,-3.0393,-3.1033,-3.1546,-3.2084,-3.2594,-3.2738,-3.2672,-3.2672,-3.2672,-3.2489,-3.1902,-3.1902,-3.181,-3.1156,-3.1078,-3.1287,-3.151,-3.1615,-3.1615,-3.1745,-3.1496,-3.1156,-3.0999,-3.0887,-3.071,-6.5897,-6.3935,-6.3012,-6.1396,-5.9358,-5.8896,-5.8742,-5.8781,-5.8319,-5.7385,-5.6071,-5.4582,-5.2892,-5.108,-5.0543,-5.0563,-5.0895,-5.0829,-5.0802,-5.0802,-5.0802,-5.0802,-5.0765,-4.9978,-4.961,-4.9574,-4.871,-4.8306,-4.8306,-4.8306,-4.8086,-4.7663,-4.7626,-4.7387,-4.6946,-4.6468,-4.6485,-4.6905,-4.5264,-4.3767,-4.2545,-4.0569,-3.9123,-3.83,-3.7648,-3.6722,-3.5583,-3.5074,-3.4635,-3.4223,-3.3039,-3.2334,-3.2293,-3.1616,-3.119,0.0,0.0,0.0,0.0,0.0,0.0,0.0,0.0,0.0,0.0,0.0,-2.8134,0.0,0.0,0.0,-2.9273,-2.9304,-2.9612,-3.0325,-3.0386,-3.0843,-3.1855,-3.1533,-3.1421,-3.1884,-3.1311,-3.0976,-3.1298,-3.1198,-3.105,-3.1134,-3.0861,-3.0509,-3.02,-3.0492,-3.0962,-3.1339,-3.1588,-3.1797,-3.194,-3.215,-3.2228,-3.1993,-3.1979,-3.181,-3.1522,-3.1432,-3.1339,-3.1052,-3.1011,-3.1078,-3.1392,-3.147,-3.147,-3.1354,-3.0999,-3.0738,-3.0921,-3.0924,-3.0811,-6.5513,-6.3308,-6.3205,-6.2243,-6.0781,-6.0781,-6.0358,-5.9665,-5.955,-5.9015,-5.8088,-5.615,-5.4684,-5.3509,-5.237,-5.2177,-5.2661,-5.1632,-5.1136,-5.1132,-5.1132,-5.1096,-5.1096,-5.0198,-4.9757,-4.9721,-4.8746,-4.8306,-4.8306,-4.8306,-4.8306,-4.8306,-4.8306,-4.8306,-4.8269,-4.759,-4.7241,-4.7147,-4.5508,-4.4361,-4.3722,-4.1129,-3.9353,-3.8494,-3.7826,-3.6724,-3.5105,-3.4933,-3.4453,-3.355,-3.276,-3.2292,-3.2178,-3.1549,-3.119,0.0,-3.1012,0.0,0.0,0.0,0.0,0.0,0.0,0.0,0.0,-2.8134,-2.8812,-2.9464,-2.955,-2.9797,-3.0356,-3.0386,-3.0448,-3.0509,-3.0509,-3.0812,-3.1428,-3.1989,-3.2248,-3.2196,-3.267,-3.267,-3.1839,-3.1746,-3.1609,-3.1225,-3.1056,-3.084,-3.0839,-3.1209,-3.1536,-3.1615,-3.1667,-3.1522,-3.1235,-3.1444,-3.1536,-3.113,-3.0973,-3.0921,-3.1026,-3.0869,-3.079,-3.0921,-3.0854,-3.0764,-3.0843,-3.0869,-3.0843,-3.0738,-3.0477,-3.044,-3.0843,-3.0895,-3.0895,-6.5013,-6.3281,-6.2589,-6.1743,-6.0781,-6.0781,-6.0704,-6.0512,-5.9781,-5.9015,-5.8165,-5.7374,-5.6501,-5.5595,-5.4995,-5.4276,-5.3497,-5.3272,-5.3001,-5.2726,-5.2726,-5.2747,-5.2674,-5.1242,-5.0582,-5.0472,-4.904,-4.8306,-4.8306,-4.8306,-4.8306,-4.8306,-4.8306,-4.8306,0.0,0.0,0.0,0.0,-4.5797,-4.4636,-4.3966,-4.1403,-3.9601,-3.874,-3.7914,0.0,-3.5228,-3.4493,-3.3759,-3.2965,-3.2056,0.0,0.0,0.0,0.0,0.0,0.0,0.0,0.0,0.0,0.0,0.0,-2.9375,-2.9106,-2.8288,-2.8842,-2.952,-3.014,-3.0202,-3.0263,-3.0386,-3.0386,-3.0602,-3.112,-3.1213,-3.1459,-3.2105,-3.1903,-3.1633,-3.1586,-3.1521,-3.1403,-3.127,-3.1021,-3.0886,-3.085,-3.0414,-3.0042,-2.9829,-3.0551,-3.0947,-3.0544,-3.0817,-3.1104,-3.0999,-3.1026,-3.1052,-3.0947,-3.0544,-3.0477,-3.0764,-3.0163,-3.0032,-3.0712,-3.0278,-2.9797,-3.0189,-3.0257,-3.0127,-2.9719,-3.0241,-3.0869,-3.0947,-3.0607,-3.0314,-6.3858,0.0,-6.2243,-6.1601,0.0,0.0,-6.055,-6.0127,-5.9704,-5.8796,-5.7609,-5.7353,-5.6932,-5.6484,-5.5632,-5.5011,-5.4611,-5.3982,-5.3524,-5.3225,-5.3203,-5.3203,-5.313,-5.1573,-5.0802,-5.0729,-4.9114,-4.8306,-4.8306,-4.8306,-4.8306,-4.8306,-4.8306,-4.8306,-4.8306,-4.792,-4.7604,-4.7372,-4.5292,-4.4049,-4.3655,-4.1238,-3.9512,-3.8718,0.0,0.0,0.0,0.0,0.0,0.0,0.0,0.0,0.0,0.0,0.0,-3.1235,-3.1112,-3.0898,-3.0695,-3.0075,-2.9733,-2.9766,-2.9911,-2.9816,-2.9427,-2.971,-3.0197,-3.0843,-3.0905,-3.1028,-3.1366,-3.1089,-3.1151,-3.1767,-3.1609,-3.1643,-3.2262,-3.2438,-3.2283,-3.1958,-3.2082,-3.196,-3.1254,-3.1075,-3.0833,-3.0449,-3.0164,-2.9739,-2.9345,-2.9802,-3.0036,-2.9405,-3.0032,-3.0346,-2.9849,-2.998,-3.0163,-3.0085,-2.9902,-2.9849,-3.0085,-2.9666,-2.9519,-3.0006,-2.9676,-2.9405,-2.9614,-2.9719,-2.9614,-2.9379,-2.951,-2.9823,-3.0059,-3.0137,-3.0142,-6.282,-6.2101,-6.1908,-6.1435,-6.0781,-6.0781,-6.0204,-5.9319,0.0,0.0,0.0,-5.7147,-5.7036,-5.6798,-5.5706,-5.5299,-5.5296,-5.4278,-5.3583,-5.3225,-5.3203,-5.313,-5.2931,-5.1499,-5.0729,-5.0508,-4.904,-4.8306,-4.8306,-4.8306,-4.8306,-4.8306,-4.8306,-4.8306,-4.8233,-4.7369,-4.6892,-4.68,-4.4646,-4.3441,-4.3364,-4.1156,-3.9606,-3.8846,-3.8237,-3.7098,-3.5456,-3.48,-3.4037,-3.3098,-3.2372,-3.1972,-3.1929,-3.1662,-3.1536,-3.1516,-3.1205,-3.0898,-3.0518,-2.9968,-2.9799,-3.0123,-3.0303,-3.0448,-3.054,-3.0571,-3.0874,-3.1516,-3.1551,-3.1797,-3.2351,-3.1921,-3.1797,-3.2351,-3.189,-3.1824,-3.2351,-3.2875,-3.2867,-3.2465,-3.2736,-3.2753,-3.1513,-3.1152,-3.0915,-3.031,-2.9902,-2.9631,-2.9019,-2.9159,-2.9241,-2.8891,-2.9483,-2.964,-2.8935,-2.9048,-2.9284,-2.9415,-2.9258,-2.9179,-2.9258,-2.9153,-2.91,-2.9388,-2.917,-2.9013,-2.9127,-2.9153,-2.9065,-2.9022,-2.8813,-2.8647,-2.9039,-2.9483,-2.9787,-6.282,-6.2024,-6.1293,-6.0896,-6.0781,-6.0781,-5.9896,-5.8511,-5.8473,-5.8285,-5.8047,-5.7997,-5.7577,-5.6789,-5.6575,-5.5784,-5.4581,-5.4317,-5.387,0.0,-5.3203,-5.2821,-5.2123,-5.1242,-5.0435,-4.9721,-4.8783,-4.8306,-4.8306,-4.8306,-4.8306,-4.8306,-4.8306,-4.8306,-4.8196,-4.6838,-4.6067,-4.6012,-4.4548,-4.3699,-4.356,-4.1894,-4.0596,-3.9754,-3.9502,-3.8353,-3.6249,-3.6042,-3.5352,-3.3987,-3.3702,-3.3573,-3.3554,-3.2784,-3.2397,-3.2304,-3.1667,-3.1058,-3.0539,-3.0054,-2.9945,-3.0309,-3.0407,-3.0658,-3.1182,-3.1301,-3.152,-3.2194,-3.2228,-3.229,-3.2382,-3.229,-3.2259,-3.2382,-3.2321,-3.229,-3.2382,-3.2475,-3.2372,-3.1834,-3.2168,-3.2317,-3.1521,-3.0952,-3.0568,-3.0253,-2.958,-2.8779,-2.8643,-2.8625,-2.8907,-2.9109,-2.9274,-2.9327,-2.9048,-2.9205,-2.917,-2.931,-2.8839,-2.8647,-2.9065,-2.8464,-2.8255,-2.9065,-2.849,-2.8098,-2.842,-2.8525,-2.8333,-2.8072,-2.8412,-2.8917,-2.8595,-2.8621,-2.8769,-6.1704,-6.1358,-6.0973,-6.0781,-6.0742,-6.0281,-5.9435,-5.828,-5.778,-5.7308,-5.6851,-5.6813,-5.6609,-5.623,-5.6134,-5.5606,-5.4686,-5.4021,-5.3641,-5.3427,-5.2815,-5.2344,-5.194,-5.1169,-5.0362,-4.9574,-4.871,-4.8306,-4.8306,-4.8306,-4.8306,-4.8306,-4.8306,-4.8086,-4.759,-4.6507,-4.57,-4.5241,-4.3727,-4.2895,-4.2813,-4.1678,-4.0655,-3.9801,-3.9721,-3.8836,-3.7008,-3.6525,-3.5801,-3.4752,-3.4243,-3.3825,-3.3377,-3.2936,-3.2515,-3.2032,-3.1632,-3.1293,-3.1058,-3.1013,-3.0799,-3.0459,-3.0725,-3.1213,-3.189,-3.1921,-3.2074,-3.2351,-3.2413,-3.2413,-3.2413,-3.2413,-3.2413,-3.2413,-3.2413,-3.2413,-3.2413,-3.2413,-3.2299,-3.2079,-3.2237,-3.2161,-3.1516,-3.1187,-3.0639,-3.0051,-2.9358,-2.9026,-2.8867,-2.8828,-2.8765,-2.8554,-2.8638,-2.8621,-2.8412,-2.8333,-2.8333,-2.8333,-2.8098,-2.8046,-2.8281,-2.7751,-2.7803,-2.8177,-2.7803,-2.768,-2.7915,-2.7915,-2.7785,-2.7673,-2.7863,-2.815,-2.7968,-2.7915,-2.7952,-6.0973,-6.0781,-6.0781,-6.0781,-6.0704,-5.9858,-5.905,-5.8242,-5.7396,-5.6511,-5.5742,-5.5703,-5.5703,-5.5703,-5.5649,-5.5375,-5.4922,-5.3936,-5.3461,-5.3367,-5.2458,-5.1814,-5.1446,-5.0802,-5.0105,-4.9317,-4.86,-4.8306,-4.8306,-4.8306,-4.8306,-4.8306,-4.8306,-4.7902,-4.7113,-4.6324,-4.5516,-4.4655,-4.3051,-4.2216,-4.2195,-4.1346,-4.056,-4.0043,-3.9974,-3.9353,-3.8043,-3.7215,-3.6456,-3.5732,-3.5007,-3.4268,-3.349,-3.3205,-3.2735,-3.1975,-3.1679,-3.1404,-3.1205,-3.1287,-3.1039,-3.0325,-3.0658,-3.1243,-3.1859,-3.2074,-3.2228,-3.2382,-3.2413,-3.2413,-3.2413,-3.2413,-3.2413,-3.2413,-3.2413,-3.2413,-3.2413,-3.2413,-3.2413,-3.2413,-3.2413,-3.2219,-3.1823,-3.1566,-3.1014,-3.0054,-2.9721,-2.9656,-2.9407,-2.9188,-2.8744,-2.8198,-2.8084,-2.802,-2.7568,-2.7542,-2.7568,-2.749,-2.7516,-2.7568,-2.7568,-2.7542,-2.7516,-2.7568,-2.7542,-2.7516,-2.7516,-2.7516,-2.7516,-2.7516,-2.7594,-2.7568,-2.7568,-2.7542,-2.7561,-6.1512,-6.0819,-6.0781,-6.0781,-6.0666,-5.9858,-5.905,-5.8204,-5.7385,-5.6511,-5.5742,-5.5703,-5.5665,-5.5703,-5.5638,-5.5399,-5.5004,-5.4518,-5.3699,-5.2734,-5.2203,-5.1226,-4.9978,-4.9757,-4.926,-4.8526,-4.8343,-4.8306,-4.8306,-4.8306,-4.8306,-4.8306,-4.8306,-4.7883,-4.7113,-4.6324,-4.5516,-4.4691,-4.3051,-4.2216,-4.2154,-4.1346,-4.086,-4.0791,-4.0791,-4.0411,-3.9422,-3.8767,-3.8043,-3.734,-3.649,-3.5766,-3.5007,-3.4352,-3.3569,-3.2715,-3.201,-3.1201,-3.033,-2.9758,-2.9666,-2.9645,-2.9687,-3.0012,-3.0658,-3.1182,-3.1736,-3.2228,-3.2413,-3.2413,-3.2413,-3.2413,-3.2382,-3.229,-3.2382,-3.2413,-3.2351,-3.2413,-3.2413,-3.2413,-3.2413,-3.2355,-3.2216,-3.1823,-3.1248,-3.0629,-3.045,-3.0179,-2.9659,-2.9439,-2.8998,-2.8249,-2.7861,-2.7628,-2.749,-2.749,-2.749,-2.749,-2.749,-2.749,-2.749,-2.749,-2.749,-2.749,-2.749,-2.749,-2.749,-2.749,-2.749,-2.749,-2.749,-2.749,-2.749,-2.749,-2.7646,-6.1127,-6.0781,-6.0781,-6.0512,-6.0012,-5.9627,-5.8742,-5.7511,-5.7165,-5.6511,-5.5665,-5.5203,-5.4972,-5.5011,-5.5451,-5.5017,-5.3896,-5.3514,-5.2915,-5.2148,-5.1304,-5.0396,-4.9667,-4.961,-4.9114,-4.8379,-4.8306,-4.8306,-4.8306,-4.8306,-4.8306,-4.8306,-4.8306,-4.7902,-4.7113,-4.6324,-4.5516,-4.4691,-4.3338,-4.2478,-4.2118,-4.1346,-4.0894,-4.0894,-4.0894,-4.0515,-3.9767,-3.9388,-3.8698,-3.7616,-3.7202,-3.6456,-3.5249,-3.4904,-3.418,-3.2984,-3.2157,-3.1374,-3.0629,-3.086,-3.0698,-3.0021,-3.0061,-3.0366,-3.0905,-3.0905,-3.1243,-3.2198,-3.2413,-3.2413,-3.2382,-3.2413,-3.2228,-3.1979,-3.2136,-3.2259,-3.1828,-3.2136,-3.2413,-3.2413,-3.2413,-3.2413,-3.2299,-3.1879,-3.1595,-3.1508,-3.1364,-3.0837,-3.0238,-2.9936,-2.9348,-2.8481,-2.7987,-2.7723,-2.7556,-2.749,-2.749,-2.749,-2.749,-2.749,-2.749,-2.749,-2.749,-2.749,-2.749,-2.749,-2.749,-2.749,-2.749,-2.749,-2.749,-2.749,-2.749,-2.749,-2.7758,-6.0781,-6.0742,-6.055,-6.0089,-5.9473,-5.9011,-5.8127,-5.7022,-5.6753,-5.6175,-5.5357,-5.4741,-5.4203,-5.3933,-5.4664,-5.4297,-5.3185,-5.2765,-5.2294,-5.1662,-5.0621,-4.9895,-4.9417,-4.9321,-4.8969,-4.8379,-4.8306,-4.8306,-4.8306,-4.8306,-4.8306,-4.8306,-4.8306,-4.7792,-4.6819,-4.6177,-4.5406,-4.438,-4.3378,-4.2655,-4.2175,-4.1445,-4.1012,-4.0894,-4.0894,-4.0618,-4.0043,-3.9802,-3.9112,-3.7892,-3.7616,-3.6801,-3.5318,-3.518,-3.4525,-3.3076,-3.2421,-3.1766,-3.1044,-3.1574,-3.1362,-3.0247,-3.0186,-3.0435,-3.0758,-3.0618,-3.0962,-3.189,-3.2133,-3.2163,-3.2382,-3.2413,-3.2105,-3.1547,-3.1859,-3.189,-3.1547,-3.1859,-3.2167,-3.2351,-3.2413,-3.2413,-3.2358,-3.2048,-3.1908,-3.2188,-3.1992,-3.1508,-3.0896,-3.0451,-2.9844,-2.8744,-2.8346,-2.7987,-2.7656,-2.759,-2.7556,-2.749,-2.749,-2.749,-2.749,-2.749,-2.749,-2.749,-2.749,-2.749,-2.749,-2.749,-2.749,-2.749,-2.749,-2.749,-2.749,-2.749,-2.7646,-6.0781,-6.0666,-5.9896,-5.955,-5.9396,-5.7819,-5.7099,-5.6868,-5.6137,-5.5318,-5.4664,-5.4472,-5.3587,-5.2192,-5.2972,-5.3231,-5.3084,-5.27,-5.2082,-5.1268,-5.0613,-4.982,-4.8956,-4.8661,-4.8475,-4.8306,-4.8306,-4.8306,-4.8306,-4.8306,-4.8306,-4.8306,-4.8269,-4.7498,-4.6287,-4.592,-4.5112,-4.383,-4.3196,-4.2691,-4.2216,-4.1731,-4.1323,-4.0942,-4.0894,-4.086,-4.0756,-4.0135,-3.9353,-3.856,-3.7892,-3.6857,-3.5421,-3.5214,-3.449,-3.3145,-3.2869,-3.2318,-3.1283,-3.1187,-3.0705,-2.9847,-2.9822,-2.9626,-2.9956,-3.0432,-3.0974,-3.1455,-3.1578,-3.1763,-3.2228,-3.2259,-3.2013,-3.1455,-3.1455,-3.149,-3.1366,-3.149,-3.1763,-3.2228,-3.2413,-3.2413,-3.2413,-3.2382,-3.2299,-3.2382,-3.2355,-3.2076,-3.1451,-3.0866,-3.0208,-2.9439,-2.8771,-2.8189,-2.7888,-2.7756,-2.7656,-2.759,-2.7523,-2.749,-2.749,-2.749,-2.749,-2.749,-2.749,-2.749,-2.749,-2.749,-2.749,-2.749,-2.749,-2.749,-2.749,-2.749,-2.7594,-6.0781,-6.0704,-5.9858,-5.9204,-5.8627,-5.7473,-5.6714,-5.6137,-5.5818,-5.5241,-5.4472,-5.3933,-5.301,-5.1885,-5.1664,-5.1587,-5.1654,-5.1973,-5.1561,-5.0607,-5.025,-4.9732,-4.8932,-4.8779,-4.8605,-4.8344,-4.8306,-4.8306,-4.8306,-4.8306,-4.8306,-4.8196,-4.7773,-4.7186,-4.6562,-4.5626,-4.4819,-4.4287,-4.3614,-4.2921,-4.2277,-4.205,-4.1622,-4.0942,-4.0894,-4.0894,-4.0894,-4.0618,-3.9871,-3.8663,-3.8341,-3.7491,-3.6077,-3.5456,-3.4766,-3.3766,-3.3179,-3.2483,-3.1781,-3.2103,-3.1721,-3.0336,-3.1043,-3.1118,-3.0673,-3.1026,-3.1627,-3.1959,-3.1747,-3.1662,-3.1701,-3.1736,-3.149,-3.0997,-3.149,-3.1643,-3.1182,-3.149,-3.2136,-3.2351,-3.2413,-3.2413,-3.2413,-3.2413,-3.2413,-3.2413,-3.2413,-3.2132,-3.1652,-3.1277,-3.0866,-3.0178,-2.9532,-2.8998,-2.8803,-2.8124,-2.7756,-2.7689,-2.7623,-2.7523,-2.749,-2.749,-2.749,-2.749,-2.749,-2.749,-2.749,-2.749,-2.749,-2.749,-2.749,-2.749,-2.749,-2.749,-2.749,-6.0627,-6.0281,-5.9473,-5.8627,-5.778,-5.6945,-5.6242,-5.5703,-5.5703,-5.5088,-5.4126,-5.3433,-5.2587,-5.1548,-5.0943,-5.0702,-5.075,-5.1279,-5.1062,-5.0313,-5.0183,-4.9768,-4.9218,-4.9064,-4.8799,-4.8458,-4.84,-4.8344,-4.8306,-4.8306,-4.8306,-4.8269,-4.748,-4.7113,-4.6819,-4.5498,-4.4709,-4.4544,-4.3796,-4.2921,-4.2241,-4.205,-4.1644,-4.1035,-4.0894,-4.0894,-4.0894,-4.0894,-4.017,-3.8858,-3.8594,-3.7905,-3.6456,-3.5835,-3.5214,-3.449,-3.3938,-3.3179,-3.2436,-3.3043,-3.2731,-3.0976,-3.1873,-3.2257,-3.1338,-3.168,-3.2164,-3.2404,-3.2044,-3.1557,-3.1416,-3.1239,-3.0812,-3.0325,-3.1089,-3.137,-3.0602,-3.1397,-3.2044,-3.2321,-3.2413,-3.2413,-3.2413,-3.2413,-3.2413,-3.2413,-3.2413,-3.2188,-3.1908,-3.1595,-3.1364,-3.0837,-3.0269,-2.9872,-2.9563,-2.8967,-2.8124,-2.7894,-2.7723,-2.7623,-2.7523,-2.749,-2.749,-2.749,-2.749,-2.749,-2.749,-2.749,-2.749,-2.749,-2.749,-2.749,-2.749,-2.749,-2.749,-6.0281,-5.9511,-5.8627,-5.7819,-5.706,-5.6165,-5.5742,-5.5703,-5.5626,-5.4741,-5.3433,-5.3164,-5.2241,-5.0971,-5.075,-5.0702,-5.0712,-5.0789,-5.0769,-5.0614,-5.0358,-4.9999,-4.9523,-4.9333,-4.8949,-4.8569,-4.8532,-4.8438,-4.8325,-4.8306,-4.8306,-4.8159,-4.748,-4.7039,-4.7039,-4.5516,-4.4709,-4.4399,-4.3524,-4.2768,-4.22,-4.1825,-4.1423,-4.0977,-4.0918,-4.0894,-4.0894,-4.0894,-4.0204,-3.8801,-3.8594,-3.787,-3.6559,-3.6215,-3.5904,-3.5249,-3.5076,-3.4387,-3.3214,-3.3677,-3.3414,-3.205,-3.2288,-3.263,-3.2139,-3.2086,-3.2327,-3.2632,-3.2182,-3.1641,-3.1491,-3.0953,-3.0258,-2.9617,-3.0202,-3.054,-3.0571,-3.1028,-3.1701,-3.2256,-3.2413,-3.2413,-3.2413,-3.2413,-3.2413,-3.2413,-3.2382,-3.2382,-3.2244,-3.1908,-3.1595,-3.1393,-3.0984,-3.051,-3.0208,-2.9811,-2.8903,-2.8157,-2.7921,-2.7723,-2.759,-2.7556,-2.749,-2.749,-2.749,-2.749,-2.749,-2.749,-2.7385,-2.7385,-2.7411,-2.7411,-2.7307,-2.7281,-2.7464,-5.9742,-5.9319,-5.7973,-5.7242,-5.6907,-5.6049,-5.5703,-5.5626,-5.5126,-5.4241,-5.3241,-5.2577,-5.1702,-5.0904,-5.0702,-5.0702,-5.0702,-5.0702,-5.0702,-5.0654,-5.0594,-5.0195,-4.9687,-4.9518,-4.9139,-4.8677,-4.8587,-4.8513,-4.8457,-4.8438,-4.84,-4.8159,-4.748,-4.6819,-4.6324,-4.5259,-4.4488,-4.3884,-4.3503,-4.3105,-4.271,-4.2236,-4.1774,-4.1333,-4.1024,-4.0894,-4.0894,-4.0894,-4.0135,-3.8663,-3.8594,-3.787,-3.6628,-3.6284,-3.5939,-3.5318,-3.518,-3.48,-3.4027,-3.4352,-3.4233,-3.3262,-3.3573,-3.3552,-3.2876,-3.2768,-3.2856,-3.2917,-3.2363,-3.1904,-3.1649,-3.1021,-3.0269,-2.9489,-2.9986,-3.0448,-3.0632,-3.1397,-3.2074,-3.2321,-3.2413,-3.2413,-3.2413,-3.2413,-3.2413,-3.2413,-3.2413,-3.2413,-3.2355,-3.2216,-3.2132,-3.2076,-3.1564,-3.119,-3.0955,-3.0599,-2.9842,-2.8998,-2.8514,-2.7987,-2.7789,-2.759,-2.7556,-2.749,-2.749,-2.749,-2.749,-2.7464,-2.7385,-2.7288,-2.7314,-2.721,-2.7053,-2.7157,-2.7411,-5.9205,-5.8473,-5.7445,-5.6791,-5.6483,-5.5906,-5.5703,-5.5588,-5.4857,-5.401,-5.3126,-5.2308,-5.1471,-5.0818,-5.0702,-5.0702,-5.0702,-5.0702,-5.0702,-5.0654,-5.0573,-5.0195,-4.9659,-4.9401,-4.9129,-4.8785,-4.8678,-4.8624,-4.855,-4.855,-4.8494,-4.8235,-4.7279,-4.6636,-4.6177,-4.4966,-4.4048,-4.3901,-4.3504,-4.3142,-4.2863,-4.2438,-4.1952,-4.1556,-4.1243,-4.1047,-4.0918,-4.0894,-4.0204,-3.8801,-3.8112,-3.7249,-3.6387,-3.6284,-3.6077,-3.5732,-3.5525,-3.518,-3.4372,-3.4752,-3.4514,-3.3486,-3.3762,-3.372,-3.286,-3.2727,-3.2692,-3.2378,-3.218,-3.1909,-3.1524,-3.1301,-3.0706,-3.001,-3.0464,-3.0874,-3.1182,-3.1859,-3.2321,-3.2413,-3.2413,-3.2413,-3.2413,-3.2413,-3.2413,-3.2413,-3.2413,-3.2413,-3.2413,-3.2413,-3.2382,-3.2355,-3.2076,-3.1851,-3.1794,-3.1335,-3.0718,-2.9995,-2.9251,-2.8546,-2.8052,-2.7789,-2.7656,-2.7523,-2.749,-2.749,-2.749,-2.749,-2.7438,-2.734,-2.721,-2.7262,-2.7262,-2.734,-2.749,-5.8684,-5.7148,-5.6983,-5.6445,-5.5818,-5.5703,-5.5626,-5.5472,-5.4741,-5.3857,-5.301,-5.2077,-5.1395,-5.0818,-5.0702,-5.0702,-5.0702,-5.0702,-5.0702,-5.0614,-5.0391,-5.0037,-4.9738,-4.923,-4.8925,-4.8822,-4.8804,-4.8714,-4.8624,-4.8624,-4.8569,-4.8366,-4.7242,-4.6544,-4.6599,-4.4818,-4.4193,-4.4434,-4.3561,-4.2995,-4.2882,-4.2438,-4.1952,-4.1534,-4.1401,-4.1232,-4.0965,-4.0653,-3.9997,-3.8617,-3.7353,-3.6628,-3.6318,-3.6284,-3.6249,-3.6215,-3.6284,-3.5594,-3.4752,-3.4855,-3.4521,-3.3128,-3.3178,-3.2959,-3.2387,-3.2219,-3.2031,-3.1625,-3.1823,-3.1754,-3.1332,-3.143,-3.1415,-3.1109,-3.1181,-3.1574,-3.2194,-3.2317,-3.2382,-3.2413,-3.2413,-3.2413,-3.2413,-3.2413,-3.2413,-3.2413,-3.2413,-3.2413,-3.2413,-3.2413,-3.2413,-3.2327,-3.2272,-3.2216,-3.2076,-3.1936,-3.1334,-3.0778,-3.0086,-2.9376,-2.8476,-2.8052,-2.7723,-2.7623,-2.749,-2.749,-2.749,-2.749,-2.7385,-2.721,-2.7262,-2.7411,-2.7419,-2.734,-2.7411,-5.8491,-5.783,-5.6588,-5.5895,-5.5703,-5.5703,-5.5357,-5.4741,-5.3933,-5.3077,-5.2241,-5.1356,-5.0933,-5.0712,-5.0702,-5.0702,-5.0702,-5.0702,-5.0702,-5.0634,-5.0358,-5.0075,-4.9697,-4.9204,-4.891,-4.8855,-4.8875,-4.884,-4.8769,-4.8714,-4.8697,-4.8587,-4.8052,-4.7609,-4.7167,-4.6007,-4.5289,-4.4777,-4.3919,-4.3214,-4.2901,-4.2498,-4.1987,-4.1534,-4.1255,-4.1024,-4.0791,-3.979,-3.9077,-3.8617,-3.7754,-3.6904,-3.6387,-3.6284,-3.6284,-3.6284,-3.6284,-3.618,-3.5732,-3.5318,-3.4877,-3.4446,-3.3577,-3.3195,-3.2981,-3.2552,-3.2177,-3.1845,-3.1871,-3.1701,-3.1343,-3.1646,-3.1951,-3.2257,-3.1849,-3.165,-3.1902,-3.2187,-3.2413,-3.2413,-3.2441,-3.2413,-3.2413,-3.2413,-3.2413,-3.2413,-3.2413,-3.2413,-3.2413,-3.2413,-3.2413,-3.2413,-3.2355,-3.2413,-3.2358,-3.2272,-3.1964,-3.148,-3.0896,-3.0359,-2.9314,-2.8384,-2.8026,-2.7696,-2.759,-2.7556,-2.7523,-2.7464,-2.7281,-2.7053,-2.7,-2.7027,-2.6974,-2.6928,-2.721,-5.808,-5.7215,-5.613,-5.5703,-5.5665,-5.5318,-5.5126,-5.4703,-5.3318,-5.2615,-5.2202,-5.1202,-5.0702,-5.0702,-5.0702,-5.0702,-5.0702,-5.0702,-5.0702,-5.0634,-5.0358,-5.0,-4.9608,-4.9241,-4.9044,-4.889,-4.889,-4.8892,-4.8857,-4.8857,-4.8804,-4.8622,-4.8345,-4.7883,-4.735,-4.6242,-4.5523,-4.4881,-4.411,-4.3532,-4.325,-4.305,-4.2482,-4.1994,-4.1565,-4.1378,-4.0874,-4.0032,-3.9341,-3.8617,-3.7616,-3.6788,-3.6387,-3.6284,-3.6284,-3.6284,-3.6284,-3.618,-3.5835,-3.5387,-3.5042,-3.4642,-3.3713,-3.3135,-3.276,-3.2299,-3.1745,-3.1352,-3.1524,-3.163,-3.1622,-3.1874,-3.2232,-3.2437,-3.2123,-3.1866,-3.2093,-3.2389,-3.2465,-3.2496,-3.241,-3.2413,-3.2413,-3.2413,-3.2413,-3.2413,-3.2413,-3.2413,-3.2413,-3.2413,-3.2413,-3.2413,-3.2413,-3.2413,-3.2413,-3.2358,-3.2299,-3.1879,-3.1364,-3.0896,-3.0119,-2.8971,-2.846,-2.8103,-2.7829,-2.7571,-2.7406,-2.7269,-2.7027,-2.685,-2.6745,-2.6824,-2.687,-2.6824,-2.7079,-5.7644,-5.5998,-5.5787,-5.5703,-5.5588,-5.4972,-5.4934,-5.4857,-5.3126,-5.2385,-5.2356,-5.1279,-5.0702,-5.0702,-5.0702,-5.0702,-5.0702,-5.0702,-5.0702,-5.0614,-5.038,-5.005,-4.9622,-4.9408,-4.9225,-4.901,-4.8925,-4.889,-4.8873,-4.8873,-4.8838,-4.8711,-4.8137,-4.7769,-4.7457,-4.6146,-4.5278,-4.5077,-4.4247,-4.3721,-4.3566,-4.3443,-4.3032,-4.2382,-4.2062,-4.1609,-4.1024,-4.0515,-3.9928,-3.8767,-3.7318,-3.6697,-3.6456,-3.6284,-3.6284,-3.6284,-3.6249,-3.6042,-3.5456,-3.5352,-3.4973,-3.4387,-3.3628,-3.2906,-3.2644,-3.2096,-3.1523,-3.1399,-3.1335,-3.1693,-3.1851,-3.2123,-3.2285,-3.2372,-3.22,-3.2416,-3.2721,-3.2746,-3.2605,-3.2605,-3.2496,-3.2441,-3.2413,-3.2413,-3.2413,-3.2413,-3.2413,-3.2413,-3.2413,-3.2413,-3.2413,-3.2413,-3.2413,-3.2413,-3.2413,-3.2413,-3.2413,-3.2216,-3.1652,-3.1131,-3.0748,-2.9846,-2.9136,-2.8598,-2.8017,-2.7505,-2.7091,-2.6895,-2.6836,-2.685,-2.6844,-2.7079,-2.7262,-2.7027,-2.7105,-5.7931,-5.6701,-5.5994,-5.5703,-5.5665,-5.5511,-5.478,-5.3703,-5.3164,-5.2202,-5.1395,-5.0827,-5.0712,-5.0702,-5.0702,-5.0702,-5.0702,-5.0702,-5.0702,-5.0702,-5.0634,-5.0369,-4.9974,-4.9608,-4.9384,-4.9225,-4.901,-4.889,-4.889,-4.889,-4.8873,-4.8818,-4.8764,-4.8595,-4.8227,-4.6949,-4.6116,-4.5769,-4.4605,-4.3701,-4.3407,-4.3355,-4.3087,-4.2485,-4.2098,-4.1556,-4.0805,-3.9721,-3.9238,-3.9146,-3.856,-3.756,-3.6628,-3.6318,-3.6284,-3.6284,-3.6284,-3.6215,-3.5973,-3.5559,-3.518,-3.4938,-3.4283,-3.3815,-3.3687,-3.2956,-3.2622,-3.2577,-3.2399,-3.2195,-3.2029,-3.2173,-3.2304,-3.2355,-3.2651,-3.2946,-3.3113,-3.2989,-3.28,-3.2691,-3.2578,-3.2523,-3.241,-3.2441,-3.2441,-3.2441,-3.2413,-3.2413,-3.2413,-3.2413,-3.2413,-3.2413,-3.2413,-3.2413,-3.2413,-3.2385,-3.2299,-3.2216,-3.1737,-3.1247,-3.0867,-3.0303,-2.9451,-2.8675,-2.8007,-2.752,-2.7157,-2.7024,-2.7012,-2.702,-2.6948,-2.7105,-2.7157,-2.7053,-2.7131,-5.7489,-5.6518,-5.5951,-5.5472,-5.5088,-5.4703,-5.401,-5.3126,-5.2318,-5.1779,-5.1279,-5.0894,-5.0702,-5.0702,-5.0702,-5.0702,-5.0702,-5.0702,-5.0702,-5.0702,-5.0692,-5.0504,-5.0183,-4.9803,-4.9529,-4.9399,-4.9061,-4.8907,-4.889,-4.8927,-4.889,-4.8964,-4.9262,-4.8927,-4.8444,-4.7478,-4.6591,-4.5667,-4.4628,-4.3795,-4.3577,-4.349,-4.33,-4.2774,-4.22,-4.16,-4.1241,-4.0389,-3.9859,-3.9652,-3.9284,-3.8422,-3.7098,-3.649,-3.6318,-3.6284,-3.6284,-3.6284,-3.6146,-3.5973,-3.5732,-3.5697,-3.5007,-3.4731,-3.4456,-3.3904,-3.3584,-3.361,-3.3352,-3.2942,-3.2383,-3.2506,-3.2549,-3.2349,-3.2608,-3.2929,-3.3188,-3.3123,-3.2962,-3.2854,-3.28,-3.2746,-3.2664,-3.2551,-3.2496,-3.2523,-3.2441,-3.2413,-3.2413,-3.2413,-3.2413,-3.2413,-3.2413,-3.2413,-3.2413,-3.2358,-3.2188,-3.202,-3.1709,-3.1247,-3.0866,-3.0241,-2.9574,-2.9056,-2.8636,-2.7834,-2.7475,-2.7373,-2.7035,-2.667,-2.6574,-2.685,-2.7079,-2.721,-2.7314,-5.6874,-5.6044,-5.5683,-5.5126,-5.4395,-5.3626,-5.3164,-5.2779,-5.151,-5.1318,-5.151,-5.0971,-5.0702,-5.0702,-5.0702,-5.0702,-5.0702,-5.0702,-5.0702,-5.0702,-5.0933,-5.08,-5.0565,-5.0404,-5.0212,-4.9737,-4.9172,-4.8982,-4.9113,-4.9113,-4.9373,-4.941,-4.9968,-4.9819,-4.8667,-4.7738,-4.7144,-4.6013,-4.4676,-4.3971,-4.3923,-4.3908,-4.3644,-4.2959,-4.2446,-4.1825,-4.1499,-4.0918,-4.0574,-3.9974,-3.9732,-3.8915,-3.7892,-3.6939,-3.649,-3.649,-3.6422,-3.6284,-3.6284,-3.6249,-3.6215,-3.6249,-3.5766,-3.5421,-3.5235,-3.4766,-3.447,-3.443,-3.4343,-3.3888,-3.2984,-3.3045,-3.2883,-3.2507,-3.2386,-3.2734,-3.3119,-3.3203,-3.3123,-3.3069,-3.2962,-3.2881,-3.28,-3.266,-3.2633,-3.2578,-3.2496,-3.2413,-3.2413,-3.2413,-3.2413,-3.2228,-3.2167,-3.1736,-3.1674,-3.2044,-3.1937,-3.1921,-3.1643,-3.1537,-3.1189,-3.1013,-3.0601,-2.9952,-2.9394,-2.8579,-2.7781,-2.7417,-2.696,-2.6347,-2.6485,-2.7,-2.7249,-2.7366,-2.7333,-5.6813,-5.5883,-5.5036,-5.4587,-5.4357,-5.3549,-5.2731,-5.2154,-5.1731,-5.1356,-5.0894,-5.0789,-5.0702,-5.0702,-5.0702,-5.0702,-5.0702,-5.0702,-5.0702,-5.0818,-5.1192,-5.131,-5.1061,-5.1266,-5.1374,-5.1013,-5.001,-4.941,-4.9819,-4.993,-5.019,-5.0785,-5.1082,-5.0822,-4.9893,-4.889,-4.759,-4.6624,-4.5026,-4.4061,-4.4135,-4.3992,-4.3677,-4.2978,-4.2621,-4.216,-4.1358,-4.0742,-4.0433,-4.0758,-3.9772,-3.9081,-3.8577,-3.7888,-3.7396,-3.6995,-3.6594,-3.6284,-3.6284,-3.6284,-3.6284,-3.6284,-3.6111,-3.6077,-3.5904,-3.549,-3.5283,-3.5511,-3.5382,-3.4868,-3.3738,-3.38,-3.3312,-3.2844,-3.2766,-3.3119,-3.3245,-3.3282,-3.3203,-3.3123,-3.3069,-3.3016,-3.2935,-3.2827,-3.2718,-3.2605,-3.2496,-3.2441,-3.2413,-3.2413,-3.2413,-3.2136,-3.1886,-3.1274,-3.0782,-3.1274,-3.1559,-3.1774,-3.1763,-3.216,-3.1992,-3.2104,-3.1758,-3.0748,-2.9895,-2.9096,-2.8349,-2.7783,-2.7588,-2.7449,-2.7402,-2.7314,-2.734,-2.7334,-2.7059,-5.6245,-5.5358,-5.48,-5.4034,-5.3174,-5.2741,-5.2049,-5.1356,-5.1279,-5.1048,-5.0779,-5.0702,-5.0702,-5.0702,-5.0702,-5.0702,-5.0702,-5.0702,-5.0702,-5.0818,-5.1077,-5.1118,-5.1023,-5.1481,-5.1412,-5.1072,-5.0457,-5.0339,-5.0748,-5.0785,-5.1045,-5.1379,-5.1788,-5.1416,-5.019,-4.8927,-4.7887,-4.6958,-4.5249,-4.4246,-4.4506,-4.4283,-4.3714,-4.3422,-4.3051,-4.264,-4.1991,-4.1427,-4.1104,-4.1033,-4.0513,-4.0177,-3.9785,-3.9197,-3.8209,-3.7189,-3.6581,-3.6284,-3.6284,-3.6284,-3.6284,-3.6284,-3.6284,-3.6284,-3.6215,-3.6008,-3.5939,-3.6082,-3.6156,-3.5652,-3.4835,-3.458,-3.4039,-3.3444,-3.3302,-3.3245,-3.3309,-3.3309,-3.3256,-3.3203,-3.3203,-3.315,-3.3123,-3.2989,-3.2827,-3.2691,-3.2551,-3.2468,-3.2441,-3.229,-3.2259,-3.1859,-3.1459,-3.0874,-3.0412,-3.072,-3.1151,-3.1397,-3.1767,-3.2167,-3.2413,-3.2355,-3.1845,-3.0981,-3.022,-2.9748,-2.9315,-2.8883,-2.8748,-2.847,-2.8075,-2.7737,-2.7461,-2.7216,-2.6959,-5.5609,-5.4885,-5.4405,-5.3305,-5.203,-5.1712,-5.1318,-5.0779,-5.0702,-5.075,-5.0702,-5.0702,-5.0702,-5.0702,-5.0702,-5.0702,-5.0702,-5.0702,-5.0779,-5.1087,-5.1356,-5.1167,-5.1226,-5.1458,-5.2029,-5.2027,-5.1921,-5.1861,-5.1639,-5.1639,-5.1714,-5.2159,-5.2642,-5.2011,-5.0488,-4.993,-4.8556,-4.7181,-4.5435,-4.4878,-4.4766,-4.4395,-4.3939,-4.3892,-4.3577,-4.3105,-4.2563,-4.2109,-4.1754,-4.1534,-4.1263,-4.1138,-4.0941,-4.0453,-3.9112,-3.7274,-3.6748,-3.6554,-3.636,-3.6326,-3.6326,-3.6284,-3.6284,-3.6284,-3.6284,-3.6249,-3.6249,-3.6284,-3.6262,-3.6049,-3.543,-3.5075,-3.4577,-3.4061,-3.3585,-3.3309,-3.3309,-3.3309,-3.3309,-3.3282,-3.3309,-3.3282,-3.3203,-3.3123,-3.2935,-3.2827,-3.2687,-3.2523,-3.2465,-3.2102,-3.189,-3.1459,-3.0997,-3.0474,-3.0197,-3.0228,-3.0658,-3.0966,-3.149,-3.1982,-3.2228,-3.2413,-3.1817,-3.1416,-3.1323,-3.0886,-3.0438,-2.9723,-2.9098,-2.8619,-2.8398,-2.8009,-2.7507,-2.7243,-2.7012,-5.5147,-5.4908,-5.3162,-5.2274,-5.1962,-5.1211,-5.0827,-5.0712,-5.0702,-5.0702,-5.0702,-5.0702,-5.0702,-5.0702,-5.0702,-5.0702,-5.0741,-5.0741,-5.1125,-5.1741,-5.2269,-5.2713,-5.3415,-5.4435,-5.3832,-5.3424,-5.3587,-5.3324,-5.2716,-5.2494,-5.2791,-5.3274,-5.3348,-5.3311,-5.2382,-5.1231,-5.0673,-4.941,-4.733,-4.5547,-4.4506,-4.4209,-4.3992,-4.3684,-4.3549,-4.3375,-4.2975,-4.2534,-4.2118,-4.2029,-4.1701,-4.1165,-4.0552,-4.0355,-3.9787,-3.8794,-3.8021,-3.7318,-3.6797,-3.6638,-3.6582,-3.6519,-3.6374,-3.6284,-3.6305,-3.6284,-3.6284,-3.6284,-3.6284,-3.6135,-3.5722,-3.5144,-3.4658,-3.4168,-3.3745,-3.344,-3.3309,-3.3309,-3.3309,-3.3309,-3.3309,-3.3309,-3.3282,-3.3176,-3.3069,-3.2962,-3.2823,-3.2629,-3.2369,-3.1975,-3.1243,-3.072,-3.0597,-3.0135,-2.9827,-2.992,-3.0351,-3.0632,-3.1336,-3.189,-3.2167,-3.2413,-3.2413,-3.2069,-3.2002,-3.1522,-3.0658,-2.9866,-2.9248,-2.9128,-2.9261,-2.8422,-2.7385,-2.7184,-2.7408,-5.3696,-5.3592,-5.3224,-5.2421,-5.1409,-5.0941,-5.0776,-5.0721,-5.0702,-5.0702,-5.0702,-5.0702,-5.0702,-5.0702,-5.0702,-5.0971,-5.1164,-5.0894,-5.1471,-5.2231,-5.2654,-5.2909,-5.3464,-5.4178,-5.4313,-5.4358,-5.4231,-5.404,-5.3568,-5.3368,-5.3534,-5.372,-5.3757,-5.3441,-5.3274,-5.2011,-5.0971,-4.9782,-4.8184,-4.6364,-4.5287,-4.5085,-4.5111,-4.4519,-4.4465,-4.4226,-4.3761,-4.2953,-4.2438,-4.2216,-4.1809,-4.1442,-4.1152,-4.1012,-4.0653,-3.9917,-3.9546,-3.8901,-3.809,-3.7547,-3.7193,-3.6977,-3.6783,-3.6485,-3.6423,-3.6326,-3.6284,-3.6284,-3.6284,-3.6178,-3.5963,-3.5566,-3.5052,-3.4529,-3.4043,-3.3642,-3.344,-3.3335,-3.3309,-3.3309,-3.3309,-3.3309,-3.3282,-3.3203,-3.3091,-3.298,-3.2685,-3.2244,-3.2017,-3.1693,-3.0808,-2.9797,-2.9802,-2.9833,-2.9587,-2.952,-3.0202,-3.0694,-3.1551,-3.2044,-3.2259,-3.2413,-3.2321,-3.2351,-3.2266,-3.1618,-3.0748,-3.066,-3.0661,-3.0453,-3.0271,-2.9383,-2.8611,-2.8709,-2.8754,-5.2524,-5.2283,-5.2909,-5.2295,-5.0984,-5.0913,-5.0841,-5.0758,-5.0731,-5.0702,-5.0702,-5.0702,-5.0702,-5.0702,-5.0702,-5.0971,-5.1471,-5.0933,-5.1779,-5.2472,-5.2779,-5.3,-5.3909,-5.4438,-5.4522,-5.4282,-5.4451,-5.4322,-5.4176,-5.3944,-5.372,-5.3794,-5.3794,-5.3534,-5.2977,-5.2419,-5.1714,-5.0488,-4.915,-4.759,-4.6364,-4.6475,-4.6215,-4.5844,-4.5568,-4.5358,-4.4756,-4.3907,-4.3153,-4.256,-4.205,-4.1774,-4.1682,-4.1495,-4.1288,-4.081,-4.06,-4.0381,-3.9446,-3.867,-3.8035,-3.7575,-3.7172,-3.6623,-3.6561,-3.6423,-3.6326,-3.6346,-3.6284,-3.6284,-3.6199,-3.5854,-3.5419,-3.4958,-3.4561,-3.4043,-3.3642,-3.3591,-3.344,-3.3309,-3.3309,-3.3309,-3.3282,-3.3203,-3.3118,-3.3029,-3.2609,-3.2039,-3.1751,-3.1526,-3.086,-2.994,-2.992,-3.0043,-2.9833,-2.9802,-3.0294,-3.0725,-3.1582,-3.2074,-3.2228,-3.2198,-3.2105,-3.2198,-3.2321,-3.2132,-3.1507,-3.1851,-3.2076,-3.116,-3.0422,-3.0485,-3.0221,-3.0185,-2.9723,-5.2224,-5.1479,-5.1428,-5.137,-5.1165,-5.0952,-5.0914,-5.0858,-5.0749,-5.0712,-5.0702,-5.0702,-5.0702,-5.0702,-5.0712,-5.0789,-5.0866,-5.075,-5.1895,-5.2818,-5.3241,-5.3972,-5.4797,-5.5253,-5.5328,-5.5084,-5.49,-5.4585,-5.4296,-5.4054,-5.3889,-5.3794,-5.3794,-5.3757,-5.3534,-5.3125,-5.2345,-5.1231,-5.0079,-4.8853,-4.7776,-4.7441,-4.7181,-4.6624,-4.6364,-4.6087,-4.5349,-4.4684,-4.4071,-4.3324,-4.2557,-4.2092,-4.2008,-4.1831,-4.156,-4.1416,-4.1323,-4.1196,-4.0696,-3.9406,-3.8168,-3.7687,-3.7262,-3.6809,-3.6664,-3.6561,-3.652,-3.6444,-3.636,-3.6284,-3.6156,-3.592,-3.5644,-3.5328,-3.4958,-3.4553,-3.4168,-3.3949,-3.3771,-3.344,-3.3309,-3.3309,-3.3309,-3.3256,-3.3229,-3.314,-3.2746,-3.2149,-3.1789,-3.1534,-3.1176,-3.066,-3.0464,-3.0412,-3.0325,-3.0479,-3.0751,-3.0936,-3.149,-3.189,-3.2136,-3.2013,-3.1828,-3.1982,-3.2136,-3.2204,-3.2302,-3.2219,-3.1879,-3.0984,-3.063,-3.0982,-3.0865,-3.0512,-2.9966,-5.1679,-5.1404,-5.1354,-5.1286,-5.119,-5.1047,-5.0959,-5.0883,-5.0767,-5.0702,-5.0712,-5.0702,-5.0702,-5.0702,-5.075,-5.101,-5.1356,-5.1433,-5.251,-5.351,-5.4203,-5.4703,-5.5434,-5.5654,-5.561,-5.5485,-5.5224,-5.4924,-5.4607,-5.4248,-5.4,-5.3889,-5.3794,-5.3794,-5.372,-5.3385,-5.2494,-5.1602,-5.0525,-4.9336,-4.8184,-4.8184,-4.8036,-4.733,-4.7218,-4.7107,-4.6648,-4.536,-4.4706,-4.4015,-4.3084,-4.2613,-4.2277,-4.2029,-4.1831,-4.1648,-4.1604,-4.1604,-4.1464,-4.0249,-3.9189,-3.8061,-3.7685,-3.7309,-3.6905,-3.6623,-3.6541,-3.6444,-3.6381,-3.6305,-3.6241,-3.6114,-3.5963,-3.5677,-3.5351,-3.5028,-3.4673,-3.4391,-3.4075,-3.372,-3.3435,-3.3309,-3.3309,-3.3309,-3.3282,-3.3251,-3.2767,-3.2343,-3.2019,-3.1659,-3.1337,-3.1047,-3.0846,-3.0711,-3.0623,-3.0812,-3.1089,-3.1274,-3.1459,-3.1643,-3.189,-3.1732,-3.1582,-3.1794,-3.1979,-3.2047,-3.2146,-3.2158,-3.1879,-3.1478,-3.1507,-3.1762,-3.1448,-3.0955,-3.045,-5.1406,-5.1405,-5.1405,-5.1318,-5.1238,-5.1121,-5.1014,-5.0959,-5.0819,-5.0903,-5.1077,-5.1058,-5.1048,-5.1048,-5.1087,-5.1318,-5.1731,-5.1962,-5.301,-5.3741,-5.4241,-5.4818,-5.528,-5.5472,-5.5346,-5.5495,-5.5425,-5.5091,-5.4761,-5.4463,-5.4125,-5.3889,-5.3794,-5.3794,-5.3683,-5.3274,-5.2531,-5.1751,-5.1119,-5.0042,-4.8853,-4.8964,-4.889,-4.8221,-4.8073,-4.759,-4.7036,-4.5941,-4.5063,-4.4336,-4.3541,-4.2846,-4.2501,-4.2236,-4.1987,-4.1744,-4.1604,-4.1604,-4.1429,-4.0832,-3.9884,-3.8719,-3.8102,-3.7711,-3.73,-3.6864,-3.6609,-3.6582,-3.6444,-3.636,-3.6305,-3.622,-3.6156,-3.592,-3.5898,-3.5577,-3.5098,-3.4754,-3.4366,-3.4025,-3.3694,-3.3309,-3.3309,-3.3309,-3.3309,-3.3309,-3.3098,-3.2762,-3.2458,-3.2071,-3.1654,-3.1363,-3.1104,-3.0969,-3.0865,-3.1085,-3.1336,-3.1674,-3.1736,-3.1551,-3.1582,-3.1455,-3.1424,-3.1578,-3.1763,-3.189,-3.2078,-3.2241,-3.2299,-3.2299,-3.2272,-3.216,-3.1992,-3.1507,-3.1189,-5.1406,-5.1406,-5.1406,-5.1405,-5.1355,-5.124,-5.1168,-5.1058,-5.0952,-5.1253,-5.1741,-5.177,-5.1818,-5.1818,-5.1779,-5.1846,-5.2077,-5.2192,-5.301,-5.4087,-5.4049,-5.4472,-5.4934,-5.5203,-5.5088,-5.5495,-5.5473,-5.5185,-5.4836,-5.4544,-5.4176,-5.3889,-5.3832,-5.3794,-5.3794,-5.3794,-5.3348,-5.2642,-5.2308,-5.1231,-5.0042,-4.9707,-4.9262,-4.889,-4.8667,-4.811,-4.7333,-4.6537,-4.5655,-4.4716,-4.3835,-4.3231,-4.2847,-4.2521,-4.2139,-4.1723,-4.1635,-4.1648,-4.1534,-4.0924,-4.0186,-3.9427,-3.8859,-3.8298,-3.7947,-3.7391,-3.6766,-3.6754,-3.6561,-3.6423,-3.636,-3.6284,-3.6241,-3.6199,-3.6156,-3.6049,-3.5532,-3.4934,-3.4561,-3.4218,-3.372,-3.3309,-3.3309,-3.3309,-3.3309,-3.3309,-3.3309,-3.3124,-3.2846,-3.2636,-3.2191,-3.1972,-3.1685,-3.1548,-3.1504,-3.142,-3.1609,-3.1948,-3.2013,-3.1824,-3.1551,-3.1455,-3.1424,-3.1455,-3.164,-3.1859,-3.2136,-3.2413,-3.2413,-3.2413,-3.2413,-3.2299,-3.2188,-3.2048,-3.1707,-5.1406,-5.1406,-5.1406,-5.1406,-5.1365,-5.1258,-5.1158,-5.1099,-5.097,-5.1288,-5.1797,-5.1462,-5.1867,-5.2319,-5.2251,-5.2241,-5.2779,-5.351,-5.428,-5.4367,-5.4098,-5.478,-5.5164,-5.4972,-5.4895,-5.5462,-5.5543,-5.5401,-5.5157,-5.4791,-5.4463,-5.4158,-5.3907,-5.3794,-5.3794,-5.3683,-5.3237,-5.2048,-5.1602,-5.1008,-4.9596,-4.9336,-4.9224,-4.889,-4.889,-4.8519,-4.785,-4.707,-4.6178,-4.5361,-4.4572,-4.3688,-4.3303,-4.2977,-4.2657,-4.2175,-4.1966,-4.1852,-4.1679,-4.1253,-4.0924,-4.027,-3.9743,-3.9076,-3.8248,-3.7851,-3.737,-3.687,-3.6623,-3.6485,-3.6444,-3.6326,-3.6284,-3.6262,-3.6241,-3.622,-3.5876,-3.5168,-3.4649,-3.4391,-3.3968,-3.3487,-3.3309,-3.3309,-3.3309,-3.3309,-3.3309,-3.3309,-3.3093,-3.3066,-3.2861,-3.2676,-3.2453,-3.2257,-3.2118,-3.1786,-3.1824,-3.2136,-3.2167,-3.2009,-3.1794,-3.1516,-3.1455,-3.1455,-3.167,-3.1859,-3.2167,-3.2413,-3.2413,-3.2413,-3.2413,-3.2413,-3.2299,-3.2272,-3.216,-5.1172,-5.1406,-5.1406,-5.1406,-5.1367,-5.1317,-5.1352,-5.1438,-5.1139,-5.1485,-5.2189,-5.1634,-5.1924,-5.2762,-5.2782,-5.2878,-5.3686,-5.4187,-5.4842,-5.4793,-5.4244,-5.459,-5.4734,-5.4559,-5.4511,-5.5126,-5.5566,-5.5543,-5.5275,-5.5064,-5.4716,-5.4279,-5.4,-5.3832,-5.372,-5.3423,-5.2754,-5.1676,-5.1156,-5.0339,-4.9336,-4.8964,-4.8927,-4.889,-4.8853,-4.8704,-4.8259,-4.759,-4.6773,-4.6215,-4.5312,-4.4272,-4.3928,-4.3501,-4.3124,-4.2599,-4.22,-4.2008,-4.1701,-4.1569,-4.1218,-4.0902,-4.0713,-3.987,-3.8725,-3.8243,-3.7551,-3.705,-3.6719,-3.6623,-3.6527,-3.6444,-3.6381,-3.6346,-3.6305,-3.6318,-3.6114,-3.5442,-3.4934,-3.4649,-3.4243,-3.3771,-3.3361,-3.3309,-3.3309,-3.3309,-3.3309,-3.3309,-3.3277,-3.3156,-3.3098,-3.2876,-3.2534,-3.2115,-3.192,-3.1848,-3.2006,-3.2348,-3.2317,-3.2163,-3.1917,-3.164,-3.1547,-3.1547,-3.1855,-3.2074,-3.2259,-3.2413,-3.2413,-3.2413,-3.2413,-3.2413,-3.2413,-3.2413,-3.2385,-5.0664,-5.1328,-5.1406,-5.1406,-5.1406,-5.1289,-5.1698,-5.2286,-5.1414,-5.1886,-5.3254,-5.2314,-5.2471,-5.3204,-5.3242,-5.3542,-5.4111,-5.439,-5.4767,-5.4834,-5.388,-5.4063,-5.3966,-5.3666,-5.3936,-5.457,-5.5137,-5.5429,-5.5313,-5.5224,-5.4871,-5.4397,-5.4054,-5.3796,-5.3497,-5.2865,-5.2159,-5.1416,-5.0673,-4.9893,-4.9076,-4.8742,-4.8779,-4.8779,-4.8742,-4.8481,-4.811,-4.7664,-4.7144,-4.6475,-4.5658,-4.509,-4.4515,-4.3862,-4.3305,-4.2829,-4.2402,-4.2008,-4.1657,-4.1604,-4.1569,-4.1323,-4.0937,-4.0165,-3.9357,-3.8599,-3.7927,-3.7236,-3.6751,-3.6745,-3.6684,-3.6568,-3.6485,-3.6444,-3.6381,-3.6339,-3.6276,-3.5832,-3.5328,-3.4911,-3.4488,-3.405,-3.3591,-3.3435,-3.3513,-3.3309,-3.3309,-3.3309,-3.3214,-3.2929,-3.284,-3.2667,-3.2259,-3.1691,-3.1653,-3.2017,-3.2122,-3.2465,-3.2437,-3.2314,-3.2037,-3.1886,-3.1859,-3.1921,-3.2136,-3.2321,-3.2382,-3.2413,-3.2413,-3.2413,-3.2413,-3.2413,-3.2413,-3.2413,-3.2413,-5.0351,-5.0586,-5.1172,-5.1406,-5.1328,-5.0781,-5.0968,-5.15,-5.1206,-5.1968,-5.3448,-5.1896,-5.2301,-5.4099,-5.3068,-5.3127,-5.3435,-5.3705,-5.3773,-5.3542,-5.3156,-5.3185,-5.3089,-5.3003,-5.3427,-5.4188,-5.4833,-5.5265,-5.5566,-5.547,-5.496,-5.4409,-5.4037,-5.3641,-5.3032,-5.2159,-5.1695,-5.1156,-5.0413,-4.9596,-4.8853,-4.8407,-4.8481,-4.8593,-4.8333,-4.8184,-4.837,-4.7961,-4.7404,-4.6624,-4.5769,-4.5041,-4.4172,-4.3923,-4.3594,-4.2847,-4.2422,-4.2029,-4.1679,-4.1604,-4.1591,-4.1613,-4.131,-4.0551,-3.9708,-3.9006,-3.8354,-3.7591,-3.7061,-3.7001,-3.689,-3.6795,-3.6678,-3.6602,-3.6554,-3.654,-3.6422,-3.6028,-3.5554,-3.5237,-3.4802,-3.4366,-3.3917,-3.3873,-3.3873,-3.3487,-3.3309,-3.3335,-3.3245,-3.2993,-3.2866,-3.2693,-3.2552,-3.2175,-3.2284,-3.2613,-3.2536,-3.2547,-3.2547,-3.2492,-3.2314,-3.2194,-3.2228,-3.2259,-3.2321,-3.2351,-3.2382,-3.2413,-3.2413,-3.2413,-3.2413,-3.2413,-3.2413,-3.2413,-3.2413,-4.9375,-4.9726,-5.0195,-5.0586,-5.082,-5.043,-5.0623,-5.1192,-5.0878,-5.1444,-5.2394,-5.1481,-5.1819,-5.2799,-5.2425,-5.261,-5.3421,-5.3498,-5.3537,-5.3305,-5.2421,-5.2536,-5.2489,-5.2471,-5.2963,-5.3773,-5.4545,-5.5104,-5.5489,-5.5193,-5.4611,-5.4786,-5.4186,-5.3607,-5.3031,-5.2122,-5.1163,-5.0686,-5.0077,-4.9279,-4.8556,-4.7961,-4.8147,-4.8259,-4.7887,-4.8184,-4.8742,-4.8296,-4.7887,-4.7256,-4.6513,-4.5584,-4.4804,-4.4475,-4.3795,-4.3123,-4.2903,-4.2541,-4.2165,-4.159,-4.1648,-4.1611,-4.1468,-4.0713,-4.027,-3.9743,-3.8796,-3.7933,-3.7577,-3.7271,-3.7146,-3.7036,-3.689,-3.678,-3.6797,-3.6797,-3.649,-3.6127,-3.5832,-3.5566,-3.5178,-3.4754,-3.4488,-3.4415,-3.425,-3.3899,-3.3617,-3.3513,-3.344,-3.3214,-3.3124,-3.3035,-3.3019,-3.2855,-3.2989,-3.2935,-3.2827,-3.2715,-3.2746,-3.266,-3.2551,-3.2437,-3.2376,-3.2379,-3.2382,-3.2413,-3.2413,-3.2413,-3.2413,-3.2413,-3.2413,-3.2413,-3.2413,-3.2413,-3.2413,-4.8086,-4.8828,-4.8867,-4.9453,-5.0039,-4.9961,-5.0351,-5.1055,-5.0095,-5.0336,-5.1047,-5.0912,-5.0815,-5.1409,-5.1501,-5.2128,-5.2622,-5.2815,-5.2777,-5.3227,-5.2249,-5.1962,-5.1953,-5.2035,-5.2391,-5.3222,-5.4033,-5.4707,-5.5133,-5.4615,-5.4073,-5.4975,-5.3366,-5.2523,-5.2424,-5.1435,-5.0454,-4.9845,-4.9168,-4.8394,-4.7921,-4.7627,-4.759,-4.785,-4.7813,-4.7924,-4.863,-4.8853,-4.8816,-4.8221,-4.7478,-4.6438,-4.5472,-4.4788,-4.3911,-4.3526,-4.3248,-4.2996,-4.2568,-4.1988,-4.1843,-4.168,-4.1258,-4.0926,-4.0686,-4.0046,-3.9041,-3.8128,-3.7667,-3.7281,-3.7086,-3.7116,-3.7076,-3.6946,-3.6879,-3.6831,-3.6603,-3.6297,-3.6049,-3.5832,-3.5633,-3.5191,-3.4911,-3.4826,-3.4391,-3.4176,-3.3797,-3.3617,-3.3539,-3.3361,-3.3309,-3.3282,-3.3229,-3.315,-3.3123,-3.3043,-3.2962,-3.2908,-3.2908,-3.2827,-3.266,-3.2605,-3.2551,-3.2496,-3.2413,-3.2413,-3.2413,-3.2413,-3.2413,-3.2413,-3.2413,-3.2413,-3.2413,-3.2413,-3.2413,-4.7734,-4.7969,-4.8633,-4.9062,-4.9101,-4.8516,-4.875,-4.9375,-4.8502,-4.9268,-5.065,-4.9879,-4.9713,-5.0565,-5.0558,-5.1061,-5.1478,-5.1873,-5.1602,-5.1594,-5.1269,-5.1106,-5.1153,-5.1167,-5.1639,-5.2498,-5.3348,-5.4036,-5.4271,-5.3465,-5.254,-5.2636,-5.1802,-5.1648,-5.0922,-5.0022,-4.9631,-4.8882,-4.8175,-4.7724,-4.7454,-4.6752,-4.6438,-4.7367,-4.785,-4.7776,-4.8333,-4.889,-4.811,-4.7181,-4.6847,-4.5844,-4.4655,-4.4209,-4.3849,-4.351,-4.3458,-4.3248,-4.2905,-4.2482,-4.2291,-4.2103,-4.1822,-4.1626,-4.1124,-4.0172,-3.9287,-3.8409,-3.7707,-3.7376,-3.713,-3.7196,-3.7226,-3.7111,-3.703,-3.6864,-3.6713,-3.6444,-3.6276,-3.6114,-3.5963,-3.5744,-3.543,-3.5085,-3.461,-3.4143,-3.3642,-3.3382,-3.3461,-3.3388,-3.3361,-3.3335,-3.3309,-3.3256,-3.3203,-3.3019,-3.2876,-3.2881,-3.2855,-3.2837,-3.2796,-3.266,-3.2551,-3.2468,-3.2413,-3.2413,-3.2413,-3.2413,-3.2413,-3.2413,-3.2413,-3.2413,-3.2413,-3.2413,-3.2413,-4.7266,-4.7695,-4.8555,-4.8672,-4.8281,-4.7812,-4.8086,-4.8555,-4.7525,-4.7874,-4.9442,-4.9176,-4.9199,-4.9761,-4.9823,-4.997,-5.0473,-5.0782,-5.0705,-5.0511,-5.0357,-5.0047,-5.0086,-5.0241,-5.055,-5.1254,-5.195,-5.2522,-5.2909,-5.242,-5.1554,-5.1549,-5.1222,-5.0458,-4.9541,-4.9487,-4.8656,-4.7834,-4.7297,-4.705,-4.7015,-4.644,-4.6297,-4.7301,-4.7603,-4.764,-4.8036,-4.8593,-4.8184,-4.707,-4.6438,-4.5398,-4.4432,-4.4061,-4.3892,-4.3779,-4.366,-4.3577,-4.3262,-4.2904,-4.2649,-4.2474,-4.1848,-4.1446,-4.1411,-4.0551,-3.9779,-3.8901,-3.8128,-3.7672,-3.7356,-3.7336,-3.7266,-3.7156,-3.73,-3.7324,-3.6866,-3.6402,-3.6284,-3.622,-3.6135,-3.6092,-3.5876,-3.5854,-3.5397,-3.5028,-3.4407,-3.3797,-3.372,-3.344,-3.3414,-3.3361,-3.3335,-3.3277,-3.3251,-3.2998,-3.2656,-3.2725,-3.2861,-3.2823,-3.2783,-3.2656,-3.2551,-3.2496,-3.2441,-3.2413,-3.2413,-3.2413,-3.2413,-3.2413,-3.2413,-3.2413,-3.2413,-3.2413,-3.2413,-4.6953,-4.7695,-4.8398,-4.8242,-4.75,-4.7422,-4.7812,-4.8164,-4.6939,-4.6594,-4.7518,-4.8774,-4.8341,-4.8396,-4.9126,-4.9513,-4.99,-5.0287,-5.0132,-4.9977,-4.9823,-4.9668,-4.9436,-4.932,-4.9668,-4.9939,-5.0442,-5.0751,-5.1053,-5.0619,-5.0581,-5.1138,-5.0758,-5.0005,-5.0183,-4.936,-4.7865,-4.7669,-4.7219,-4.6613,-4.639,-4.6246,-4.6536,-4.6861,-4.7239,-4.7616,-4.7938,-4.8293,-4.8384,-4.7252,-4.5988,-4.4931,-4.4321,-4.4023,-4.4023,-4.3908,-4.3908,-4.3892,-4.3733,-4.3185,-4.2971,-4.2614,-4.1768,-4.1415,-4.1485,-4.0834,-4.006,-3.9203,-3.8395,-3.7883,-3.7567,-3.7286,-3.7235,-3.7216,-3.7411,-3.7519,-3.6936,-3.6423,-3.6346,-3.6305,-3.6284,-3.6318,-3.6262,-3.6241,-3.5985,-3.5666,-3.526,-3.4778,-3.425,-3.372,-3.344,-3.3388,-3.3309,-3.3277,-3.3277,-3.3024,-3.2708,-3.2803,-3.2946,-3.284,-3.277,-3.2734,-3.2664,-3.2496,-3.2468,-3.2441,-3.2413,-3.2413,-3.2413,-3.2413,-3.2413,-3.2413,-3.2413,-3.2413,-3.2413,-4.7422,-4.7617,-4.7812,-4.7383,-4.668,-4.6562,-4.6641,-4.6758,-4.6471,-4.6333,-4.6774,-4.7241,-4.7365,-4.7122,-4.7424,-4.7966,-4.8856,-4.9513,-4.9861,-4.9745,-4.9359,-4.9359,-4.9088,-4.8392,-4.901,-4.9204,-4.9165,-4.9243,-4.932,-4.9049,-4.8624,-4.843,-4.9049,-4.8562,-4.8044,-4.7636,-4.7982,-4.7662,-4.7236,-4.6645,-4.7018,-4.681,-4.6224,-4.6439,-4.6813,-4.7357,-4.7916,-4.87,-4.8103,-4.6893,-4.545,-4.4547,-4.4166,-4.4023,-4.4023,-4.4023,-4.4023,-4.4023,-4.3775,-4.3595,-4.3467,-4.3138,-4.2468,-4.2102,-4.1701,-4.0664,-3.9782,-3.8737,-3.8028,-3.7727,-3.7391,-3.72,-3.706,-3.702,-3.7151,-3.705,-3.6754,-3.6527,-3.6464,-3.6423,-3.6381,-3.6339,-3.6262,-3.6092,-3.5688,-3.5374,-3.5028,-3.4561,-3.4218,-3.3873,-3.3597,-3.3492,-3.3414,-3.3309,-3.3277,-3.3151,-3.2929,-3.2993,-3.2998,-3.2893,-3.2881,-3.2873,-3.28,-3.2633,-3.2496,-3.2441,-3.2441,-3.2441,-3.2413,-3.2413,-3.2413,-3.2413,-3.2413,-3.2413,-3.2413]},{"header":{"parameterUnit":"m.s-1","parameterCategory":1,"la1":31.0,"la2":29.5877,"lo1":-88.7671,"lo2":-86.6584,"dy":0.0162,"dx":0.0185,"nx":115,"ny":88,"refTime":"2023-06-30T00:00:00:Z","depth":0,"parameterNumber":3,"parameterNumberName":"V-component_of_WINDS"},"data":[0.0,0.0,0.0,0.0,0.0,0.0,0.0,0.0,0.0,0.0,0.0,0.0,0.0,0.0,0.0,0.0,0.0,0.0,0.0,0.0,0.0,0.0,0.0,0.0,0.0,0.0,0.0,0.0,0.0,0.0,0.0,0.0,0.0,0.0,0.0,0.0,0.0,0.0,0.0,0.0,0.0,0.0,0.0,0.0,0.0,0.0,0.0,0.0,0.0,0.0,0.0,0.0,0.0,0.0,0.0,0.0,0.0,0.0,0.0,0.0,0.0,0.0,0.0,0.0,0.0,0.0,0.0,0.0,0.0,0.0,0.0,0.0,0.0,0.0,0.0,0.0,0.0,0.0,0.0,0.0,0.0,0.0,0.0,0.0,0.0,0.0,0.0,0.0,0.0,0.0,0.0,0.0,0.0,0.0,0.0,0.0,0.0,0.0,0.0,0.0,0.0,0.0,0.0,0.0,0.0,0.0,0.0,0.0,0.0,0.0,0.0,0.0,0.0,0.0,0.0,0.0,0.0,0.0,0.0,0.0,0.0,0.0,0.0,0.0,0.0,0.0,0.0,0.0,0.0,0.0,0.0,0.0,0.0,0.0,0.0,0.0,0.0,0.0,0.0,0.0,0.0,0.0,0.0,0.0,0.0,0.0,0.0,0.0,0.0,0.0,0.0,0.0,0.0,0.0,0.0,0.0,0.0,0.0,0.0,0.0,0.0,0.0,0.0,0.0,0.0,0.0,0.0,0.0,0.0,0.0,0.0,0.0,0.0,0.0,0.0,0.0,0.0,0.0,0.0,0.0,0.0,0.0,0.0,0.0,0.0,0.0,0.0,0.0,0.0,0.0,0.0,0.0,0.0,0.0,0.0,0.0,0.0,0.0,0.0,0.0,0.0,0.0,0.0,0.0,0.0,0.0,0.0,0.0,0.0,0.0,0.0,0.0,0.0,0.0,0.0,0.0,0.0,0.0,0.0,0.0,0.0,0.0,0.0,0.0,0.0,0.0,0.0,0.0,0.0,0.0,0.0,0.0,0.0,0.0,0.0,0.0,0.0,0.0,0.0,0.0,0.0,0.0,0.0,0.0,0.0,0.0,0.0,0.0,0.0,0.0,0.0,0.0,0.0,0.0,0.0,0.0,0.0,0.0,0.0,0.0,0.0,0.0,0.0,0.0,0.0,0.0,0.0,0.0,0.0,0.0,0.0,0.0,0.0,0.0,0.0,0.0,0.0,0.0,0.0,0.0,0.0,0.0,0.0,0.0,0.0,0.0,0.0,0.0,0.0,0.0,0.0,0.0,0.0,0.0,0.0,0.0,0.0,0.0,0.0,0.0,0.0,0.0,0.0,0.0,0.0,0.0,0.0,0.0,0.0,0.0,0.0,0.0,0.0,0.0,0.0,0.0,0.0,0.0,0.0,0.0,0.0,0.0,0.0,0.0,0.0,0.0,0.0,0.0,0.0,0.0,0.0,0.0,0.0,0.0,0.0,0.0,0.0,0.0,0.0,0.0,0.0,0.0,0.0,0.0,0.0,0.0,0.0,0.0,0.0,0.0,0.0,0.0,0.0,0.0,0.0,0.0,0.0,0.0,0.0,0.0,0.0,0.0,0.0,0.0,0.0,0.0,0.0,0.0,0.0,0.0,0.0,0.0,0.0,0.0,0.0,0.0,0.0,0.0,0.0,0.0,0.0,0.0,0.0,0.0,0.0,0.0,0.0,0.0,0.0,0.0,0.0,0.0,0.0,0.0,0.0,0.0,0.0,0.0,0.0,0.0,0.0,0.0,0.0,0.0,0.0,0.0,0.0,0.0,0.0,0.0,0.0,0.0,0.0,0.0,0.0,0.0,0.0,0.0,0.0,0.0,0.0,0.0,0.0,0.0,0.0,0.0,0.0,0.0,0.0,0.0,0.0,0.0,0.0,0.0,0.0,0.0,0.0,0.0,0.0,0.0,0.0,0.0,0.0,0.0,0.0,0.0,0.0,0.0,0.0,0.0,0.0,0.0,0.0,0.0,0.0,0.0,0.0,0.0,0.0,0.0,0.0,0.0,0.0,0.0,0.0,0.0,0.0,0.0,0.0,0.0,0.0,0.0,0.0,0.0,0.0,0.0,0.0,0.0,0.0,0.0,0.0,0.0,0.0,0.0,0.0,0.0,0.0,0.0,0.0,0.0,0.0,0.0,0.0,0.0,0.0,0.0,0.0,0.0,0.0,0.0,0.0,0.0,0.0,0.0,0.0,0.0,0.0,0.0,0.0,0.0,0.0,0.0,0.0,0.0,0.0,0.0,0.0,0.0,0.0,0.0,0.0,0.0,0.0,0.0,0.0,0.0,0.0,0.0,0.0,0.0,0.0,0.0,0.0,0.0,0.0,0.0,0.0,0.0,0.0,0.0,0.0,0.0,0.0,0.0,0.0,0.0,0.0,0.0,0.0,0.0,0.0,0.0,0.0,0.0,0.0,0.0,0.0,0.0,0.0,0.0,0.0,0.0,0.0,0.0,0.0,0.0,0.0,0.0,0.0,0.0,0.0,0.0,0.0,0.0,0.0,0.0,0.0,0.0,0.0,0.0,0.0,0.0,0.0,0.0,0.0,0.0,0.0,0.0,0.0,0.0,0.0,0.0,0.0,0.0,0.0,0.0,0.0,0.0,0.0,0.0,0.0,0.0,0.0,0.0,0.0,0.0,0.0,0.0,0.0,0.0,0.0,0.0,0.0,0.0,0.0,0.0,0.0,0.0,0.0,0.0,0.0,0.0,0.0,0.0,0.0,0.0,0.0,0.0,0.0,0.0,0.0,0.0,0.0,0.0,0.0,0.0,0.0,0.0,0.0,0.0,0.0,0.0,0.0,0.0,0.0,0.0,0.0,0.0,0.0,0.0,0.0,0.0,0.0,0.0,0.0,0.0,0.0,0.0,0.0,0.0,0.0,0.0,0.0,0.0,0.0,0.0,0.0,0.0,0.0,0.0,0.0,0.0,0.0,0.0,0.0,0.0,0.0,0.0,0.0,0.0,0.0,0.0,0.0,0.0,0.0,0.0,0.0,0.0,0.0,0.0,0.0,0.0,0.0,0.0,0.0,0.0,0.0,0.0,0.0,0.0,0.0,0.0,0.0,0.0,0.0,0.0,0.0,0.0,0.0,0.0,0.0,0.0,0.0,0.0,0.0,0.0,0.0,0.0,0.0,0.0,0.0,0.0,0.0,0.0,0.0,0.0,0.0,0.0,0.0,0.0,0.0,0.0,0.0,0.0,0.0,0.0,0.0,0.0,0.0,0.0,0.0,0.0,0.0,0.0,0.0,0.0,0.0,0.0,0.0,0.0,0.0,0.0,0.0,0.0,0.0,0.0,0.0,0.0,0.0,0.0,0.0,0.0,0.0,0.0,0.0,0.0,0.0,0.0,0.0,0.0,0.0,0.0,0.0,0.0,0.0,0.0,0.0,0.0,0.0,0.0,0.0,0.0,0.0,0.0,0.0,0.0,0.0,0.0,0.0,0.0,0.0,0.0,0.0,0.0,0.0,0.0,0.0,0.0,0.0,0.0,0.0,0.0,0.0,0.0,0.0,0.0,0.0,0.0,0.0,0.0,0.0,0.0,0.0,0.0,0.0,0.0,0.0,0.0,0.0,0.0,0.0,0.0,0.0,0.0,0.0,0.0,0.0,0.0,0.0,0.0,0.0,0.0,0.0,0.0,0.0,0.0,0.0,0.0,0.0,0.0,0.0,0.0,0.0,0.0,0.0,0.0,0.0,0.0,0.0,0.0,0.0,0.0,0.0,0.0,0.0,0.0,0.0,0.0,0.0,0.0,0.0,0.0,0.0,0.0,0.0,0.0,0.0,0.0,0.0,0.0,0.0,0.0,0.0,0.0,0.0,0.0,0.0,0.0,0.0,0.0,0.0,0.0,0.0,0.0,0.0,0.0,0.0,0.0,0.0,0.0,0.0,0.0,0.0,0.0,0.0,0.0,0.0,0.0,0.0,0.0,0.0,0.0,0.0,0.0,0.0,0.0,0.0,0.0,0.0,0.0,0.0,0.0,0.0,0.0,0.0,0.0,0.0,0.0,0.0,0.0,0.0,0.0,0.0,0.0,0.0,0.0,0.0,0.0,0.0,0.0,0.0,0.0,0.0,0.0,0.0,0.0,0.0,0.0,0.0,0.0,0.0,0.0,0.0,0.0,0.0,0.0,0.0,0.0,0.0,0.0,0.0,0.0,0.0,0.0,0.0,0.0,0.0,0.0,0.0,0.0,0.0,0.0,0.0,0.0,0.0,0.0,-1.0603,0.0,0.0,0.0,0.0,0.0,0.0,0.0,0.0,0.0,0.0,0.0,0.0,0.0,0.0,0.0,0.0,0.0,0.0,0.0,0.0,0.0,0.0,0.0,0.0,0.0,0.0,0.0,0.0,0.0,0.0,0.0,0.0,0.0,0.0,0.0,0.0,0.0,0.0,0.0,0.0,0.0,0.0,0.0,0.0,0.0,0.0,0.0,0.0,0.0,0.0,0.0,0.0,0.0,0.0,0.0,0.0,0.0,0.0,0.0,0.0,0.0,0.0,0.0,0.0,0.0,0.0,0.0,0.0,0.0,0.0,0.0,0.0,0.0,0.0,0.0,0.0,0.0,0.0,0.0,0.0,0.0,0.0,0.0,0.0,0.0,0.0,0.0,0.0,0.0,0.0,0.0,0.0,0.0,0.0,0.0,0.0,0.0,0.0,0.0,0.0,0.0,0.0,0.0,0.0,0.0,0.0,0.0,0.0,0.0,0.0,-1.0254,-1.061,-1.0903,-1.1095,-1.1261,0.0,0.0,0.0,0.0,0.0,0.0,0.0,0.0,0.0,0.0,0.0,0.0,0.0,0.0,0.0,0.0,0.0,0.0,0.0,0.0,0.0,0.0,0.0,0.0,0.0,0.0,0.0,0.0,0.0,0.0,0.0,0.0,0.0,0.0,0.0,0.0,0.0,0.0,0.0,0.0,0.0,0.0,0.0,0.0,0.0,0.0,0.0,0.0,0.0,0.0,0.0,0.0,0.0,0.0,0.0,0.0,0.0,0.0,0.0,0.0,0.0,0.0,0.0,0.0,0.0,0.0,0.0,0.0,0.0,0.0,0.0,0.0,0.0,0.0,0.0,0.0,0.0,0.0,0.0,0.0,0.0,0.0,0.0,0.0,0.0,0.0,0.0,0.0,0.0,0.0,0.0,0.0,0.0,0.0,0.0,0.0,0.0,0.0,0.0,0.0,0.0,0.0,0.0,0.0,0.0,0.0,0.0,0.0,0.0,0.0,0.0,0.0,-1.1243,-1.1385,-1.1682,0.0,0.0,0.0,0.0,0.0,0.0,0.0,0.0,0.0,0.0,0.0,0.0,0.0,0.0,0.0,0.0,0.0,0.0,0.0,0.0,0.0,0.0,0.0,0.0,0.0,0.0,0.0,0.0,0.0,0.0,0.0,0.0,0.0,0.0,0.0,0.0,0.0,0.0,0.0,0.0,0.0,0.0,0.0,0.0,0.0,0.0,0.0,0.0,0.0,0.0,0.0,0.0,0.0,0.0,0.0,0.0,0.0,0.0,0.0,0.0,0.0,0.0,0.0,0.0,0.0,0.0,0.0,0.0,0.0,0.0,0.0,0.0,0.0,0.0,0.0,0.0,0.0,0.0,0.0,0.0,0.0,0.0,0.0,0.0,0.0,0.0,0.0,0.0,0.0,0.0,0.0,0.0,0.0,0.0,0.0,0.0,0.0,0.0,0.0,0.0,0.0,0.0,0.0,0.0,0.0,0.0,0.0,0.0,0.0,0.0,-1.155,-1.1368,-1.1839,0.0,-1.1396,0.0,0.0,0.0,0.0,0.0,0.0,0.0,0.0,0.0,0.0,0.0,0.0,0.0,0.0,0.0,0.0,0.0,0.0,0.0,0.0,0.0,0.0,0.0,0.0,0.0,0.0,0.0,0.0,0.0,0.0,0.0,0.0,0.0,0.0,0.0,0.0,0.0,0.0,0.0,0.0,0.0,0.0,0.0,0.0,0.0,0.0,0.0,0.0,0.0,0.0,0.0,0.0,0.0,0.0,0.0,0.0,0.0,0.0,0.0,0.0,0.0,0.0,0.0,0.0,0.0,0.0,0.0,0.0,0.0,0.0,0.0,0.0,0.0,0.0,0.0,0.0,0.0,0.0,0.0,0.0,0.0,0.0,0.0,0.0,0.0,0.0,0.0,0.0,0.0,0.0,0.0,0.0,0.0,0.0,0.0,0.0,0.0,0.0,0.0,0.0,0.0,0.0,0.0,0.0,0.0,0.0,0.0,0.0,0.0,0.0,-1.2046,-1.1915,-1.2035,-1.1985,0.0,0.0,0.0,0.0,0.0,0.0,0.0,0.0,0.0,0.0,0.0,0.0,0.0,0.0,0.0,0.0,0.0,0.0,0.0,0.0,0.0,0.0,0.0,0.0,0.0,0.0,0.0,0.0,0.0,0.0,0.0,0.0,0.0,0.0,0.0,0.0,0.0,0.0,0.0,0.0,0.0,0.0,0.0,0.0,0.0,0.0,0.0,0.0,0.0,0.0,0.0,0.0,0.0,0.0,0.0,0.0,0.0,0.0,0.0,0.0,0.0,0.0,0.0,0.0,0.0,0.0,0.0,0.0,0.0,0.0,0.0,0.0,0.0,0.0,0.0,0.0,0.0,0.0,0.0,0.0,0.0,0.0,0.0,0.0,0.0,0.0,0.0,0.0,0.0,0.0,0.0,0.0,0.0,0.0,0.0,0.0,0.0,0.0,0.0,0.0,0.0,0.0,0.0,0.0,0.0,0.0,0.0,0.0,0.0,0.0,-1.2158,-1.2508,-1.2487,-1.2236,-1.2032,-1.1945,0.0,0.0,0.0,0.0,0.0,0.0,0.0,0.0,0.0,0.0,0.0,0.0,0.0,0.0,0.0,0.0,0.0,0.0,0.0,0.0,0.0,0.0,0.0,0.0,0.0,0.0,0.0,0.0,0.0,0.0,0.0,0.0,0.0,0.0,0.0,0.0,0.0,0.0,0.0,0.0,0.0,0.0,0.0,0.0,0.0,0.0,0.0,0.0,0.0,0.0,0.0,0.0,0.0,0.0,0.0,0.0,0.0,0.0,0.0,0.0,0.0,0.0,0.0,0.0,0.0,0.0,0.0,0.0,0.0,0.0,0.0,0.0,0.0,0.0,0.0,0.0,0.0,0.0,0.0,0.0,0.0,0.0,0.0,0.0,0.0,0.0,0.0,0.0,0.0,0.0,0.0,0.0,0.0,0.0,0.0,0.0,0.0,0.0,0.0,0.0,0.0,0.0,0.0,0.0,0.0,0.0,0.0,0.0,-1.2767,-1.2906,-1.2974,-1.2944,-1.2535,-1.2164,0.0,0.0,0.0,0.0,0.0,0.0,0.0,0.0,0.0,0.0,0.0,0.0,0.0,0.0,0.0,0.0,0.0,0.0,0.0,0.0,0.0,0.0,0.0,0.0,0.0,0.0,0.0,0.0,0.0,0.0,0.0,0.0,0.0,0.0,0.0,0.0,0.0,0.0,0.0,0.0,0.0,0.0,0.0,0.0,0.0,0.0,0.0,0.0,0.0,0.0,0.0,0.0,0.0,0.0,0.0,0.0,0.0,0.0,0.0,0.0,0.0,0.0,0.0,0.0,0.0,0.0,0.0,0.0,0.0,0.0,0.0,0.0,0.0,0.0,0.0,0.0,0.0,0.0,0.0,0.0,0.0,0.0,0.0,0.0,0.0,0.0,0.0,0.0,0.0,0.0,0.0,0.0,0.0,0.0,0.0,0.0,0.0,0.0,0.0,0.0,0.0,0.0,0.0,0.0,0.0,0.0,0.0,0.0,0.0,-1.2985,-1.32,-1.3388,-1.3496,-1.3149,-1.2892,0.0,0.0,0.0,0.0,0.0,0.0,0.0,0.0,0.0,0.0,0.0,0.0,0.0,0.0,0.0,0.0,0.0,0.0,0.0,0.0,0.0,0.0,0.0,0.0,0.0,0.0,0.0,0.0,0.0,0.0,0.0,0.0,0.0,0.0,0.0,0.0,0.0,0.0,0.0,0.0,0.0,0.0,0.0,0.0,0.0,0.0,0.0,0.0,0.0,0.0,0.0,0.0,0.0,0.0,0.0,0.0,0.0,0.0,0.0,0.0,0.0,0.0,0.0,0.0,0.0,0.0,0.0,0.0,0.0,0.0,0.0,0.0,0.0,0.0,0.0,0.0,0.0,0.0,0.0,0.0,0.0,0.0,0.0,0.0,0.0,0.0,0.0,0.0,0.0,0.0,0.0,0.0,0.0,0.0,0.0,0.0,0.0,0.0,0.0,0.0,0.0,0.0,0.0,0.0,0.0,0.0,0.0,0.0,0.0,-1.336,0.0,-1.3785,0.0,-1.3538,-1.3479,0.0,0.0,0.0,0.0,0.0,0.0,0.0,0.0,0.0,0.0,0.0,0.0,0.0,0.0,0.0,0.0,0.0,0.0,0.0,0.0,0.0,0.0,0.0,0.0,0.0,0.0,0.0,0.0,0.0,0.0,0.0,0.0,0.0,0.0,0.0,0.0,0.0,0.0,0.0,0.0,0.0,0.0,0.0,0.0,0.0,0.0,0.0,0.0,0.0,0.0,0.0,0.0,0.0,0.0,0.0,0.0,0.0,0.0,0.0,0.0,0.0,0.0,0.0,0.0,0.0,0.0,0.0,0.0,0.0,0.0,0.0,0.0,0.0,0.0,0.0,0.0,0.0,0.0,0.0,0.0,0.0,0.0,0.0,0.0,0.0,0.0,0.0,0.0,0.0,0.0,0.0,0.0,0.0,0.0,0.0,0.0,0.0,0.0,0.0,0.0,0.0,0.0,0.0,0.0,0.0,0.0,0.0,0.0,-1.3989,-1.4027,-1.432,-1.4174,-1.3572,-1.3725,-1.3848,0.0,0.0,0.0,0.0,0.0,0.0,0.0,0.0,0.0,0.0,0.0,0.0,0.0,0.0,0.0,0.0,0.0,0.0,0.0,0.0,0.0,0.0,0.0,0.0,0.0,0.0,0.0,0.0,0.0,0.0,0.0,0.0,0.0,0.0,0.0,0.0,0.0,0.0,0.0,0.0,0.0,0.0,0.0,0.0,0.0,0.0,0.0,0.0,0.0,0.0,0.0,0.0,0.0,0.0,0.0,0.0,0.0,0.0,0.0,0.0,0.0,0.0,0.0,0.0,0.0,0.0,0.0,0.0,0.0,0.0,0.0,0.0,0.0,0.0,0.0,0.0,0.0,0.0,0.0,0.0,0.0,0.0,0.0,0.0,0.0,0.0,0.0,0.0,0.0,0.0,0.0,0.0,0.0,0.0,0.0,0.0,0.0,0.0,0.0,0.0,0.0,0.0,0.0,0.0,0.0,0.0,0.0,0.0,0.0,-1.4364,-1.4608,-1.4703,-1.4607,-1.4791,-1.4969,0.0,0.0,0.0,0.0,0.0,0.0,0.0,0.0,0.0,0.0,0.0,0.0,0.0,0.0,0.0,0.0,0.0,0.0,0.0,0.0,0.0,0.0,0.0,0.0,0.0,0.0,0.0,0.0,0.0,0.0,0.0,0.0,0.0,0.0,0.0,0.0,0.0,0.0,0.0,0.0,0.0,0.0,0.0,0.0,0.0,0.0,0.0,0.0,0.0,0.0,0.0,0.0,0.0,0.0,0.0,0.0,0.0,0.0,0.0,0.0,0.0,0.0,0.0,0.0,0.0,0.0,0.0,0.0,0.0,0.0,0.0,0.0,0.0,0.0,0.0,0.0,0.0,0.0,0.0,0.0,0.0,0.0,0.0,0.0,0.0,0.0,0.0,0.0,0.0,0.0,0.0,0.0,0.0,0.0,0.0,0.0,0.0,0.0,0.0,0.0,0.0,0.0,0.0,0.0,0.0,0.0,0.0,0.0,0.0,-1.5526,-1.5575,-1.5662,-1.5812,-1.5827,-1.5961,-1.6144,0.0,0.0,0.0,0.0,0.0,0.0,0.0,0.0,0.0,0.0,0.0,0.0,0.0,0.0,0.0,0.0,0.0,0.0,0.0,0.0,0.0,0.0,0.0,0.0,0.0,0.0,0.0,0.0,0.0,0.0,0.0,0.0,0.0,0.0,0.0,0.0,0.0,0.0,0.0,0.0,0.0,0.0,0.0,0.0,0.0,0.0,0.0,0.0,0.0,0.0,0.0,0.0,0.0,0.0,0.0,0.0,0.0,0.0,0.0,0.0,0.0,0.0,0.0,0.0,0.0,0.0,0.0,0.0,0.0,0.0,0.0,0.0,0.0,0.0,0.0,0.0,0.0,0.0,0.0,0.0,0.0,0.0,0.0,0.0,0.0,0.0,0.0,0.0,0.0,0.0,0.0,0.0,0.0,0.0,0.0,0.0,0.0,0.0,0.0,0.0,0.0,0.0,0.0,0.0,0.0,0.0,0.0,0.0,-1.7413,-1.7287,-1.7266,-1.7305,-1.7096,-1.6919,0.0,0.0,0.0,0.0,0.0,0.0,0.0,0.0,0.0,0.0,0.0,0.0,0.0,0.0,0.0,0.0,0.0,0.0,0.0,0.0,0.0,0.0,0.0,0.0,0.0,0.0,0.0,0.0,0.0,0.0,0.0,0.0,0.0,0.0,0.0,0.0,0.0,0.0,0.0,0.0,0.0,0.0,0.0,0.0,0.0,0.0,0.0,0.0,0.0,0.0,0.0,0.0,0.0,0.0,0.0,0.0,0.0,0.0,0.0,0.0,0.0,0.0,0.0,0.0,0.0,0.0,0.0,0.0,0.0,0.0,0.0,0.0,0.0,0.0,0.0,0.0,0.0,0.0,0.0,0.0,0.0,0.0,0.0,0.0,0.0,0.0,0.0,0.0,0.0,0.0,0.0,0.0,0.0,0.0,0.0,0.0,0.0,0.0,0.0,0.0,0.0,0.0,0.0,0.0,0.0,0.0,0.0,0.0,0.0,-1.8953,-2.04,-2.0727,-1.9814,-2.0251,-1.9931,0.0,0.0,0.0,0.0,0.0,0.0,0.0,0.0,0.0,0.0,0.0,0.0,0.0,0.0,0.0,0.0,0.0,0.0,0.0,0.0,0.0,0.0,0.0,0.0,0.0,0.0,0.0,0.0,0.0,0.0,0.0,0.0,0.0,0.0,0.0,0.0,0.0,0.0,0.0,0.0,0.0,0.0,0.0,0.0,0.0,0.0,0.0,0.0,0.0,0.0,0.0,0.0,0.0,0.0,0.0,0.0,0.0,0.0,0.0,0.0,0.0,0.0,0.0,0.0,0.0,0.0,0.0,0.0,0.0,0.0,0.0,0.0,0.0,0.0,0.0,0.0,0.0,0.0,0.0,0.0,0.0,0.0,0.0,0.0,0.0,0.0,0.0,0.0,0.0,0.0,0.0,0.0,0.0,0.0,0.0,0.0,0.0,0.0,0.0,0.0,0.0,0.0,0.0,0.0,0.0,0.0,0.0,0.0,-1.8735,-2.1106,-2.3701,-2.471,-2.3853,-2.269,-2.1456,0.0,0.0,0.0,0.0,0.0,0.0,0.0,0.0,0.0,0.0,0.0,0.0,0.0,0.0,0.0,0.0,0.0,0.0,0.0,0.0,0.0,0.0,0.0,0.0,0.0,0.0,0.0,0.0,0.0,0.0,0.0,0.0,0.0,0.0,0.0,0.0,0.0,0.0,0.0,0.0,0.0,0.0,0.0,0.0,0.0,0.0,0.0,0.0,0.0,0.0,0.0,0.0,0.0,0.0,0.0,0.0,0.0,0.0,0.0,0.0,0.0,0.0,0.0,0.0,0.0,0.0,0.0,0.0,0.0,0.0,0.0,0.0,0.0,0.0,0.0,0.0,0.0,0.0,0.0,0.0,0.0,0.0,0.0,0.0,0.0,0.0,0.0,0.0,0.0,0.0,0.0,0.0,0.0,0.0,0.0,0.0,0.0,0.0,0.0,0.0,0.0,0.0,0.0,0.0,0.0,0.0,0.0,0.0,-2.0492,-2.3168,-2.6565,-2.8315,-2.7991,-2.4703,-2.2291,0.0,0.0,0.0,0.0,0.0,0.0,0.0,0.0,0.0,0.0,0.0,0.0,0.0,0.0,0.0,0.0,0.0,0.0,0.0,0.0,0.0,0.0,0.0,0.0,0.0,0.0,0.0,0.0,0.0,0.0,0.0,0.0,0.0,0.0,0.0,0.0,0.0,0.0,0.0,0.0,0.0,0.0,0.0,0.0,0.0,0.0,0.0,0.0,0.0,0.0,0.0,0.0,0.0,0.0,0.0,0.0,0.0,0.0,0.0,0.0,0.0,0.0,0.0,0.0,0.0,0.0,0.0,0.0,0.0,0.0,0.0,0.0,0.0,0.0,0.0,0.0,0.0,0.0,0.0,0.0,0.0,0.0,0.0,0.0,0.0,0.0,0.0,0.0,0.0,0.0,0.0,0.0,0.0,0.0,0.0,0.0,0.0,0.0,0.0,0.0,0.0,0.0,0.0,0.0,0.0,0.0,0.0,0.0,-2.1196,-2.3021,-2.6565,-2.8315,-2.8082,-2.6752,-2.4727,0.0,0.0,0.0,0.0,0.0,0.0,0.0,0.0,0.0,0.0,0.0,0.0,0.0,0.0,0.0,0.0,0.0,0.0,0.0,0.0,0.0,0.0,0.0,0.0,0.0,0.0,0.0,0.0,0.0,0.0,0.0,0.0,0.0,0.0,0.0,0.0,0.0,0.0,0.0,0.0,0.0,0.0,0.0,0.0,0.0,0.0,0.0,0.0,-2.1067,0.0,0.0,0.0,0.0,0.0,0.0,0.0,0.0,0.0,0.0,0.0,0.0,0.0,0.0,0.0,0.0,0.0,0.0,0.0,0.0,0.0,0.0,0.0,0.0,0.0,0.0,0.0,0.0,0.0,0.0,0.0,0.0,0.0,0.0,0.0,0.0,0.0,0.0,0.0,0.0,0.0,0.0,0.0,0.0,0.0,0.0,0.0,0.0,0.0,0.0,0.0,0.0,0.0,0.0,0.0,0.0,0.0,0.0,0.0,-2.2416,-2.4437,-2.7616,-2.9201,-2.903,-2.7945,-2.5849,0.0,0.0,0.0,0.0,0.0,0.0,0.0,0.0,0.0,0.0,0.0,0.0,0.0,0.0,0.0,0.0,0.0,0.0,0.0,0.0,0.0,0.0,0.0,0.0,0.0,0.0,0.0,0.0,0.0,0.0,0.0,0.0,0.0,0.0,0.0,0.0,0.0,0.0,0.0,0.0,0.0,0.0,0.0,0.0,0.0,0.0,0.0,0.0,0.0,0.0,0.0,0.0,0.0,0.0,0.0,0.0,0.0,0.0,0.0,0.0,0.0,0.0,0.0,0.0,0.0,0.0,0.0,0.0,0.0,0.0,0.0,0.0,0.0,0.0,0.0,0.0,0.0,0.0,0.0,0.0,0.0,0.0,0.0,0.0,0.0,0.0,0.0,0.0,0.0,0.0,0.0,0.0,0.0,0.0,0.0,0.0,0.0,0.0,0.0,0.0,0.0,0.0,0.0,0.0,0.0,0.0,0.0,-2.0678,-2.3687,-2.5993,-2.8842,-3.0234,-3.0078,-2.8516,-2.6269,-2.3315,0.0,0.0,0.0,0.0,0.0,0.0,0.0,0.0,0.0,0.0,0.0,0.0,0.0,0.0,0.0,0.0,0.0,0.0,0.0,0.0,0.0,0.0,0.0,0.0,0.0,0.0,0.0,0.0,0.0,0.0,0.0,0.0,0.0,0.0,0.0,0.0,0.0,0.0,-2.0947,-2.0976,0.0,0.0,0.0,0.0,0.0,0.0,0.0,0.0,-2.2318,0.0,0.0,0.0,0.0,0.0,0.0,0.0,0.0,0.0,0.0,0.0,0.0,0.0,0.0,0.0,0.0,0.0,0.0,0.0,0.0,0.0,0.0,0.0,0.0,0.0,0.0,0.0,0.0,0.0,0.0,0.0,0.0,0.0,0.0,0.0,0.0,0.0,0.0,0.0,0.0,0.0,0.0,0.0,0.0,0.0,0.0,0.0,0.0,0.0,0.0,0.0,0.0,0.0,0.0,0.0,0.0,-1.7356,-2.1435,-2.4239,-2.567,-2.903,-3.043,-2.9668,-2.8432,-2.6406,-2.3809,0.0,0.0,0.0,0.0,0.0,0.0,0.0,0.0,0.0,0.0,0.0,0.0,0.0,0.0,0.0,0.0,0.0,0.0,0.0,0.0,0.0,0.0,0.0,0.0,0.0,0.0,0.0,0.0,0.0,0.0,0.0,0.0,0.0,0.0,0.0,0.0,0.0,0.0,0.0,-2.2614,-2.2606,0.0,0.0,0.0,0.0,0.0,0.0,0.0,0.0,-2.2886,0.0,0.0,0.0,0.0,0.0,0.0,0.0,0.0,0.0,0.0,0.0,0.0,0.0,0.0,0.0,0.0,0.0,0.0,0.0,0.0,0.0,0.0,0.0,0.0,0.0,0.0,0.0,0.0,0.0,0.0,0.0,0.0,0.0,0.0,0.0,0.0,0.0,0.0,0.0,0.0,0.0,0.0,0.0,0.0,0.0,0.0,0.0,0.0,0.0,0.0,0.0,0.0,0.0,0.0,0.0,-1.8632,-2.2094,-2.4824,-2.6742,-2.9222,-3.0215,-2.957,-2.8105,-2.6211,0.0,0.0,0.0,0.0,0.0,0.0,0.0,0.0,0.0,0.0,0.0,0.0,0.0,0.0,0.0,0.0,0.0,0.0,0.0,0.0,0.0,0.0,0.0,0.0,0.0,0.0,0.0,0.0,0.0,0.0,0.0,0.0,0.0,0.0,0.0,0.0,0.0,0.0,0.0,0.0,-2.3616,-2.3785,-2.3785,0.0,0.0,0.0,0.0,0.0,0.0,-2.4362,-2.4366,0.0,0.0,0.0,0.0,0.0,0.0,0.0,0.0,0.0,0.0,0.0,0.0,0.0,0.0,0.0,0.0,0.0,0.0,0.0,0.0,0.0,0.0,0.0,0.0,0.0,0.0,0.0,0.0,0.0,0.0,0.0,0.0,0.0,0.0,0.0,0.0,0.0,0.0,0.0,0.0,0.0,0.0,0.0,0.0,0.0,0.0,0.0,0.0,0.0,0.0,0.0,0.0,0.0,0.0,0.0,-1.9695,-2.2646,-2.532,-2.7621,-2.9278,-2.9863,-2.9434,-2.7773,-2.5918,0.0,0.0,0.0,0.0,0.0,0.0,0.0,0.0,0.0,0.0,0.0,0.0,0.0,0.0,0.0,0.0,0.0,0.0,0.0,0.0,0.0,0.0,0.0,0.0,0.0,0.0,0.0,0.0,0.0,0.0,0.0,0.0,0.0,0.0,0.0,0.0,0.0,0.0,0.0,0.0,0.0,-2.4757,-2.4819,-2.4878,0.0,0.0,0.0,0.0,-2.5417,-2.6004,0.0,0.0,0.0,0.0,0.0,0.0,0.0,0.0,0.0,0.0,0.0,0.0,0.0,0.0,0.0,0.0,0.0,0.0,0.0,0.0,0.0,0.0,0.0,0.0,0.0,0.0,0.0,0.0,0.0,0.0,0.0,0.0,0.0,0.0,0.0,0.0,0.0,0.0,0.0,0.0,0.0,0.0,0.0,0.0,0.0,0.0,0.0,0.0,0.0,0.0,0.0,0.0,0.0,0.0,0.0,0.0,-1.9724,-2.2991,-2.554,-2.7216,-2.8837,-2.9434,-2.8984,-2.7344,-2.5625,0.0,0.0,0.0,0.0,0.0,0.0,0.0,0.0,0.0,0.0,0.0,0.0,0.0,0.0,0.0,0.0,0.0,0.0,0.0,0.0,0.0,0.0,0.0,0.0,0.0,0.0,0.0,0.0,0.0,0.0,0.0,0.0,0.0,0.0,0.0,0.0,0.0,0.0,0.0,0.0,0.0,-2.5643,-2.5889,-2.613,-2.5898,0.0,0.0,-2.6224,-2.5854,-2.709,0.0,0.0,0.0,0.0,0.0,0.0,0.0,0.0,0.0,0.0,0.0,0.0,0.0,0.0,0.0,0.0,0.0,0.0,0.0,0.0,0.0,0.0,0.0,0.0,0.0,0.0,0.0,0.0,0.0,0.0,0.0,0.0,0.0,0.0,0.0,0.0,0.0,0.0,0.0,0.0,0.0,0.0,0.0,0.0,0.0,0.0,0.0,0.0,0.0,0.0,0.0,0.0,0.0,0.0,0.0,-1.8179,-2.0872,-2.351,-2.5947,-2.8117,-2.8826,-2.9004,-2.8574,-2.666,-2.4988,0.0,0.0,0.0,0.0,0.0,0.0,0.0,0.0,0.0,0.0,0.0,0.0,0.0,0.0,0.0,0.0,0.0,0.0,0.0,0.0,0.0,0.0,0.0,0.0,0.0,0.0,0.0,0.0,0.0,0.0,0.0,0.0,0.0,0.0,0.0,0.0,0.0,0.0,0.0,0.0,0.0,0.0,-2.6711,-2.7456,0.0,0.0,0.0,-2.8075,-2.7816,0.0,0.0,0.0,0.0,0.0,0.0,0.0,0.0,0.0,0.0,0.0,0.0,0.0,0.0,0.0,0.0,0.0,0.0,0.0,0.0,0.0,0.0,0.0,0.0,0.0,0.0,0.0,0.0,0.0,0.0,0.0,0.0,0.0,0.0,0.0,0.0,0.0,0.0,0.0,0.0,0.0,0.0,0.0,0.0,0.0,0.0,0.0,0.0,0.0,0.0,0.0,0.0,0.0,0.0,0.0,0.0,0.0,-2.186,-2.3932,-2.618,-2.8618,-2.8769,-2.8555,-2.8105,-2.6152,0.0,0.0,0.0,0.0,0.0,0.0,0.0,0.0,0.0,0.0,0.0,0.0,0.0,0.0,0.0,0.0,0.0,0.0,0.0,0.0,0.0,0.0,0.0,0.0,0.0,0.0,0.0,-1.9025,0.0,0.0,0.0,0.0,0.0,0.0,0.0,0.0,0.0,0.0,0.0,0.0,0.0,0.0,-2.7519,-2.7689,-2.8713,-2.9308,0.0,0.0,-2.9667,-2.9564,-2.9884,-2.969,0.0,0.0,0.0,0.0,0.0,0.0,0.0,0.0,0.0,0.0,0.0,0.0,0.0,0.0,0.0,0.0,0.0,0.0,0.0,0.0,0.0,0.0,0.0,0.0,0.0,0.0,0.0,0.0,0.0,0.0,0.0,0.0,0.0,0.0,0.0,0.0,0.0,0.0,0.0,0.0,0.0,0.0,0.0,0.0,0.0,0.0,0.0,0.0,0.0,0.0,0.0,0.0,0.0,0.0,0.0,-2.2208,-2.4153,-2.6142,-2.8242,-2.834,-2.8125,-2.7748,-2.6045,-2.4453,0.0,0.0,0.0,0.0,0.0,0.0,0.0,0.0,0.0,0.0,0.0,0.0,0.0,0.0,0.0,0.0,0.0,0.0,0.0,0.0,0.0,0.0,0.0,0.0,0.0,0.0,0.0,0.0,0.0,0.0,0.0,0.0,0.0,0.0,0.0,0.0,0.0,0.0,0.0,0.0,0.0,-2.8164,-2.8963,-2.9722,-3.0388,0.0,0.0,-3.0294,-3.0478,-3.0959,-3.0557,-2.8411,0.0,0.0,0.0,0.0,0.0,0.0,0.0,0.0,0.0,0.0,0.0,0.0,0.0,0.0,0.0,0.0,0.0,0.0,0.0,0.0,0.0,0.0,0.0,0.0,0.0,0.0,0.0,0.0,0.0,0.0,0.0,0.0,0.0,0.0,0.0,0.0,0.0,0.0,0.0,0.0,0.0,0.0,0.0,0.0,0.0,0.0,0.0,0.0,0.0,0.0,0.0,0.0,0.0,-1.9472,-2.2113,-2.3806,-2.5586,-2.7402,-2.75,-2.7305,-2.6894,-2.5243,-2.3809,0.0,0.0,0.0,0.0,0.0,0.0,0.0,0.0,0.0,0.0,0.0,0.0,0.0,0.0,0.0,0.0,0.0,0.0,0.0,0.0,0.0,0.0,0.0,0.0,0.0,0.0,0.0,0.0,-1.948,-1.9459,-1.9312,0.0,0.0,0.0,0.0,0.0,0.0,0.0,0.0,0.0,0.0,-2.8723,-2.9712,-3.0767,0.0,0.0,-3.183,-3.1805,-3.1185,-3.1105,-3.0579,-2.9037,-2.7503,0.0,0.0,0.0,0.0,0.0,0.0,0.0,0.0,0.0,0.0,0.0,0.0,0.0,0.0,0.0,0.0,0.0,0.0,0.0,0.0,0.0,0.0,0.0,0.0,0.0,0.0,0.0,0.0,0.0,0.0,0.0,0.0,0.0,0.0,0.0,0.0,0.0,0.0,0.0,0.0,0.0,0.0,0.0,0.0,0.0,0.0,0.0,0.0,0.0,0.0,0.0,0.0,-1.959,-2.2102,-2.3518,-2.5137,-2.6973,-2.7012,-2.6758,-2.6172,-2.4629,-2.334,0.0,0.0,0.0,0.0,0.0,0.0,0.0,0.0,0.0,0.0,0.0,0.0,0.0,0.0,0.0,0.0,0.0,0.0,0.0,0.0,0.0,0.0,0.0,0.0,0.0,0.0,0.0,0.0,-2.0177,-2.0085,-1.9582,0.0,0.0,0.0,0.0,0.0,0.0,0.0,0.0,0.0,0.0,-2.9174,-3.0248,-3.1386,-3.2081,-3.2173,-3.2458,-3.2329,-3.1544,-3.0992,-3.0279,-2.9237,0.0,0.0,0.0,0.0,0.0,0.0,0.0,0.0,0.0,0.0,0.0,0.0,0.0,0.0,0.0,0.0,0.0,0.0,0.0,0.0,0.0,0.0,0.0,0.0,0.0,0.0,0.0,0.0,0.0,0.0,0.0,0.0,0.0,0.0,0.0,0.0,0.0,0.0,0.0,0.0,0.0,0.0,0.0,0.0,0.0,0.0,0.0,0.0,0.0,0.0,0.0,0.0,0.0,-1.9365,-2.2446,-2.3364,-2.4824,-2.6894,-2.6992,-2.6562,-2.5693,-2.4473,-2.3184,-2.1914,0.0,0.0,0.0,0.0,0.0,0.0,0.0,0.0,0.0,0.0,0.0,0.0,0.0,0.0,0.0,0.0,0.0,0.0,0.0,0.0,0.0,0.0,0.0,0.0,0.0,0.0,-2.049,-2.1067,-2.1198,0.0,0.0,0.0,0.0,0.0,0.0,0.0,0.0,0.0,0.0,-2.7943,-2.9365,-3.0683,-3.1341,-3.1955,-3.272,-3.2077,-3.1513,-3.1409,-3.067,-2.9817,0.0,0.0,0.0,0.0,0.0,0.0,0.0,0.0,0.0,0.0,0.0,0.0,0.0,0.0,0.0,0.0,0.0,0.0,0.0,0.0,0.0,0.0,0.0,0.0,0.0,0.0,0.0,0.0,0.0,0.0,0.0,0.0,0.0,0.0,0.0,0.0,0.0,0.0,0.0,0.0,-1.4186,-1.4186,0.0,0.0,0.0,0.0,0.0,0.0,0.0,0.0,0.0,0.0,0.0,0.0,-1.9447,-2.157,-2.2495,-2.3691,-2.5234,-2.5293,-2.5156,-2.4844,-2.3613,-2.2187,-2.0625,0.0,0.0,0.0,0.0,0.0,0.0,0.0,0.0,0.0,0.0,0.0,0.0,0.0,0.0,0.0,0.0,0.0,0.0,0.0,0.0,0.0,0.0,0.0,0.0,0.0,-2.0754,0.0,0.0,0.0,0.0,0.0,0.0,0.0,0.0,0.0,0.0,0.0,-2.6297,-2.6824,-2.8148,-2.9398,-3.0209,-3.0739,-3.1423,0.0,0.0,0.0,0.0,0.0,0.0,0.0,0.0,0.0,0.0,0.0,0.0,0.0,0.0,-2.8063,-2.6789,-2.654,-2.6598,-2.6656,0.0,0.0,0.0,0.0,0.0,0.0,0.0,0.0,0.0,0.0,0.0,0.0,0.0,0.0,0.0,0.0,-0.9671,0.0,0.0,0.0,0.0,0.0,0.0,0.0,0.0,-1.4509,-1.4843,-1.5124,-1.5124,-1.503,0.0,-1.4549,-1.4298,0.0,0.0,0.0,0.0,0.0,0.0,0.0,0.0,-1.9173,-2.09,-2.1926,-2.2961,-2.4058,-2.4442,-2.4492,-2.418,-2.2812,-2.1387,-1.9961,-1.9902,-1.9648,0.0,0.0,0.0,0.0,0.0,0.0,0.0,0.0,0.0,0.0,0.0,0.0,0.0,0.0,0.0,0.0,0.0,0.0,0.0,0.0,0.0,0.0,0.0,-2.162,0.0,0.0,0.0,0.0,0.0,0.0,0.0,0.0,0.0,-2.4854,-2.6091,-2.7214,-2.778,-2.8794,-2.9592,-2.996,0.0,0.0,0.0,0.0,0.0,0.0,0.0,-3.0949,-3.0897,-3.1148,-3.1433,-3.1724,-3.2083,-3.2103,-3.1411,0.0,0.0,-2.8868,-2.8441,-2.8471,-2.8529,-2.8501,-2.8589,-2.8766,-2.8825,-2.8913,0.0,0.0,0.0,0.0,0.0,0.0,0.0,0.0,-0.7896,-0.8211,0.0,0.0,0.0,0.0,0.0,0.0,0.0,0.0,0.0,0.0,-1.5578,-1.6005,-1.6321,-1.6335,-1.6286,-1.6321,-1.5952,-1.5658,-1.5337,-1.4511,0.0,0.0,0.0,0.0,0.0,0.0,-1.8464,-2.0412,-2.1614,-2.263,-2.3448,-2.4488,-2.4617,-2.3711,-2.2129,-2.082,-1.9961,-1.9941,-1.9514,-1.8695,-1.9082,0.0,0.0,0.0,0.0,0.0,0.0,0.0,0.0,0.0,0.0,0.0,0.0,0.0,0.0,0.0,0.0,0.0,0.0,0.0,0.0,-2.1885,0.0,0.0,0.0,0.0,0.0,0.0,0.0,0.0,0.0,0.0,-2.6589,-2.6754,-2.7464,-2.9191,0.0,0.0,0.0,0.0,-3.1135,-3.126,-3.1548,-3.1854,-3.1937,-3.2695,-3.3212,-3.3049,0.0,0.0,-3.3379,-3.3602,-3.3528,-3.2601,-3.2893,-3.2561,-3.0378,-2.9919,-2.9834,-2.9958,-2.9988,-3.008,-3.0382,-3.0472,-3.0504,-0.9103,0.0,0.0,0.0,0.0,-0.8072,-0.8241,-0.8561,-0.8627,-0.8744,-0.9084,-0.9607,0.0,0.0,0.0,0.0,0.0,0.0,-1.5337,-1.596,-1.6286,-1.6607,-1.6951,-1.6951,-1.6794,-1.658,-1.6286,-1.5992,-1.5698,-1.541,-1.5255,-1.5251,0.0,0.0,0.0,0.0,-1.849,-1.975,-2.0873,-2.1797,-2.2537,-2.3286,-2.3301,-2.2461,-2.1973,-2.1133,-1.9961,-2.0215,-2.0137,-1.957,-1.9375,0.0,0.0,0.0,0.0,0.0,0.0,0.0,0.0,0.0,0.0,0.0,0.0,0.0,0.0,0.0,0.0,0.0,0.0,0.0,-2.1957,-2.1765,-2.1885,0.0,0.0,0.0,0.0,0.0,0.0,0.0,0.0,0.0,-2.8998,-2.9489,-2.9476,0.0,0.0,-3.0211,-2.9762,-3.0271,-3.1099,-3.2298,0.0,0.0,0.0,-3.3747,-3.3725,-3.4085,-3.5239,-3.5971,-3.5485,-3.5912,-3.5876,-3.4679,-3.4656,-3.45,-3.3879,-3.2605,-3.1766,-3.1772,-3.1772,-3.1772,-3.1867,-3.2021,-3.2086,-1.0154,-0.9245,-0.8872,-0.8825,-0.8994,-0.8859,-0.8954,-0.9198,-0.9137,-0.9259,-0.9608,-1.0462,-1.1256,-1.1916,-1.2893,0.0,0.0,0.0,-1.5952,-1.667,-1.6673,-1.6927,-1.7353,-1.738,-1.7221,-1.7048,-1.6887,-1.6633,-1.6353,-1.6353,-1.6161,-1.5846,0.0,0.0,-1.6609,-1.7131,-1.7888,-1.8895,-2.0386,-2.1246,-2.148,-2.2348,-2.2476,-2.1831,-2.1668,-2.1146,-2.012,-2.0314,-2.0294,-1.9941,-1.9512,-1.9219,0.0,0.0,0.0,0.0,0.0,0.0,0.0,0.0,0.0,0.0,0.0,-2.1197,-2.183,0.0,0.0,0.0,-2.2077,-2.2197,-2.2197,-2.2101,0.0,0.0,0.0,0.0,0.0,0.0,0.0,-2.5897,-2.6452,-2.7707,-3.0364,-3.1269,-3.1367,-3.0648,-3.093,-3.1062,-3.0598,0.0,-3.198,-3.3207,-3.3477,-3.3956,-3.5167,-3.4995,-3.4845,-3.5218,-3.605,-3.649,-3.6048,-3.646,-3.6431,-3.5357,-3.5218,-3.5305,-3.5072,-3.4022,-3.3354,-3.3587,-3.3645,-3.3558,-3.3325,-3.3365,-3.3459,-1.109,-1.05,-0.9802,-0.9639,-0.9842,-0.9707,-0.9652,-0.9646,-0.9503,-0.9636,-1.0077,-1.181,-1.2723,-1.3049,-1.4888,0.0,0.0,-1.6152,-1.65,-1.7286,-1.6967,-1.7128,-1.7702,-1.7635,-1.7622,-1.7609,-1.7595,-1.7501,-1.7233,-1.7233,-1.7085,-1.6727,-1.613,-1.6081,-1.6529,-1.6612,-1.7001,-1.7889,-2.0063,-2.0965,-2.0666,-2.1762,-2.2092,-2.1585,-2.132,-2.0878,-2.0312,-2.0274,-2.014,-1.9884,-1.9492,-1.9062,-1.8617,0.0,0.0,0.0,0.0,0.0,0.0,0.0,0.0,0.0,0.0,0.0,0.0,0.0,0.0,0.0,-2.1909,0.0,-2.2197,-2.263,0.0,0.0,0.0,-2.3128,-2.3361,-2.3504,-2.4553,-2.7067,0.0,0.0,0.0,0.0,-3.304,-3.3264,-3.2782,-3.2313,-3.2062,-3.268,-3.3374,-3.3848,-3.4577,-3.5315,-3.5863,-3.6057,-3.6164,-3.6193,-3.6286,-3.6112,-3.5625,-3.5822,-3.5706,-3.4661,-3.4893,-3.5154,-3.4574,-3.4486,-3.4661,-3.5218,-3.5247,-3.5072,-3.4457,-3.4312,-3.4317,-1.1511,-1.1145,-1.0744,-1.0419,-1.0161,-0.995,-1.0012,-1.0107,-0.9958,-0.9808,-0.9724,-1.0269,-1.1611,-1.3646,-1.6228,-1.7489,-1.7622,-1.7782,-1.7969,-1.817,-1.8103,-1.8143,-1.8263,-1.805,-1.7943,-1.7862,-1.7689,-1.7542,-1.7475,-1.7475,-1.738,-1.7099,-1.6935,-1.6869,-1.696,-1.7148,-1.747,-1.7964,-1.9805,-2.1271,-2.2308,-2.2076,-2.1722,-2.1316,-2.093,-2.0512,-2.0,-1.9831,-1.9735,-1.9639,-1.909,-1.8695,-1.8598,-1.8242,0.0,0.0,0.0,0.0,0.0,0.0,0.0,0.0,0.0,-2.1273,-2.195,0.0,-2.1716,0.0,-2.2125,-2.2197,-2.2197,-2.2318,0.0,0.0,-2.3553,-2.3938,-2.4685,-2.5094,-2.5952,-2.7687,-2.8523,-2.979,-3.2055,-3.2825,-3.3379,-3.3979,-3.3612,-3.3032,-3.25,-3.2999,-3.3607,-3.424,-3.4882,-3.5555,-3.6041,-3.628,-3.6286,-3.6286,-3.6286,-3.6083,-3.5508,-3.5508,-3.5328,-3.4603,-3.4516,-3.4748,-3.5072,-3.5189,-3.5189,-3.5334,-3.498,-3.4603,-3.4428,-3.453,-3.4635,-1.1619,-1.1274,-1.1111,-1.0826,-1.0466,-1.0385,-1.0358,-1.0365,-1.0283,-1.0183,-1.0203,-1.0919,-1.2272,-1.4166,-1.6361,-1.741,-1.7525,-1.8187,-1.849,-1.849,-1.849,-1.849,-1.8477,-1.8129,-1.7995,-1.7982,-1.7729,-1.7582,-1.7582,-1.7582,-1.7502,-1.7407,-1.7393,-1.7365,-1.7319,-1.7374,-1.7438,-1.7654,-1.933,-2.0934,-2.2325,-2.1799,-2.1352,-2.1066,-2.0548,-2.0042,-1.9521,-1.9392,-1.9298,-1.9313,-1.8788,-1.8527,-1.8598,-1.8208,-1.8008,0.0,0.0,0.0,0.0,0.0,0.0,0.0,0.0,0.0,0.0,0.0,-2.1981,0.0,0.0,0.0,-2.2871,-2.2895,-2.3135,-2.3746,-2.3794,-2.4097,-2.4832,-2.5365,-2.6424,-2.8395,-2.9198,-3.0507,-3.2766,-3.3237,-3.3589,-3.4201,-3.3975,-3.3661,-3.3467,-3.3939,-3.4462,-3.4806,-3.516,-3.5392,-3.5473,-3.5706,-3.5793,-3.5532,-3.5439,-3.5328,-3.5009,-3.4985,-3.4806,-3.4486,-3.4366,-3.4516,-3.4864,-3.4951,-3.4951,-3.4898,-3.4428,-3.4138,-3.4341,-3.4496,-3.4597,-1.1552,-1.1234,-1.1145,-1.0975,-1.0717,-1.0717,-1.0643,-1.0521,-1.05,-1.0605,-1.0897,-1.2384,-1.3508,-1.4463,-1.5886,-1.6639,-1.692,-1.7904,-1.8486,-1.8611,-1.8611,-1.8597,-1.8597,-1.8209,-1.8049,-1.8035,-1.7742,-1.7582,-1.7582,-1.7582,-1.7582,-1.7582,-1.7582,-1.7582,-1.7569,-1.738,-1.7311,-1.7452,-1.885,-2.0216,-2.1562,-2.1239,-2.0924,-2.0792,-2.0218,-1.9629,-1.9011,-1.8918,-1.8901,-1.8837,-1.8488,-1.8363,-1.8484,-1.8169,-1.8008,0.0,-1.8313,0.0,0.0,0.0,0.0,0.0,0.0,0.0,0.0,-2.1981,-2.251,-2.3071,-2.3087,-2.328,-2.377,-2.3794,-2.3842,-2.389,-2.389,-2.4073,-2.4554,-2.5105,-2.6406,-2.8926,-2.9741,-3.1003,-3.3114,-3.3526,-3.3602,-3.3853,-3.3743,-3.3729,-3.41,-3.4661,-3.5101,-3.5189,-3.5247,-3.5009,-3.469,-3.4922,-3.5101,-3.4574,-3.4399,-3.4341,-3.4457,-3.4283,-3.4196,-3.4341,-3.4192,-3.4167,-3.4254,-3.4283,-3.4254,-3.4138,-3.3848,-3.3881,-3.4254,-3.4312,-3.4312,-1.1463,-1.1158,-1.1036,-1.0887,-1.0717,-1.0717,-1.0704,-1.067,-1.0541,-1.0605,-1.0912,-1.2457,-1.3304,-1.3733,-1.5251,-1.6465,-1.7382,-1.7566,-1.825,-1.9256,-1.9256,-1.9199,-1.9172,-1.8651,-1.841,-1.837,-1.7849,-1.7582,-1.7582,-1.7582,-1.7582,-1.7582,-1.7582,-1.7582,0.0,0.0,0.0,0.0,-1.897,-1.9698,-2.0971,-2.0699,-2.0451,-2.0328,-2.0053,0.0,-1.8781,-1.8582,-1.8378,-1.8039,-1.7907,0.0,0.0,0.0,0.0,0.0,0.0,0.0,0.0,0.0,0.0,0.0,-2.1836,-2.2385,-2.2101,-2.2534,-2.3063,-2.3601,-2.3649,-2.3697,-2.3794,-2.3794,-2.3962,-2.4314,-2.4386,-2.4578,-2.5083,-2.5777,-2.6839,-2.8377,-2.9717,-3.1131,-3.2523,-3.2976,-3.3049,-3.3082,-3.2687,-3.2499,-3.2695,-3.3781,-3.437,-3.3997,-3.4225,-3.4545,-3.4428,-3.4457,-3.4486,-3.437,-3.3997,-3.3848,-3.4167,-3.3499,-3.3354,-3.4109,-3.3554,-3.3093,-3.3529,-3.3678,-3.3532,-3.3006,-3.3587,-3.4283,-3.437,-3.3993,-3.3889,-1.126,0.0,-1.0975,-1.0793,0.0,0.0,-1.0677,-1.0602,-1.0527,-1.05,-1.0482,-1.1408,-1.1907,-1.2135,-1.3742,-1.5191,-1.6436,-1.715,-1.8169,-1.9372,-1.943,-1.943,-1.9403,-1.8771,-1.849,-1.8464,-1.7876,-1.7582,-1.7582,-1.7582,-1.7582,-1.7582,-1.7582,-1.7582,-1.7582,-1.7501,-1.768,-1.8184,-1.876,-1.9382,-2.0068,-2.0504,-2.0623,-2.0371,0.0,0.0,0.0,0.0,0.0,0.0,0.0,0.0,0.0,0.0,0.0,-1.7852,-1.8144,-1.8428,-1.8764,-1.9671,-2.0531,-2.1232,-2.2488,-2.3191,-2.2991,-2.3264,-2.3592,-2.4097,-2.4145,-2.4242,-2.4506,-2.429,-2.4338,-2.4819,-2.464,-2.4723,-2.5263,-2.586,-2.6671,-2.7719,-2.876,-2.9934,-3.1391,-3.1623,-3.1859,-3.2227,-3.2065,-3.1821,-3.1814,-3.2667,-3.314,-3.2658,-3.3354,-3.3703,-3.3151,-3.3296,-3.3499,-3.3412,-3.3209,-3.3151,-3.3412,-3.2948,-3.2713,-3.3325,-3.2887,-3.2658,-3.289,-3.3006,-3.289,-3.2629,-3.2774,-3.3122,-3.3383,-3.347,-3.3623,-1.1077,-1.088,-1.0847,-1.0833,-1.0717,-1.0717,-1.0616,-1.046,0.0,0.0,0.0,-1.0398,-1.0571,-1.0783,-1.2222,-1.3788,-1.5335,-1.6594,-1.7994,-1.9372,-1.943,-1.9403,-1.9265,-1.8744,-1.8464,-1.8384,-1.7849,-1.7582,-1.7582,-1.7582,-1.7582,-1.7582,-1.7582,-1.7582,-1.7555,-1.73,-1.7125,-1.715,-1.8379,-1.9115,-1.9194,-2.0407,-2.0948,-2.0546,-2.0278,-1.9674,-1.8852,-1.8504,-1.8193,-1.7877,-1.7577,-1.7495,-1.7653,-1.7732,-1.7797,-1.7831,-1.8061,-1.8428,-1.8977,-1.9835,-2.0914,-2.2138,-2.32,-2.3842,-2.3914,-2.3938,-2.4121,-2.4568,-2.465,-2.4843,-2.5276,-2.4939,-2.4843,-2.5276,-2.4915,-2.4808,-2.5276,-2.5685,-2.6261,-2.7001,-2.7652,-2.8472,-2.9839,-3.0215,-3.0513,-3.1114,-3.1237,-3.1225,-3.1051,-3.1613,-3.2121,-3.2017,-3.2745,-3.2919,-3.2135,-3.2191,-3.2452,-3.2597,-3.2423,-3.2336,-3.2423,-3.2307,-3.2249,-3.2568,-3.2396,-3.2222,-3.2278,-3.2307,-3.228,-3.2162,-3.193,-3.1816,-3.2251,-3.2745,-3.3155,-1.1077,-1.0867,-1.0739,-1.0738,-1.0717,-1.0717,-1.0561,-1.0317,-1.031,-1.0474,-1.0693,-1.0749,-1.0866,-1.1039,-1.151,-1.2943,-1.5137,-1.5639,-1.7114,0.0,-1.943,-1.9225,-1.8971,-1.8651,-1.8357,-1.8035,-1.7756,-1.7582,-1.7582,-1.7582,-1.7582,-1.7582,-1.7582,-1.7582,-1.7542,-1.7048,-1.6767,-1.6804,-1.7999,-1.8718,-1.8941,-2.032,-2.0908,-2.075,-2.0893,-2.0393,-1.9274,-1.9164,-1.8797,-1.8119,-1.8156,-1.8229,-1.8266,-1.8126,-1.8097,-1.8184,-1.7962,-1.8158,-1.8944,-1.9704,-2.1114,-2.3257,-2.3703,-2.3953,-2.4362,-2.44,-2.4626,-2.5096,-2.518,-2.5228,-2.53,-2.5228,-2.5204,-2.53,-2.5252,-2.5228,-2.53,-2.5372,-2.5692,-2.6417,-2.7052,-2.7662,-2.8507,-2.9181,-2.9583,-2.9794,-2.997,-2.9932,-3.0117,-3.0831,-3.1685,-3.2188,-3.2513,-3.2571,-3.2191,-3.2365,-3.2396,-3.2481,-3.1959,-3.1816,-3.228,-3.1613,-3.138,-3.228,-3.1642,-3.1206,-3.1495,-3.1611,-3.1467,-3.1177,-3.1555,-3.2046,-3.1758,-3.1787,-3.2021,-1.088,-1.0819,-1.0751,-1.0717,-1.0711,-1.0629,-1.048,-1.0276,-1.0188,-1.0169,-1.028,-1.0273,-1.03,-1.0422,-1.0721,-1.1946,-1.3825,-1.4665,-1.6272,-1.8331,-1.8897,-1.9052,-1.8905,-1.8624,-1.833,-1.7982,-1.7729,-1.7582,-1.7582,-1.7582,-1.7582,-1.7582,-1.7582,-1.7502,-1.738,-1.6927,-1.6633,-1.6522,-1.7945,-1.8707,-1.8894,-2.0497,-2.122,-2.0996,-2.1065,-2.0649,-1.9677,-1.9421,-1.9036,-1.8429,-1.8303,-1.8175,-1.7934,-1.7929,-1.7885,-1.771,-1.7624,-1.775,-1.8158,-1.9805,-2.1666,-2.3637,-2.4059,-2.4386,-2.4915,-2.4939,-2.5059,-2.5276,-2.5324,-2.5324,-2.5324,-2.5324,-2.5324,-2.5324,-2.5324,-2.5324,-2.5324,-2.5324,-2.5406,-2.5746,-2.6047,-2.6511,-2.7216,-2.7592,-2.8199,-2.8768,-2.8977,-2.9089,-2.9247,-2.9722,-3.0378,-3.1161,-3.1666,-3.1787,-3.1555,-3.1467,-3.1467,-3.1467,-3.1206,-3.1148,-3.1409,-3.0888,-3.0946,-3.1293,-3.0946,-3.0742,-3.1003,-3.1003,-3.0858,-3.0801,-3.0945,-3.1264,-3.1061,-3.1003,-3.118,-1.0751,-1.0717,-1.0717,-1.0717,-1.0704,-1.0555,-1.0412,-1.027,-1.012,-0.9964,-0.9829,-0.9822,-0.9822,-0.9822,-1.0126,-1.114,-1.268,-1.4074,-1.5646,-1.7276,-1.8383,-1.8795,-1.8661,-1.849,-1.8237,-1.7889,-1.7689,-1.7582,-1.7582,-1.7582,-1.7582,-1.7582,-1.7582,-1.7435,-1.7206,-1.686,-1.6567,-1.6419,-1.7943,-1.8796,-1.8842,-2.0727,-2.1566,-2.1291,-2.1255,-2.0924,-2.0228,-1.9787,-1.9384,-1.8999,-1.8614,-1.8173,-1.7807,-1.7842,-1.7727,-1.7406,-1.7379,-1.7632,-1.8061,-2.0028,-2.1936,-2.3427,-2.3953,-2.441,-2.4891,-2.5059,-2.518,-2.53,-2.5324,-2.5324,-2.5324,-2.5324,-2.5324,-2.5324,-2.5324,-2.5324,-2.5324,-2.5324,-2.5324,-2.5324,-2.5324,-2.5571,-2.6,-2.6311,-2.696,-2.8026,-2.8266,-2.839,-2.8648,-2.8871,-2.9314,-3.0107,-3.085,-3.1119,-3.0685,-3.0656,-3.0685,-3.0598,-3.0627,-3.0685,-3.0685,-3.0656,-3.0627,-3.0685,-3.0656,-3.0627,-3.0627,-3.0627,-3.0627,-3.0627,-3.0714,-3.0685,-3.0685,-3.0656,-3.0744,-1.0846,-1.0724,-1.0717,-1.0717,-1.0697,-1.0555,-1.0412,-1.0263,-1.0183,-0.9964,-0.9829,-0.9822,-0.9815,-0.9822,-1.0186,-1.102,-1.232,-1.4163,-1.5525,-1.669,-1.8166,-1.8582,-1.8129,-1.8049,-1.7929,-1.7662,-1.7595,-1.7582,-1.7582,-1.7582,-1.7582,-1.7582,-1.7582,-1.7487,-1.7206,-1.686,-1.6567,-1.6321,-1.7943,-1.8796,-1.8934,-2.0727,-2.1668,-2.1632,-2.1632,-2.1431,-2.0961,-2.0613,-2.0228,-1.9802,-1.9402,-1.9017,-1.8614,-1.8265,-1.799,-1.7763,-1.7425,-1.7833,-1.9276,-2.0357,-2.1504,-2.2645,-2.3038,-2.3448,-2.3953,-2.4362,-2.4795,-2.518,-2.5324,-2.5324,-2.5324,-2.5324,-2.53,-2.5228,-2.53,-2.5324,-2.5276,-2.5324,-2.5324,-2.5324,-2.5324,-2.5335,-2.5511,-2.6,-2.6688,-2.7338,-2.7537,-2.7776,-2.833,-2.8615,-2.9062,-2.9898,-3.0472,-3.0684,-3.0598,-3.0598,-3.0598,-3.0598,-3.0598,-3.0598,-3.0598,-3.0598,-3.0598,-3.0598,-3.0598,-3.0598,-3.0598,-3.0598,-3.0598,-3.0598,-3.0598,-3.0598,-3.0598,-3.0598,-3.0772,-1.0778,-1.0717,-1.0717,-1.067,-1.0582,-1.0514,-1.0358,-1.0141,-1.008,-0.9964,-0.9815,-0.9734,-0.9693,-0.97,-0.9902,-1.0321,-1.0965,-1.2355,-1.3808,-1.5262,-1.6546,-1.7414,-1.7955,-1.7995,-1.7876,-1.7609,-1.7582,-1.7582,-1.7582,-1.7582,-1.7582,-1.7582,-1.7582,-1.7435,-1.7206,-1.686,-1.6567,-1.6321,-1.7345,-1.8195,-1.8918,-2.0727,-2.1687,-2.1687,-2.1687,-2.1485,-2.1145,-2.0943,-2.0576,-1.9948,-1.9729,-1.9384,-1.8742,-1.8559,-1.8174,-1.7676,-1.7234,-1.7526,-1.8723,-2.0041,-2.1197,-2.2012,-2.2808,-2.3565,-2.4145,-2.4145,-2.441,-2.5155,-2.5324,-2.5324,-2.53,-2.5324,-2.518,-2.4928,-2.5107,-2.5204,-2.4867,-2.5107,-2.5324,-2.5324,-2.5324,-2.5324,-2.5406,-2.5931,-2.6277,-2.638,-2.6552,-2.7103,-2.7769,-2.8038,-2.8652,-2.9623,-3.0144,-3.0387,-3.0538,-3.0598,-3.0598,-3.0598,-3.0598,-3.0598,-3.0598,-3.0598,-3.0598,-3.0598,-3.0598,-3.0598,-3.0598,-3.0598,-3.0598,-3.0598,-3.0598,-3.0598,-3.0598,-3.0598,-3.0829,-1.0717,-1.0711,-1.0677,-1.0595,-1.0487,-1.0405,-1.0249,-0.999,-0.9943,-0.9842,-0.9761,-0.9652,-0.9557,-0.951,-0.9639,-0.9696,-0.9917,-1.1035,-1.2254,-1.3662,-1.5055,-1.6332,-1.7257,-1.7647,-1.7702,-1.7609,-1.7582,-1.7582,-1.7582,-1.7582,-1.7582,-1.7582,-1.7582,-1.7395,-1.7099,-1.6807,-1.6526,-1.6263,-1.6923,-1.7777,-1.8888,-2.0439,-2.1463,-2.1687,-2.1687,-2.154,-2.1291,-2.1163,-2.0796,-2.0095,-1.9948,-1.9567,-1.8779,-1.8705,-1.8357,-1.7587,-1.7238,-1.7382,-1.8104,-1.9349,-2.0416,-2.1228,-2.2184,-2.3091,-2.3762,-2.3814,-2.4136,-2.4915,-2.5048,-2.5072,-2.53,-2.5324,-2.5083,-2.4592,-2.4891,-2.4915,-2.4592,-2.4891,-2.5131,-2.5276,-2.5324,-2.5324,-2.5394,-2.5721,-2.5896,-2.5546,-2.5791,-2.638,-2.7035,-2.7478,-2.8136,-2.9314,-2.9806,-3.0144,-3.0447,-3.0507,-3.0538,-3.0598,-3.0598,-3.0598,-3.0598,-3.0598,-3.0598,-3.0598,-3.0598,-3.0598,-3.0598,-3.0598,-3.0598,-3.0598,-3.0598,-3.0598,-3.0598,-3.0598,-3.0772,-1.0717,-1.0697,-1.0561,-1.05,-1.0473,-1.0195,-1.0004,-0.9963,-0.9835,-0.9754,-0.9639,-0.9605,-0.9449,-0.9262,-0.934,-0.9446,-0.9599,-1.0962,-1.1606,-1.1836,-1.4096,-1.541,-1.5553,-1.6696,-1.7345,-1.7582,-1.7582,-1.7582,-1.7582,-1.7582,-1.7582,-1.7582,-1.7569,-1.7288,-1.6847,-1.6714,-1.642,-1.6061,-1.6744,-1.7792,-1.8796,-1.9849,-2.0772,-2.1597,-2.1687,-2.1668,-2.1614,-2.1284,-2.0924,-2.0503,-2.0095,-1.9546,-1.8834,-1.8724,-1.8339,-1.7623,-1.7477,-1.7593,-1.7925,-1.8325,-1.9047,-2.0227,-2.0882,-2.1426,-2.2882,-2.3352,-2.3929,-2.452,-2.4616,-2.476,-2.518,-2.5204,-2.5011,-2.452,-2.452,-2.4602,-2.4506,-2.4602,-2.476,-2.518,-2.5324,-2.5324,-2.5324,-2.53,-2.5406,-2.53,-2.5335,-2.5687,-2.6449,-2.7069,-2.7802,-2.8615,-2.9341,-2.9901,-3.0235,-3.0357,-3.0447,-3.0507,-3.0568,-3.0598,-3.0598,-3.0598,-3.0598,-3.0598,-3.0598,-3.0598,-3.0598,-3.0598,-3.0598,-3.0598,-3.0598,-3.0598,-3.0598,-3.0598,-3.0714,-1.0717,-1.0704,-1.0555,-1.0439,-1.0337,-1.0134,-0.9936,-0.9835,-0.9842,-0.9741,-0.9605,-0.951,-0.9347,-0.9207,-0.911,-0.9096,-0.9166,-0.9809,-1.049,-1.1219,-1.2238,-1.3617,-1.537,-1.5849,-1.6617,-1.7477,-1.7582,-1.7582,-1.7582,-1.7582,-1.7582,-1.7542,-1.7447,-1.7233,-1.7005,-1.6607,-1.6313,-1.6174,-1.6306,-1.7124,-1.8657,-1.9163,-2.0076,-2.1597,-2.1687,-2.1687,-2.1687,-2.154,-2.12,-2.0558,-2.0332,-1.9934,-1.9182,-1.8852,-1.8485,-1.7954,-1.7642,-1.7454,-1.7436,-1.8302,-1.9107,-1.9701,-2.1037,-2.2094,-2.2905,-2.3539,-2.4104,-2.4634,-2.4526,-2.4571,-2.4712,-2.4795,-2.4602,-2.4218,-2.4602,-2.4723,-2.4362,-2.4602,-2.5107,-2.5276,-2.5324,-2.5324,-2.5324,-2.5324,-2.5324,-2.5324,-2.5324,-2.5616,-2.6208,-2.6654,-2.7129,-2.7835,-2.8519,-2.9062,-2.931,-2.9962,-3.0357,-3.0417,-3.0477,-3.0568,-3.0598,-3.0598,-3.0598,-3.0598,-3.0598,-3.0598,-3.0598,-3.0598,-3.0598,-3.0598,-3.0598,-3.0598,-3.0598,-3.0598,-3.0598,-1.069,-1.0629,-1.0487,-1.0337,-1.0188,-0.9977,-0.9917,-0.9822,-0.9822,-0.9713,-0.9544,-0.9422,-0.9273,-0.9089,-0.8925,-0.894,-0.8892,-0.9042,-0.9579,-1.0351,-1.0781,-1.2236,-1.4288,-1.4942,-1.5914,-1.716,-1.7437,-1.7477,-1.7582,-1.7582,-1.7582,-1.7569,-1.734,-1.7206,-1.7099,-1.6616,-1.6273,-1.6268,-1.6266,-1.7124,-1.8642,-1.9163,-2.0031,-2.1419,-2.1687,-2.1687,-2.1687,-2.1687,-2.1302,-2.0607,-2.0521,-2.0154,-1.9384,-1.9054,-1.8724,-1.8339,-1.8045,-1.7642,-1.7292,-1.8222,-1.9088,-1.9497,-2.0847,-2.2169,-2.3189,-2.371,-2.4237,-2.4696,-2.4588,-2.4324,-2.4379,-2.4352,-2.4073,-2.3746,-2.429,-2.4564,-2.3962,-2.453,-2.5035,-2.5252,-2.5324,-2.5324,-2.5324,-2.5324,-2.5324,-2.5324,-2.5324,-2.5546,-2.5896,-2.6277,-2.6552,-2.7103,-2.7736,-2.8163,-2.8487,-2.9093,-2.9962,-3.0176,-3.0387,-3.0477,-3.0568,-3.0598,-3.0598,-3.0598,-3.0598,-3.0598,-3.0598,-3.0598,-3.0598,-3.0598,-3.0598,-3.0598,-3.0598,-3.0598,-3.0598,-1.0629,-1.0493,-1.0337,-1.0195,-0.9997,-0.9903,-0.9829,-0.9822,-0.9808,-0.9652,-0.9422,-0.9374,-0.9211,-0.8988,-0.8892,-0.894,-0.8885,-0.8898,-0.9009,-0.921,-1.0131,-1.1428,-1.3038,-1.403,-1.5316,-1.6723,-1.7067,-1.7331,-1.7529,-1.7582,-1.7582,-1.7528,-1.734,-1.7179,-1.7179,-1.6567,-1.6273,-1.6324,-1.6762,-1.7606,-1.8734,-1.9559,-2.0484,-2.1445,-2.1642,-2.1687,-2.1687,-2.1687,-2.1321,-2.0631,-2.0521,-2.0136,-1.9439,-1.9256,-1.9091,-1.8742,-1.865,-1.8284,-1.766,-1.7954,-1.8761,-1.9544,-2.0274,-2.1546,-2.3084,-2.3688,-2.4085,-2.459,-2.4472,-2.4279,-2.4218,-2.402,-2.364,-2.3192,-2.3649,-2.3914,-2.3938,-2.4242,-2.4712,-2.5144,-2.5324,-2.5324,-2.5324,-2.5324,-2.5324,-2.5324,-2.53,-2.53,-2.5476,-2.5896,-2.6277,-2.6517,-2.6994,-2.7471,-2.7802,-2.8228,-2.9156,-2.9931,-3.0205,-3.0387,-3.0507,-3.0538,-3.0598,-3.0598,-3.0598,-3.0598,-3.0598,-3.0598,-3.0481,-3.0481,-3.051,-3.051,-3.0394,-3.0365,-3.0569,-1.0534,-1.046,-1.0222,-1.0093,-0.997,-0.9883,-0.9822,-0.9808,-0.972,-0.9564,-0.9388,-0.933,-0.9117,-0.8919,-0.894,-0.894,-0.894,-0.894,-0.894,-0.8989,-0.932,-1.0726,-1.2561,-1.321,-1.4556,-1.6405,-1.6789,-1.7001,-1.7279,-1.7331,-1.7437,-1.7528,-1.734,-1.7099,-1.686,-1.6473,-1.6192,-1.6027,-1.6157,-1.6763,-1.7746,-1.875,-1.9758,-2.0664,-2.1356,-2.1687,-2.1687,-2.1687,-2.1284,-2.0558,-2.0521,-2.0136,-1.9476,-1.9292,-1.9109,-1.8779,-1.8705,-1.8504,-1.8045,-1.8265,-1.8732,-1.9495,-2.0573,-2.1633,-2.2648,-2.3481,-2.4091,-2.4469,-2.4167,-2.3932,-2.4012,-2.3803,-2.3436,-2.3039,-2.3481,-2.3842,-2.3986,-2.453,-2.5059,-2.5252,-2.5324,-2.5324,-2.5324,-2.5324,-2.5324,-2.5324,-2.5324,-2.5324,-2.5335,-2.5511,-2.5616,-2.5687,-2.6252,-2.6756,-2.6968,-2.7371,-2.8195,-2.9062,-2.9591,-3.0144,-3.0326,-3.0507,-3.0538,-3.0598,-3.0598,-3.0598,-3.0598,-3.0569,-3.0481,-3.0306,-3.0335,-3.0219,-3.0045,-3.0161,-3.051,-0.9974,-1.031,-1.0065,-0.995,-0.9896,-0.9795,-0.9822,-0.9802,-0.9673,-0.9523,-0.9367,-0.9282,-0.9076,-0.896,-0.894,-0.894,-0.894,-0.894,-0.894,-0.8989,-0.943,-1.0726,-1.267,-1.3642,-1.4728,-1.6205,-1.6524,-1.6683,-1.7014,-1.7014,-1.7173,-1.7318,-1.7091,-1.6917,-1.6807,-1.6366,-1.6032,-1.5979,-1.6265,-1.6669,-1.7372,-1.8288,-1.9285,-2.0212,-2.0844,-2.1311,-2.1642,-2.1687,-2.1321,-2.0631,-2.0264,-1.9806,-1.9347,-1.9292,-1.9182,-1.8999,-1.8889,-1.8705,-1.8228,-1.8429,-1.8788,-1.9187,-2.0186,-2.1224,-2.1905,-2.2863,-2.3319,-2.3686,-2.3758,-2.3665,-2.3593,-2.3694,-2.3508,-2.3132,-2.3694,-2.4121,-2.4362,-2.4891,-2.5252,-2.5324,-2.5324,-2.5324,-2.5324,-2.5324,-2.5324,-2.5324,-2.5324,-2.5324,-2.5324,-2.5324,-2.53,-2.5335,-2.5687,-2.5965,-2.6035,-2.6586,-2.7237,-2.8032,-2.8807,-2.956,-3.0083,-3.0326,-3.0447,-3.0568,-3.0598,-3.0598,-3.0598,-3.0598,-3.0539,-3.0364,-3.0219,-3.0277,-3.0277,-3.0364,-3.0598,-0.9032,-0.9948,-0.9984,-0.9889,-0.9842,-0.9822,-0.9808,-0.9781,-0.9652,-0.9496,-0.9347,-0.9241,-0.9062,-0.896,-0.894,-0.894,-0.894,-0.894,-0.894,-0.921,-0.9966,-1.1265,-1.2516,-1.4524,-1.5779,-1.6217,-1.6271,-1.6418,-1.6683,-1.6683,-1.6842,-1.7068,-1.6729,-1.6596,-1.6788,-1.6202,-1.5976,-1.6228,-1.6776,-1.7044,-1.7326,-1.8288,-1.9285,-2.0257,-2.0529,-2.0952,-2.1553,-2.1559,-2.1211,-2.0479,-1.9861,-1.9476,-1.9311,-1.9292,-1.9274,-1.9256,-1.9292,-1.8926,-1.8429,-1.8484,-1.8695,-1.8791,-1.9252,-1.9853,-2.1133,-2.1528,-2.2015,-2.2662,-2.3121,-2.3283,-2.3131,-2.3523,-2.3673,-2.3495,-2.398,-2.4558,-2.5096,-2.5192,-2.53,-2.5324,-2.5324,-2.5324,-2.5324,-2.5324,-2.5324,-2.5324,-2.5324,-2.5324,-2.5324,-2.5324,-2.5324,-2.537,-2.5441,-2.5511,-2.5687,-2.5861,-2.6526,-2.717,-2.7934,-2.868,-2.9682,-3.0083,-3.0387,-3.0477,-3.0598,-3.0598,-3.0598,-3.0598,-3.0481,-3.0219,-3.0277,-3.051,-3.0451,-3.0364,-3.051,-0.9003,-1.0132,-0.9978,-0.9856,-0.9822,-0.9822,-0.9761,-0.9652,-0.951,-0.9419,-0.9211,-0.9055,-0.8981,-0.8885,-0.894,-0.894,-0.894,-0.894,-0.894,-0.9099,-1.0131,-1.1273,-1.2679,-1.475,-1.5951,-1.5992,-1.6057,-1.6164,-1.6377,-1.6418,-1.659,-1.6789,-1.6663,-1.6509,-1.6472,-1.6123,-1.5927,-1.5967,-1.5931,-1.648,-1.7279,-1.8149,-1.9301,-2.0257,-2.0907,-2.1356,-2.1632,-2.1101,-2.0778,-2.0479,-2.0021,-1.9622,-1.9347,-1.9292,-1.9292,-1.9292,-1.9292,-1.9237,-1.8999,-1.8779,-1.8691,-1.8751,-1.8949,-1.9456,-1.9817,-2.044,-2.1096,-2.1733,-2.211,-2.2352,-2.2719,-2.3363,-2.3805,-2.4308,-2.4329,-2.4396,-2.4645,-2.4978,-2.5324,-2.5324,-2.5288,-2.5324,-2.5324,-2.5324,-2.5324,-2.5324,-2.5324,-2.5324,-2.5324,-2.5324,-2.5324,-2.5324,-2.5335,-2.5324,-2.5394,-2.5441,-2.5826,-2.6414,-2.7035,-2.7637,-2.8744,-2.9716,-3.0054,-3.0358,-3.0507,-3.0538,-3.0568,-3.0569,-3.0365,-3.0045,-2.9987,-3.0016,-2.9958,-2.9842,-3.0219,-0.8033,-0.9318,-0.9645,-0.9822,-0.9815,-0.9754,-0.972,-0.9646,-0.9401,-0.9337,-0.9205,-0.9028,-0.894,-0.894,-0.894,-0.894,-0.894,-0.894,-0.894,-0.9099,-1.0131,-1.1601,-1.3176,-1.4761,-1.5405,-1.5885,-1.5885,-1.6004,-1.6111,-1.6111,-1.6271,-1.6446,-1.6411,-1.6313,-1.6304,-1.5922,-1.573,-1.5673,-1.5512,-1.5737,-1.6386,-1.6904,-1.8087,-1.9193,-2.0104,-2.0574,-2.1391,-2.1229,-2.0863,-2.0479,-1.9948,-1.9509,-1.9347,-1.9292,-1.9292,-1.9292,-1.9292,-1.9237,-1.9054,-1.8815,-1.8632,-1.8468,-1.8544,-1.8699,-1.8961,-1.9359,-1.9741,-2.036,-2.0668,-2.1285,-2.2193,-2.3052,-2.3688,-2.4002,-2.4097,-2.4177,-2.446,-2.4909,-2.5194,-2.5218,-2.5264,-2.5324,-2.5324,-2.5324,-2.5324,-2.5324,-2.5324,-2.5324,-2.5324,-2.5324,-2.5324,-2.5324,-2.5324,-2.5324,-2.5324,-2.5394,-2.5406,-2.5931,-2.6552,-2.7035,-2.7841,-2.9034,-2.9535,-2.9875,-3.0237,-3.0419,-3.0305,-3.0219,-3.0016,-2.9755,-2.9639,-2.9726,-2.9842,-2.9726,-3.0074,-0.6823,-0.8244,-0.9335,-0.9822,-0.9802,-0.9693,-0.9686,-0.9673,-0.9367,-0.9296,-0.9232,-0.9042,-0.894,-0.894,-0.894,-0.894,-0.894,-0.894,-0.894,-0.921,-1.0021,-1.1383,-1.3122,-1.4051,-1.4815,-1.5512,-1.5779,-1.5885,-1.5939,-1.5939,-1.6045,-1.618,-1.6048,-1.6041,-1.611,-1.572,-1.548,-1.5466,-1.5236,-1.5322,-1.5642,-1.5866,-1.6842,-1.8319,-1.8948,-2.0014,-2.1186,-2.1485,-2.1174,-2.0613,-1.9842,-1.9512,-1.9384,-1.9292,-1.9292,-1.9292,-1.9274,-1.9164,-1.8852,-1.8797,-1.8595,-1.8284,-1.788,-1.782,-1.8375,-1.8391,-1.8522,-1.9336,-1.9438,-2.0336,-2.1585,-2.2702,-2.3349,-2.3628,-2.3664,-2.4096,-2.4601,-2.4957,-2.5076,-2.5076,-2.5218,-2.5288,-2.5324,-2.5324,-2.5324,-2.5324,-2.5324,-2.5324,-2.5324,-2.5324,-2.5324,-2.5324,-2.5324,-2.5324,-2.5324,-2.5324,-2.5324,-2.5511,-2.6208,-2.6765,-2.7144,-2.8076,-2.8757,-2.9292,-2.9848,-2.9951,-2.9694,-2.9609,-2.9609,-2.9755,-2.9813,-3.0074,-3.0277,-3.0016,-3.0103,-0.737,-0.9552,-0.9747,-0.9822,-0.9815,-0.9788,-0.9659,-0.9469,-0.9374,-0.9205,-0.9062,-0.8905,-0.8885,-0.894,-0.894,-0.894,-0.894,-0.894,-0.894,-0.894,-0.9099,-1.0076,-1.171,-1.3176,-1.4277,-1.4815,-1.5512,-1.5885,-1.5885,-1.5885,-1.5939,-1.598,-1.6021,-1.5907,-1.5903,-1.5538,-1.5318,-1.537,-1.5033,-1.5261,-1.5852,-1.5994,-1.6593,-1.7979,-1.8964,-2.0212,-2.1185,-2.1065,-2.0808,-2.0814,-2.0503,-1.9971,-1.9476,-1.9311,-1.9292,-1.9292,-1.9292,-1.9256,-1.9127,-1.8907,-1.8705,-1.8577,-1.8229,-1.8027,-1.8101,-1.7893,-1.8176,-1.8809,-1.9037,-1.9681,-2.125,-2.2632,-2.3256,-2.3453,-2.3777,-2.4101,-2.4335,-2.4634,-2.4885,-2.5028,-2.5111,-2.5182,-2.5264,-2.5288,-2.5288,-2.5288,-2.5324,-2.5324,-2.5324,-2.5324,-2.5324,-2.5324,-2.5324,-2.5324,-2.5324,-2.5359,-2.5406,-2.5511,-2.6104,-2.6629,-2.701,-2.7525,-2.8378,-2.9053,-2.9643,-2.9511,-2.8995,-2.9491,-2.9608,-2.9812,-2.9929,-3.0103,-3.0161,-3.0045,-3.0132,-0.6804,-0.8195,-0.93,-0.9781,-0.9713,-0.9646,-0.9523,-0.9367,-0.9225,-0.913,-0.9042,-0.8974,-0.894,-0.894,-0.894,-0.894,-0.894,-0.894,-0.894,-0.894,-0.8995,-0.9588,-1.0781,-1.2417,-1.3619,-1.4223,-1.5351,-1.5832,-1.5885,-1.5897,-1.5885,-1.591,-1.6006,-1.5897,-1.5741,-1.5427,-1.5251,-1.5059,-1.4716,-1.4867,-1.5378,-1.5507,-1.6028,-1.7282,-1.8734,-2.0121,-2.0674,-2.0969,-2.0971,-2.1028,-2.0888,-2.0429,-1.9674,-1.9402,-1.9311,-1.9292,-1.9292,-1.9292,-1.9219,-1.9127,-1.8999,-1.8981,-1.8614,-1.8467,-1.832,-1.8027,-1.8045,-1.8487,-1.863,-1.9115,-2.0779,-2.2081,-2.2844,-2.3395,-2.3637,-2.3925,-2.4168,-2.4454,-2.467,-2.4814,-2.4885,-2.4957,-2.5064,-2.5147,-2.5218,-2.5182,-2.5288,-2.5324,-2.5324,-2.5324,-2.5324,-2.5324,-2.5324,-2.5324,-2.5324,-2.5394,-2.5546,-2.5756,-2.6139,-2.6629,-2.7069,-2.765,-2.8249,-2.8616,-2.8761,-2.851,-2.8204,-2.8845,-2.9375,-2.9232,-2.932,-2.9755,-3.0074,-3.0219,-3.0335,-0.5978,-0.6385,-0.8757,-0.972,-0.9591,-0.9456,-0.9374,-0.9306,-0.9083,-0.9049,-0.9083,-0.8988,-0.894,-0.894,-0.894,-0.894,-0.894,-0.894,-0.894,-0.894,-0.8981,-0.9702,-1.0863,-1.2101,-1.3337,-1.4321,-1.5386,-1.5856,-1.5958,-1.5958,-1.6042,-1.6054,-1.6235,-1.6187,-1.5813,-1.5511,-1.5318,-1.5006,-1.457,-1.434,-1.4484,-1.4532,-1.5188,-1.6814,-1.8072,-1.9559,-2.024,-2.0793,-2.1121,-2.1087,-2.096,-2.0583,-2.0095,-1.9641,-1.9402,-1.9402,-1.9366,-1.9292,-1.9292,-1.9274,-1.9256,-1.9274,-1.9017,-1.8834,-1.8685,-1.8485,-1.8376,-1.8451,-1.8695,-1.9271,-2.0411,-2.1768,-2.2706,-2.3241,-2.3476,-2.3728,-2.4062,-2.4345,-2.4454,-2.4526,-2.467,-2.4778,-2.4885,-2.5004,-2.504,-2.5111,-2.5218,-2.5324,-2.5324,-2.5324,-2.5324,-2.518,-2.5131,-2.4795,-2.4747,-2.5035,-2.5234,-2.5505,-2.5911,-2.6346,-2.6697,-2.6841,-2.7133,-2.7446,-2.7531,-2.7538,-2.7903,-2.8641,-2.8911,-2.8627,-2.903,-2.9724,-3.0131,-3.0393,-3.0423,-0.6536,-0.7667,-0.9086,-0.9625,-0.9585,-0.9442,-0.9357,-0.9255,-0.918,-0.9055,-0.8974,-0.8898,-0.894,-0.894,-0.894,-0.894,-0.894,-0.894,-0.894,-0.896,-0.9084,-0.9741,-1.097,-1.219,-1.3526,-1.4688,-1.5588,-1.6054,-1.6187,-1.6223,-1.6308,-1.6501,-1.6598,-1.6513,-1.6211,-1.5885,-1.5463,-1.5149,-1.463,-1.4316,-1.434,-1.44,-1.5092,-1.6767,-1.7654,-1.8826,-2.0172,-2.0536,-2.0713,-2.0935,-2.0374,-2.0182,-2.0135,-1.9934,-1.9779,-1.9619,-1.9457,-1.9292,-1.9292,-1.9292,-1.9292,-1.9292,-1.9201,-1.9182,-1.9091,-1.8871,-1.876,-1.9081,-1.9562,-2.0232,-2.0827,-2.1898,-2.2841,-2.3374,-2.3751,-2.4062,-2.4154,-2.4236,-2.4345,-2.4454,-2.4526,-2.4598,-2.4706,-2.4849,-2.4992,-2.5076,-2.5218,-2.5288,-2.5324,-2.5324,-2.5324,-2.5107,-2.4856,-2.4434,-2.4049,-2.4434,-2.4767,-2.4936,-2.5265,-2.5581,-2.5791,-2.5652,-2.5832,-2.667,-2.7334,-2.7732,-2.8164,-2.8396,-2.8693,-2.8611,-2.9193,-2.9808,-2.9837,-2.9895,-2.9987,-0.5602,-0.6858,-0.8068,-0.8921,-0.9316,-0.93,-0.9178,-0.9055,-0.9042,-0.9001,-0.8954,-0.894,-0.894,-0.894,-0.894,-0.894,-0.894,-0.894,-0.894,-0.896,-0.9064,-0.9705,-1.0962,-1.23,-1.3536,-1.4765,-1.5728,-1.6356,-1.6489,-1.6501,-1.6585,-1.6694,-1.6827,-1.6706,-1.6308,-1.5897,-1.5559,-1.5258,-1.4702,-1.4377,-1.4461,-1.4389,-1.5105,-1.5697,-1.6579,-1.7608,-1.8915,-1.976,-2.0159,-2.0739,-2.0642,-2.0527,-2.0436,-2.0296,-1.9996,-1.967,-1.9399,-1.9292,-1.9292,-1.9292,-1.9292,-1.9292,-1.9292,-1.9292,-1.9256,-1.9146,-1.9109,-1.9337,-1.9529,-2.012,-2.0673,-2.1765,-2.253,-2.3201,-2.3809,-2.4154,-2.42,-2.42,-2.4273,-2.4345,-2.4345,-2.4418,-2.4454,-2.4634,-2.4849,-2.5028,-2.5147,-2.5253,-2.5288,-2.5228,-2.5204,-2.4891,-2.4578,-2.4121,-2.3761,-2.4001,-2.4338,-2.453,-2.4819,-2.5131,-2.5324,-2.5335,-2.5787,-2.6519,-2.715,-2.7379,-2.7099,-2.6875,-2.7701,-2.8595,-2.882,-2.9038,-2.9192,-2.9314,-2.955,-0.4377,-0.5466,-0.6921,-0.8026,-0.8824,-0.906,-0.9049,-0.8954,-0.894,-0.8892,-0.894,-0.894,-0.894,-0.894,-0.894,-0.894,-0.894,-0.894,-0.8954,-0.9008,-0.9055,-0.9657,-1.0947,-1.2057,-1.3335,-1.498,-1.575,-1.6601,-1.6779,-1.6779,-1.6803,-1.6948,-1.7105,-1.6899,-1.6404,-1.6223,-1.5777,-1.533,-1.4763,-1.4582,-1.4545,-1.4425,-1.4436,-1.458,-1.5378,-1.6438,-1.7794,-1.8748,-1.9526,-2.0257,-2.0629,-2.0792,-2.0748,-2.0501,-2.0036,-1.9507,-1.9334,-1.9283,-1.9231,-1.9213,-1.9213,-1.9292,-1.9292,-1.9292,-1.9292,-1.9274,-1.9274,-1.9292,-1.9332,-1.9726,-2.0507,-2.1336,-2.2134,-2.292,-2.368,-2.42,-2.42,-2.42,-2.42,-2.4236,-2.42,-2.4236,-2.4345,-2.4454,-2.4706,-2.4849,-2.4969,-2.5182,-2.5194,-2.5024,-2.4915,-2.4578,-2.4218,-2.3809,-2.3592,-2.3616,-2.3953,-2.4194,-2.4602,-2.4987,-2.518,-2.5324,-2.5822,-2.6186,-2.5993,-2.6089,-2.5711,-2.6181,-2.7673,-2.8557,-2.8336,-2.8502,-2.8987,-2.9342,-2.9608,-0.3735,-0.4321,-0.6469,-0.7521,-0.7766,-0.8512,-0.8905,-0.8885,-0.894,-0.894,-0.894,-0.894,-0.894,-0.894,-0.894,-0.894,-0.8947,-0.8947,-0.9015,-0.9123,-0.9275,-0.9889,-1.1171,-1.1633,-1.3048,-1.4628,-1.5492,-1.6239,-1.6748,-1.693,-1.7153,-1.731,-1.7334,-1.7322,-1.702,-1.6646,-1.6465,-1.6054,-1.5378,-1.4799,-1.4461,-1.4364,-1.4773,-1.5309,-1.5689,-1.6163,-1.72,-1.8164,-1.8918,-1.9209,-2.0002,-2.03,-2.0218,-2.0175,-2.0,-1.9713,-1.9425,-1.9169,-1.9155,-1.9123,-1.9145,-1.9265,-1.9289,-1.9292,-1.9253,-1.9292,-1.9292,-1.9292,-1.9292,-1.9569,-2.0313,-2.1221,-2.208,-2.283,-2.3519,-2.4018,-2.42,-2.42,-2.42,-2.42,-2.42,-2.42,-2.4236,-2.4381,-2.4526,-2.467,-2.479,-2.4981,-2.5063,-2.4869,-2.441,-2.4001,-2.3905,-2.3544,-2.3304,-2.3376,-2.3713,-2.3986,-2.4482,-2.4915,-2.5131,-2.5324,-2.5324,-2.5508,-2.5341,-2.5812,-2.6475,-2.7308,-2.8307,-2.8375,-2.8012,-2.8422,-2.9048,-2.9343,-2.9455,-0.2403,-0.3571,-0.4774,-0.6088,-0.7225,-0.7727,-0.8269,-0.883,-0.894,-0.894,-0.894,-0.894,-0.894,-0.894,-0.894,-0.8988,-0.9022,-0.8974,-0.9076,-0.9268,-0.9344,-0.9687,-1.0332,-1.1146,-1.2539,-1.3364,-1.4785,-1.5751,-1.6377,-1.7019,-1.7394,-1.7455,-1.7467,-1.7428,-1.731,-1.6899,-1.6561,-1.6175,-1.5656,-1.5065,-1.4714,-1.4703,-1.4875,-1.5166,-1.5202,-1.577,-1.658,-1.7463,-1.8288,-1.8796,-1.9774,-2.0268,-2.0238,-2.0169,-2.0103,-1.9739,-1.9609,-1.9501,-1.946,-1.9235,-1.9156,-1.9147,-1.9097,-1.8993,-1.9112,-1.9213,-1.9292,-1.9292,-1.9292,-1.949,-1.9883,-2.0586,-2.1375,-2.2209,-2.3016,-2.3666,-2.4018,-2.4164,-2.42,-2.42,-2.42,-2.42,-2.4236,-2.4345,-2.4431,-2.4515,-2.4518,-2.4519,-2.4623,-2.4595,-2.4016,-2.328,-2.3336,-2.336,-2.3168,-2.3063,-2.3649,-2.4035,-2.465,-2.5035,-2.5204,-2.5324,-2.5252,-2.5276,-2.5322,-2.6064,-2.7144,-2.7185,-2.7067,-2.73,-2.7617,-2.7884,-2.8177,-2.8522,-2.8754,-0.1261,-0.2511,-0.3236,-0.4633,-0.626,-0.6816,-0.7598,-0.838,-0.8774,-0.894,-0.894,-0.894,-0.894,-0.894,-0.894,-0.8988,-0.9076,-0.8981,-0.913,-0.9252,-0.9306,-0.9405,-0.987,-1.0643,-1.1217,-1.16,-1.3955,-1.5192,-1.5983,-1.675,-1.7455,-1.7479,-1.7479,-1.7394,-1.7213,-1.7032,-1.6803,-1.6404,-1.597,-1.5463,-1.5065,-1.5101,-1.5016,-1.4896,-1.4861,-1.5122,-1.5794,-1.6635,-1.749,-1.7902,-1.9163,-1.9758,-1.977,-2.007,-2.0138,-1.996,-1.9857,-1.9859,-1.9721,-1.9439,-1.9223,-1.9094,-1.894,-1.8812,-1.8931,-1.9112,-1.9213,-1.9173,-1.9292,-1.9292,-1.945,-2.0079,-2.076,-2.1527,-2.2231,-2.3016,-2.3666,-2.374,-2.4018,-2.42,-2.42,-2.42,-2.4236,-2.4345,-2.4394,-2.4384,-2.4295,-2.4143,-2.4199,-2.43,-2.3948,-2.3287,-2.3376,-2.3472,-2.336,-2.3336,-2.3722,-2.4059,-2.4675,-2.5059,-2.518,-2.5155,-2.5083,-2.5155,-2.5252,-2.5616,-2.6321,-2.5965,-2.5687,-2.6731,-2.7452,-2.6971,-2.7032,-2.7538,-2.8206,-0.0513,-0.073,-0.2414,-0.3423,-0.4083,-0.62,-0.7099,-0.7487,-0.8436,-0.8885,-0.894,-0.894,-0.894,-0.894,-0.8885,-0.8898,-0.8912,-0.8892,-0.915,-0.9313,-0.9388,-0.9517,-0.9786,-1.0116,-1.0567,-1.1583,-1.3117,-1.4371,-1.5569,-1.6526,-1.7185,-1.7479,-1.7479,-1.7467,-1.7394,-1.7261,-1.7008,-1.6646,-1.6272,-1.5873,-1.5523,-1.5415,-1.533,-1.5149,-1.5065,-1.503,-1.4899,-1.5878,-1.6423,-1.6522,-1.801,-1.9072,-1.9255,-1.9729,-1.9935,-2.0144,-2.0155,-2.0148,-2.0014,-1.954,-1.9134,-1.9047,-1.8935,-1.8705,-1.8732,-1.8931,-1.9011,-1.9073,-1.9231,-1.9292,-1.9529,-1.9962,-2.0372,-2.0914,-2.1527,-2.2172,-2.283,-2.3224,-2.3482,-2.4018,-2.42,-2.42,-2.42,-2.4273,-2.4309,-2.4299,-2.4175,-2.4062,-2.3955,-2.4033,-2.3922,-2.3633,-2.3694,-2.3761,-2.3746,-2.3866,-2.4025,-2.4169,-2.4602,-2.4915,-2.5107,-2.5011,-2.4867,-2.4987,-2.5107,-2.5274,-2.5465,-2.5571,-2.5931,-2.6934,-2.7219,-2.6578,-2.6654,-2.7293,-2.8005,-0.0282,-0.0449,-0.1177,-0.2071,-0.3187,-0.4972,-0.6144,-0.7038,-0.8325,-0.894,-0.8885,-0.894,-0.894,-0.894,-0.8892,-0.8994,-0.9055,-0.9069,-0.9259,-0.9435,-0.9557,-0.9646,-0.9774,-0.9876,-1.0119,-1.0785,-1.1864,-1.3186,-1.4441,-1.5876,-1.6832,-1.7185,-1.7479,-1.7479,-1.7455,-1.7346,-1.7056,-1.6767,-1.6416,-1.603,-1.5656,-1.5656,-1.5608,-1.5378,-1.5342,-1.5306,-1.5326,-1.5841,-1.6051,-1.6347,-1.7243,-1.7978,-1.8657,-1.9209,-1.9729,-2.0201,-2.0292,-2.0292,-2.0223,-1.9685,-1.9273,-1.8821,-1.8789,-1.8754,-1.8602,-1.8812,-1.8971,-1.9073,-1.9192,-1.9253,-1.9371,-1.9608,-1.9883,-2.0391,-2.0875,-2.1413,-2.1983,-2.2494,-2.3038,-2.3556,-2.3959,-2.42,-2.42,-2.42,-2.4236,-2.4213,-2.4081,-2.3932,-2.391,-2.3803,-2.3776,-2.377,-2.3776,-2.3886,-2.3872,-2.4073,-2.429,-2.4434,-2.4578,-2.4723,-2.4915,-2.4736,-2.4675,-2.4784,-2.4928,-2.5094,-2.5285,-2.5522,-2.5931,-2.6355,-2.6321,-2.5951,-2.633,-2.6968,-2.7537,-0.0112,-0.028,-0.028,-0.1008,-0.2293,-0.3631,-0.4912,-0.6144,-0.7482,-0.8461,-0.8834,-0.8946,-0.9001,-0.9001,-0.9008,-0.9049,-0.918,-0.9221,-0.9347,-0.9476,-0.9564,-0.9666,-0.9747,-0.9781,-0.9821,-1.0098,-1.1088,-1.2466,-1.3844,-1.4976,-1.629,-1.7185,-1.7479,-1.7479,-1.7443,-1.731,-1.7068,-1.6815,-1.661,-1.626,-1.5873,-1.591,-1.5885,-1.5668,-1.562,-1.5463,-1.5397,-1.5595,-1.5626,-1.5809,-1.6388,-1.7311,-1.8041,-1.875,-1.9301,-1.9911,-2.0292,-2.0292,-2.0206,-1.9915,-1.9453,-1.8989,-1.8738,-1.8648,-1.8597,-1.8682,-1.8754,-1.8891,-1.9073,-1.9231,-1.9253,-1.9411,-1.9529,-1.9962,-2.0001,-2.0489,-2.1298,-2.1928,-2.2531,-2.3113,-2.3593,-2.42,-2.42,-2.42,-2.42,-2.42,-2.4158,-2.4022,-2.3908,-2.384,-2.3745,-2.3741,-2.3759,-2.3871,-2.4006,-2.4232,-2.4482,-2.4747,-2.4795,-2.465,-2.4675,-2.452,-2.4496,-2.4616,-2.476,-2.4915,-2.5118,-2.5417,-2.5406,-2.5406,-2.5441,-2.5581,-2.5791,-2.6321,-2.6697,0.0,0.0,0.0,-0.0393,-0.1121,-0.2237,-0.3522,-0.486,-0.62,-0.7488,-0.8659,-0.8954,-0.9137,-0.9137,-0.913,-0.92,-0.9241,-0.9262,-0.9347,-0.9537,-0.953,-0.9605,-0.9686,-0.9734,-0.9713,-1.0098,-1.0846,-1.2045,-1.3545,-1.4679,-1.5983,-1.7056,-1.7361,-1.7479,-1.7479,-1.7479,-1.7334,-1.7105,-1.6996,-1.6646,-1.626,-1.6151,-1.6006,-1.5885,-1.5813,-1.5632,-1.5494,-1.5289,-1.522,-1.507,-1.5469,-1.6325,-1.7203,-1.7994,-1.8872,-1.9957,-2.0138,-2.0201,-2.0257,-1.9905,-1.9546,-1.923,-1.9058,-1.8783,-1.8611,-1.8591,-1.8531,-1.8727,-1.8931,-1.9112,-1.9231,-1.9292,-1.9371,-1.945,-1.9529,-1.9726,-2.0566,-2.1565,-2.2231,-2.2756,-2.3556,-2.42,-2.42,-2.42,-2.42,-2.42,-2.42,-2.4122,-2.3973,-2.393,-2.3874,-2.4038,-2.4093,-2.4208,-2.4393,-2.4438,-2.464,-2.4904,-2.5011,-2.4808,-2.465,-2.452,-2.4496,-2.452,-2.4664,-2.4891,-2.5107,-2.5324,-2.5324,-2.5324,-2.5324,-2.5406,-2.5546,-2.5721,-2.6079,0.0,0.0,0.0,-0.0112,-0.0504,-0.179,-0.3073,-0.4414,-0.6371,-0.778,-0.832,-0.867,-0.8854,-0.899,-0.9154,-0.9211,-0.9306,-0.9435,-0.9571,-0.9525,-0.9478,-0.9659,-0.9727,-0.9693,-0.968,-0.9842,-1.0482,-1.1209,-1.2354,-1.3725,-1.4976,-1.6042,-1.7126,-1.7479,-1.7479,-1.7443,-1.7298,-1.6911,-1.6767,-1.6573,-1.6115,-1.603,-1.5994,-1.5885,-1.5885,-1.5765,-1.5547,-1.5294,-1.5004,-1.4739,-1.513,-1.5417,-1.6244,-1.6983,-1.7669,-1.8888,-1.9347,-1.9683,-2.0048,-2.0121,-1.9905,-1.9641,-1.9384,-1.9059,-1.8707,-1.8718,-1.8632,-1.8584,-1.8812,-1.8993,-1.9073,-1.9213,-1.9292,-1.9332,-1.9371,-1.9411,-2.004,-2.1183,-2.2021,-2.2494,-2.3128,-2.3886,-2.42,-2.42,-2.42,-2.42,-2.42,-2.42,-2.4099,-2.4135,-2.415,-2.44,-2.4567,-2.4696,-2.4812,-2.4667,-2.4808,-2.5107,-2.5131,-2.4952,-2.4784,-2.4568,-2.452,-2.452,-2.4688,-2.4891,-2.5131,-2.5324,-2.5324,-2.5324,-2.5324,-2.5324,-2.5406,-2.5441,-2.5581,0.0,0.0,0.0,0.0,0.0,-0.1064,-0.2354,-0.4105,-0.6279,-0.7522,-0.8091,-0.8351,-0.8514,-0.8711,-0.8833,-0.8967,-0.9104,-0.9189,-0.93,-0.9354,-0.9321,-0.938,-0.9467,-0.9559,-0.9612,-0.972,-0.9923,-1.0482,-1.1812,-1.2586,-1.4023,-1.5628,-1.6832,-1.7361,-1.7455,-1.7358,-1.7141,-1.6791,-1.6622,-1.6356,-1.603,-1.591,-1.5897,-1.5885,-1.5873,-1.5825,-1.568,-1.5463,-1.5197,-1.5016,-1.4887,-1.4921,-1.5556,-1.6048,-1.6716,-1.7809,-1.8734,-1.9255,-2.0002,-2.0275,-2.0103,-1.9949,-1.9802,-1.9392,-1.8888,-1.8807,-1.862,-1.8574,-1.8709,-1.8812,-1.8913,-1.9073,-1.9192,-1.9173,-1.9253,-1.9311,-1.9608,-2.0721,-2.1565,-2.2021,-2.2718,-2.3482,-2.4127,-2.42,-2.42,-2.42,-2.42,-2.42,-2.4177,-2.4145,-2.4158,-2.4327,-2.446,-2.4366,-2.4493,-2.4715,-2.4893,-2.5216,-2.5192,-2.5072,-2.488,-2.4664,-2.4592,-2.4592,-2.4832,-2.5059,-2.5204,-2.5324,-2.5324,-2.5324,-2.5324,-2.5324,-2.5324,-2.5324,-2.5359,0.0,0.0,0.0,0.0,0.0,0.0,-0.1467,-0.3771,-0.5234,-0.6601,-0.784,-0.8052,-0.8311,-0.8427,-0.8433,-0.854,-0.8691,-0.8675,-0.8797,-0.8869,-0.8896,-0.8986,-0.9091,-0.9222,-0.9268,-0.9499,-0.966,-1.0023,-1.1442,-1.1864,-1.3237,-1.5213,-1.6526,-1.7091,-1.7253,-1.7177,-1.6948,-1.6706,-1.6465,-1.6211,-1.5946,-1.5837,-1.5849,-1.5849,-1.5837,-1.5753,-1.5632,-1.5487,-1.5318,-1.5101,-1.4835,-1.5306,-1.5654,-1.5856,-1.6461,-1.725,-1.8272,-1.9255,-2.0093,-2.0292,-2.0275,-2.0155,-1.9966,-1.959,-1.9196,-1.8878,-1.8652,-1.8464,-1.8474,-1.8571,-1.8692,-1.8834,-1.8993,-1.9073,-1.9192,-1.9271,-1.939,-2.0118,-2.0914,-2.1603,-2.2344,-2.3075,-2.374,-2.3959,-2.3849,-2.42,-2.42,-2.42,-2.4131,-2.3925,-2.3915,-2.3953,-2.3979,-2.3826,-2.407,-2.4623,-2.4871,-2.5194,-2.5229,-2.5133,-2.4917,-2.4856,-2.4891,-2.4939,-2.5107,-2.5252,-2.53,-2.5324,-2.5324,-2.5324,-2.5324,-2.5324,-2.5324,-2.5324,-2.5324,0.0,0.0,0.0,0.0,0.0,0.0,-0.0945,-0.253,-0.4536,-0.5921,-0.6385,-0.7409,-0.7875,-0.8266,-0.8286,-0.8414,-0.8463,-0.8506,-0.8577,-0.854,-0.8479,-0.8543,-0.8646,-0.8691,-0.8761,-0.8947,-0.9114,-0.9372,-0.9923,-1.0657,-1.2689,-1.5025,-1.5622,-1.6272,-1.6785,-1.6948,-1.6734,-1.6622,-1.638,-1.6115,-1.5873,-1.5728,-1.5753,-1.5789,-1.5704,-1.5656,-1.5716,-1.5584,-1.5403,-1.5149,-1.4871,-1.4961,-1.4726,-1.4856,-1.533,-1.7203,-1.8226,-1.9209,-2.0048,-2.0292,-2.0229,-2.0184,-2.0093,-1.9778,-1.9367,-1.9025,-1.8758,-1.8538,-1.8377,-1.8498,-1.8544,-1.8647,-1.8789,-1.8851,-1.9029,-1.9225,-1.9366,-1.9766,-2.0527,-2.1068,-2.1852,-2.2531,-2.3202,-2.3335,-2.3335,-2.3886,-2.42,-2.4164,-2.4154,-2.3971,-2.3879,-2.3917,-2.3977,-2.4026,-2.4272,-2.4744,-2.4909,-2.5087,-2.5087,-2.5158,-2.5133,-2.5096,-2.518,-2.5204,-2.5252,-2.5276,-2.53,-2.5324,-2.5324,-2.5324,-2.5324,-2.5324,-2.5324,-2.5324,-2.5324,0.0,0.0,0.0,0.0,0.0,0.0,-0.0442,-0.1396,-0.3168,-0.4501,-0.5622,-0.6378,-0.711,-0.7714,-0.7835,-0.7921,-0.8043,-0.8055,-0.8061,-0.8026,-0.8127,-0.8145,-0.8196,-0.8311,-0.8448,-0.8577,-0.87,-0.8913,-0.9223,-1.0229,-1.2107,-1.309,-1.3887,-1.4993,-1.5583,-1.5625,-1.5825,-1.6042,-1.615,-1.5952,-1.5777,-1.5584,-1.5644,-1.568,-1.5559,-1.5656,-1.5837,-1.5692,-1.5559,-1.5354,-1.5113,-1.4811,-1.4558,-1.4558,-1.4867,-1.6499,-1.7063,-1.7948,-1.8718,-1.9228,-1.9476,-1.9736,-1.9946,-1.9802,-1.9641,-1.9384,-1.8922,-1.8552,-1.848,-1.8481,-1.847,-1.8516,-1.8544,-1.8589,-1.8901,-1.9155,-1.9402,-1.9666,-2.0118,-2.0586,-2.1242,-2.1928,-2.2344,-2.2456,-2.2777,-2.3298,-2.3703,-2.3849,-2.4018,-2.4131,-2.4122,-2.4112,-2.4266,-2.4422,-2.4634,-2.4706,-2.4849,-2.4933,-2.4957,-2.5004,-2.5147,-2.5229,-2.5181,-2.524,-2.53,-2.5324,-2.5324,-2.5324,-2.5324,-2.5324,-2.5324,-2.5324,-2.5324,-2.5324,-2.5324,0.0,0.0,0.0,0.0,0.0,0.0,0.0,0.0,-0.1476,-0.3079,-0.4972,-0.552,-0.6352,-0.7225,-0.741,-0.7442,-0.7571,-0.7599,-0.7593,-0.7481,-0.7692,-0.7766,-0.7822,-0.8067,-0.8064,-0.8311,-0.8437,-0.842,-0.8979,-0.9692,-1.0266,-1.0748,-1.177,-1.2974,-1.3986,-1.3902,-1.4229,-1.5061,-1.5267,-1.5258,-1.5455,-1.5475,-1.5463,-1.5547,-1.5535,-1.5572,-1.5801,-1.5873,-1.5861,-1.5668,-1.5427,-1.5089,-1.4775,-1.4606,-1.5013,-1.552,-1.617,-1.6828,-1.7578,-1.8148,-1.8575,-1.894,-1.9294,-1.963,-1.9679,-1.9477,-1.9042,-1.8596,-1.8473,-1.8284,-1.8238,-1.8354,-1.8435,-1.8521,-1.874,-1.8919,-1.9105,-1.935,-1.9726,-2.0118,-2.0469,-2.1145,-2.1603,-2.1814,-2.2494,-2.2889,-2.3446,-2.3703,-2.3813,-2.4127,-2.42,-2.4236,-2.4309,-2.4418,-2.4454,-2.4562,-2.467,-2.4742,-2.4742,-2.4849,-2.5004,-2.5076,-2.5147,-2.5218,-2.5324,-2.5324,-2.5324,-2.5324,-2.5324,-2.5324,-2.5324,-2.5324,-2.5324,-2.5324,-2.5324,0.0,0.0,0.0,0.0,0.0,0.0,0.0,0.0,-0.1164,-0.2582,-0.4153,-0.5628,-0.6655,-0.705,-0.7105,-0.7176,-0.7292,-0.729,-0.7252,-0.7308,-0.7377,-0.741,-0.736,-0.7533,-0.7545,-0.7612,-0.7735,-0.7895,-0.8171,-0.8528,-0.9087,-0.9874,-1.048,-1.1214,-1.2284,-1.2183,-1.2778,-1.3901,-1.4099,-1.4648,-1.5247,-1.5134,-1.5089,-1.539,-1.5547,-1.5523,-1.5704,-1.5885,-1.5632,-1.533,-1.5221,-1.4896,-1.4509,-1.4364,-1.4831,-1.5568,-1.571,-1.617,-1.6739,-1.7272,-1.7734,-1.8471,-1.9004,-1.9521,-1.967,-1.9485,-1.9162,-1.8733,-1.8391,-1.8179,-1.8059,-1.8192,-1.8307,-1.8452,-1.8614,-1.8682,-1.8807,-1.9073,-1.939,-1.9608,-1.9883,-2.0274,-2.0818,-2.1395,-2.2155,-2.2868,-2.3666,-2.4032,-2.3922,-2.4091,-2.4127,-2.4164,-2.42,-2.4273,-2.4345,-2.4266,-2.4327,-2.4386,-2.4422,-2.4576,-2.4826,-2.5004,-2.5147,-2.5253,-2.5324,-2.5324,-2.5324,-2.5324,-2.5324,-2.5324,-2.5324,-2.5324,-2.5324,-2.5324,-2.5324,0.0,0.0,0.0,0.0,0.0,0.0,0.0,0.0,-0.1141,-0.23,-0.3566,-0.5223,-0.6368,-0.6883,-0.7002,-0.7078,-0.715,-0.7193,-0.7182,-0.7155,-0.7133,-0.7089,-0.7095,-0.7117,-0.7161,-0.7203,-0.7301,-0.744,-0.7495,-0.7601,-0.8108,-0.8626,-0.8917,-0.9409,-1.0417,-1.0858,-1.1513,-1.2705,-1.2895,-1.3769,-1.4824,-1.4698,-1.4764,-1.5084,-1.5295,-1.5307,-1.5608,-1.5789,-1.5656,-1.5294,-1.5089,-1.4751,-1.4437,-1.4316,-1.458,-1.4914,-1.514,-1.5378,-1.5907,-1.6416,-1.6961,-1.7702,-1.8468,-1.8888,-1.9974,-1.9778,-1.9401,-1.8973,-1.8596,-1.8374,-1.822,-1.826,-1.8226,-1.8273,-1.8597,-1.8813,-1.8936,-1.9152,-1.9292,-1.9411,-1.9569,-1.9648,-2.004,-2.0079,-2.0798,-2.1413,-2.2397,-2.3446,-2.3556,-2.4018,-2.4055,-2.4127,-2.4164,-2.4177,-2.4213,-2.403,-2.3835,-2.394,-2.415,-2.4399,-2.4648,-2.4945,-2.5147,-2.5218,-2.5288,-2.5324,-2.5324,-2.5324,-2.5324,-2.5324,-2.5324,-2.5324,-2.5324,-2.5324,-2.5324,0.0,0.0,0.0,0.0,0.0,0.0,0.0,0.0,-0.1127,-0.2085,-0.3062,-0.4535,-0.5668,-0.6479,-0.6904,-0.6959,-0.7013,-0.7067,-0.7046,-0.7024,-0.7002,-0.698,-0.6948,-0.6931,-0.698,-0.7018,-0.7089,-0.7133,-0.7232,-0.7227,-0.7221,-0.7187,-0.736,-0.7641,-0.8736,-0.9539,-1.0228,-1.1609,-1.2432,-1.3311,-1.3796,-1.4139,-1.4394,-1.4663,-1.4894,-1.5127,-1.5403,-1.5575,-1.5546,-1.5239,-1.4831,-1.4545,-1.4401,-1.4304,-1.4304,-1.4532,-1.4532,-1.458,-1.4686,-1.5081,-1.5906,-1.684,-1.7568,-1.8385,-1.9455,-1.9641,-1.9269,-1.9067,-1.8674,-1.8477,-1.8323,-1.8186,-1.8111,-1.8151,-1.8551,-1.886,-1.8972,-1.9112,-1.9173,-1.9253,-1.9292,-1.9311,-1.9332,-1.9371,-1.9844,-2.0333,-2.1029,-2.189,-2.2777,-2.3556,-2.4018,-2.4091,-2.42,-2.4177,-2.4177,-2.3994,-2.3764,-2.3833,-2.4101,-2.4245,-2.447,-2.4779,-2.5064,-2.5218,-2.5253,-2.5288,-2.5324,-2.5324,-2.5324,-2.5324,-2.5324,-2.5324,-2.5324,-2.5324,-2.5324,0.0,0.0,0.0,0.0,0.0,0.0,0.0,0.0,-0.1115,-0.177,-0.24,-0.4133,-0.5606,-0.657,-0.6665,-0.6741,-0.6866,-0.6959,-0.7008,-0.6991,-0.6937,-0.6937,-0.6899,-0.6801,-0.6888,-0.6915,-0.691,-0.6921,-0.6931,-0.6893,-0.6834,-0.6806,-0.6893,-0.6987,-0.702,-0.7865,-0.8839,-1.024,-1.1068,-1.1684,-1.3316,-1.3755,-1.4077,-1.4309,-1.4424,-1.4648,-1.4821,-1.5064,-1.4879,-1.4561,-1.433,-1.4206,-1.4244,-1.4304,-1.4304,-1.4304,-1.4304,-1.4304,-1.4435,-1.4481,-1.5339,-1.6129,-1.6782,-1.7171,-1.8024,-1.8532,-1.8392,-1.8684,-1.8445,-1.835,-1.8237,-1.8094,-1.8025,-1.8106,-1.8371,-1.8574,-1.8727,-1.8913,-1.9033,-1.9112,-1.9192,-1.9271,-1.9332,-1.9648,-2.0294,-2.0837,-2.1413,-2.2231,-2.2756,-2.3335,-2.3799,-2.3945,-2.4055,-2.42,-2.4177,-2.4085,-2.3925,-2.3971,-2.403,-2.4173,-2.4386,-2.4659,-2.4885,-2.504,-2.5218,-2.5288,-2.5288,-2.5288,-2.5324,-2.5324,-2.5324,-2.5324,-2.5324,-2.5324,-2.5324]}]]